<?xml version="1.0" encoding="UTF-8" standalone="no" ?>
<gpx xmlns="http://www.topografix.com/GPX/1/1" xmlns:xsi="http://www.w3.org/2001/XMLSchema-instance" xsi:schemaLocation="http://www.topografix.com/GPX/1/1 http://www.topografix.com/GPX/1/1/gpx.xsd" version="1.1" creator="VisuGPX - https://www.visugpx.com">
  <metadata>
    <name>Entre Monpazier et Montferrand</name>
    <desc><![CDATA[Un circuit en majorité dans les bois, assez physique.]]></desc>
  </metadata>
  <trk>
    <name><![CDATA[17-AOU-14 12:34:31]]></name>
    <trkseg>
      <trkpt lat="44.67848" lon="0.89388">
        <ele>194.32</ele>
        <time>2014-08-17T07:00:03Z</time>
      </trkpt>
      <trkpt lat="44.67847" lon="0.89387">
        <ele>195.28</ele>
        <time>2014-08-17T07:00:24Z</time>
      </trkpt>
      <trkpt lat="44.67847" lon="0.89388">
        <ele>195.28</ele>
        <time>2014-08-17T07:00:45Z</time>
      </trkpt>
      <trkpt lat="44.67846" lon="0.89387">
        <ele>194.8</ele>
        <time>2014-08-17T07:01:14Z</time>
      </trkpt>
      <trkpt lat="44.67846" lon="0.89386">
        <ele>195.28</ele>
        <time>2014-08-17T07:01:37Z</time>
      </trkpt>
      <trkpt lat="44.67847" lon="0.89389">
        <ele>194.32</ele>
        <time>2014-08-17T07:01:48Z</time>
      </trkpt>
      <trkpt lat="44.67855" lon="0.89423">
        <ele>194.8</ele>
        <time>2014-08-17T07:02:02Z</time>
      </trkpt>
      <trkpt lat="44.67857" lon="0.89423">
        <ele>194.8</ele>
        <time>2014-08-17T07:02:03Z</time>
      </trkpt>
      <trkpt lat="44.67859" lon="0.89423">
        <ele>194.8</ele>
        <time>2014-08-17T07:02:04Z</time>
      </trkpt>
      <trkpt lat="44.67862" lon="0.89423">
        <ele>195.28</ele>
        <time>2014-08-17T07:02:05Z</time>
      </trkpt>
      <trkpt lat="44.67864" lon="0.89423">
        <ele>195.28</ele>
        <time>2014-08-17T07:02:06Z</time>
      </trkpt>
      <trkpt lat="44.67866" lon="0.89423">
        <ele>195.77</ele>
        <time>2014-08-17T07:02:07Z</time>
      </trkpt>
      <trkpt lat="44.67868" lon="0.89423">
        <ele>195.77</ele>
        <time>2014-08-17T07:02:08Z</time>
      </trkpt>
      <trkpt lat="44.6787" lon="0.89422">
        <ele>196.25</ele>
        <time>2014-08-17T07:02:09Z</time>
      </trkpt>
      <trkpt lat="44.67914" lon="0.89419">
        <ele>202.98</ele>
        <time>2014-08-17T07:02:26Z</time>
      </trkpt>
      <trkpt lat="44.67954" lon="0.89416">
        <ele>209.7</ele>
        <time>2014-08-17T07:02:41Z</time>
      </trkpt>
      <trkpt lat="44.67987" lon="0.89412">
        <ele>211.63</ele>
        <time>2014-08-17T07:02:54Z</time>
      </trkpt>
      <trkpt lat="44.68021" lon="0.89412">
        <ele>219.8</ele>
        <time>2014-08-17T07:03:06Z</time>
      </trkpt>
      <trkpt lat="44.68027" lon="0.89404">
        <ele>220.28</ele>
        <time>2014-08-17T07:03:09Z</time>
      </trkpt>
      <trkpt lat="44.68063" lon="0.89398">
        <ele>215.95</ele>
        <time>2014-08-17T07:03:21Z</time>
      </trkpt>
      <trkpt lat="44.68097" lon="0.89395">
        <ele>213.55</ele>
        <time>2014-08-17T07:03:35Z</time>
      </trkpt>
      <trkpt lat="44.68144" lon="0.89388">
        <ele>214.03</ele>
        <time>2014-08-17T07:03:50Z</time>
      </trkpt>
      <trkpt lat="44.68192" lon="0.89383">
        <ele>214.99</ele>
        <time>2014-08-17T07:04:05Z</time>
      </trkpt>
      <trkpt lat="44.6823" lon="0.89375">
        <ele>208.74</ele>
        <time>2014-08-17T07:04:18Z</time>
      </trkpt>
      <trkpt lat="44.68242" lon="0.89377">
        <ele>207.3</ele>
        <time>2014-08-17T07:04:22Z</time>
      </trkpt>
      <trkpt lat="44.68244" lon="0.8938">
        <ele>206.82</ele>
        <time>2014-08-17T07:04:23Z</time>
      </trkpt>
      <trkpt lat="44.68246" lon="0.89384">
        <ele>206.82</ele>
        <time>2014-08-17T07:04:24Z</time>
      </trkpt>
      <trkpt lat="44.68254" lon="0.89435">
        <ele>205.86</ele>
        <time>2014-08-17T07:04:36Z</time>
      </trkpt>
      <trkpt lat="44.68257" lon="0.89435">
        <ele>205.86</ele>
        <time>2014-08-17T07:04:37Z</time>
      </trkpt>
      <trkpt lat="44.6826" lon="0.89435">
        <ele>205.86</ele>
        <time>2014-08-17T07:04:38Z</time>
      </trkpt>
      <trkpt lat="44.68264" lon="0.89434">
        <ele>205.38</ele>
        <time>2014-08-17T07:04:39Z</time>
      </trkpt>
      <trkpt lat="44.68267" lon="0.89434">
        <ele>205.38</ele>
        <time>2014-08-17T07:04:40Z</time>
      </trkpt>
      <trkpt lat="44.68271" lon="0.89433">
        <ele>205.38</ele>
        <time>2014-08-17T07:04:41Z</time>
      </trkpt>
      <trkpt lat="44.68275" lon="0.89432">
        <ele>205.38</ele>
        <time>2014-08-17T07:04:42Z</time>
      </trkpt>
      <trkpt lat="44.68326" lon="0.89431">
        <ele>203.46</ele>
        <time>2014-08-17T07:04:57Z</time>
      </trkpt>
      <trkpt lat="44.68371" lon="0.89468">
        <ele>202.98</ele>
        <time>2014-08-17T07:05:12Z</time>
      </trkpt>
      <trkpt lat="44.68424" lon="0.8952">
        <ele>202.98</ele>
        <time>2014-08-17T07:05:26Z</time>
      </trkpt>
      <trkpt lat="44.68485" lon="0.8958">
        <ele>204.42</ele>
        <time>2014-08-17T07:05:39Z</time>
      </trkpt>
      <trkpt lat="44.68553" lon="0.8965">
        <ele>206.34</ele>
        <time>2014-08-17T07:05:54Z</time>
      </trkpt>
      <trkpt lat="44.68558" lon="0.89653">
        <ele>206.82</ele>
        <time>2014-08-17T07:05:55Z</time>
      </trkpt>
      <trkpt lat="44.68562" lon="0.89656">
        <ele>206.82</ele>
        <time>2014-08-17T07:05:56Z</time>
      </trkpt>
      <trkpt lat="44.68591" lon="0.89684">
        <ele>209.7</ele>
        <time>2014-08-17T07:06:07Z</time>
      </trkpt>
      <trkpt lat="44.68623" lon="0.89716">
        <ele>212.59</ele>
        <time>2014-08-17T07:06:23Z</time>
      </trkpt>
      <trkpt lat="44.68648" lon="0.89742">
        <ele>214.51</ele>
        <time>2014-08-17T07:06:36Z</time>
      </trkpt>
      <trkpt lat="44.68681" lon="0.89774">
        <ele>218.36</ele>
        <time>2014-08-17T07:06:52Z</time>
      </trkpt>
      <trkpt lat="44.68719" lon="0.89813">
        <ele>224.12</ele>
        <time>2014-08-17T07:07:11Z</time>
      </trkpt>
      <trkpt lat="44.68745" lon="0.89837">
        <ele>223.64</ele>
        <time>2014-08-17T07:07:23Z</time>
      </trkpt>
      <trkpt lat="44.68764" lon="0.89852">
        <ele>222.68</ele>
        <time>2014-08-17T07:07:28Z</time>
      </trkpt>
      <trkpt lat="44.68768" lon="0.89855">
        <ele>222.2</ele>
        <time>2014-08-17T07:07:29Z</time>
      </trkpt>
      <trkpt lat="44.68845" lon="0.89905">
        <ele>222.2</ele>
        <time>2014-08-17T07:07:47Z</time>
      </trkpt>
      <trkpt lat="44.68922" lon="0.89955">
        <ele>223.16</ele>
        <time>2014-08-17T07:08:06Z</time>
      </trkpt>
      <trkpt lat="44.68993" lon="0.9">
        <ele>224.61</ele>
        <time>2014-08-17T07:08:24Z</time>
      </trkpt>
      <trkpt lat="44.6906" lon="0.90039">
        <ele>226.53</ele>
        <time>2014-08-17T07:08:42Z</time>
      </trkpt>
      <trkpt lat="44.69131" lon="0.90053">
        <ele>226.53</ele>
        <time>2014-08-17T07:09:00Z</time>
      </trkpt>
      <trkpt lat="44.69181" lon="0.90072">
        <ele>226.53</ele>
        <time>2014-08-17T07:09:13Z</time>
      </trkpt>
      <trkpt lat="44.69247" lon="0.90092">
        <ele>227.49</ele>
        <time>2014-08-17T07:09:30Z</time>
      </trkpt>
      <trkpt lat="44.69309" lon="0.90137">
        <ele>227.97</ele>
        <time>2014-08-17T07:09:48Z</time>
      </trkpt>
      <trkpt lat="44.69359" lon="0.90192">
        <ele>227.01</ele>
        <time>2014-08-17T07:10:04Z</time>
      </trkpt>
      <trkpt lat="44.69385" lon="0.90232">
        <ele>225.57</ele>
        <time>2014-08-17T07:10:14Z</time>
      </trkpt>
      <trkpt lat="44.69405" lon="0.90273">
        <ele>224.61</ele>
        <time>2014-08-17T07:10:22Z</time>
      </trkpt>
      <trkpt lat="44.69409" lon="0.90284">
        <ele>224.61</ele>
        <time>2014-08-17T07:10:24Z</time>
      </trkpt>
      <trkpt lat="44.69432" lon="0.90338">
        <ele>223.64</ele>
        <time>2014-08-17T07:10:36Z</time>
      </trkpt>
      <trkpt lat="44.69449" lon="0.90381">
        <ele>223.16</ele>
        <time>2014-08-17T07:10:48Z</time>
      </trkpt>
      <trkpt lat="44.69479" lon="0.90435">
        <ele>222.68</ele>
        <time>2014-08-17T07:11:03Z</time>
      </trkpt>
      <trkpt lat="44.69505" lon="0.90485">
        <ele>224.12</ele>
        <time>2014-08-17T07:11:16Z</time>
      </trkpt>
      <trkpt lat="44.69532" lon="0.90546">
        <ele>224.61</ele>
        <time>2014-08-17T07:11:30Z</time>
      </trkpt>
      <trkpt lat="44.69568" lon="0.90615">
        <ele>225.57</ele>
        <time>2014-08-17T07:11:45Z</time>
      </trkpt>
      <trkpt lat="44.69604" lon="0.90664">
        <ele>228.45</ele>
        <time>2014-08-17T07:11:58Z</time>
      </trkpt>
      <trkpt lat="44.69625" lon="0.90686">
        <ele>230.85</ele>
        <time>2014-08-17T07:12:07Z</time>
      </trkpt>
      <trkpt lat="44.69652" lon="0.90708">
        <ele>232.3</ele>
        <time>2014-08-17T07:12:18Z</time>
      </trkpt>
      <trkpt lat="44.69682" lon="0.90739">
        <ele>234.7</ele>
        <time>2014-08-17T07:12:30Z</time>
      </trkpt>
      <trkpt lat="44.69711" lon="0.90775">
        <ele>234.7</ele>
        <time>2014-08-17T07:12:42Z</time>
      </trkpt>
      <trkpt lat="44.69723" lon="0.90792">
        <ele>232.78</ele>
        <time>2014-08-17T07:12:54Z</time>
      </trkpt>
      <trkpt lat="44.69729" lon="0.90795">
        <ele>233.26</ele>
        <time>2014-08-17T07:13:06Z</time>
      </trkpt>
      <trkpt lat="44.6974" lon="0.90817">
        <ele>230.37</ele>
        <time>2014-08-17T07:13:18Z</time>
      </trkpt>
      <trkpt lat="44.69741" lon="0.90818">
        <ele>230.37</ele>
        <time>2014-08-17T07:13:19Z</time>
      </trkpt>
      <trkpt lat="44.69769" lon="0.90854">
        <ele>228.93</ele>
        <time>2014-08-17T07:13:33Z</time>
      </trkpt>
      <trkpt lat="44.69809" lon="0.909">
        <ele>227.97</ele>
        <time>2014-08-17T07:13:49Z</time>
      </trkpt>
      <trkpt lat="44.69841" lon="0.90941">
        <ele>228.45</ele>
        <time>2014-08-17T07:14:02Z</time>
      </trkpt>
      <trkpt lat="44.69873" lon="0.90975">
        <ele>230.37</ele>
        <time>2014-08-17T07:14:15Z</time>
      </trkpt>
      <trkpt lat="44.69905" lon="0.91007">
        <ele>233.74</ele>
        <time>2014-08-17T07:14:27Z</time>
      </trkpt>
      <trkpt lat="44.69945" lon="0.91059">
        <ele>233.26</ele>
        <time>2014-08-17T07:14:41Z</time>
      </trkpt>
      <trkpt lat="44.69981" lon="0.91108">
        <ele>232.3</ele>
        <time>2014-08-17T07:14:53Z</time>
      </trkpt>
      <trkpt lat="44.69992" lon="0.91125">
        <ele>231.81</ele>
        <time>2014-08-17T07:14:57Z</time>
      </trkpt>
      <trkpt lat="44.70005" lon="0.91149">
        <ele>231.33</ele>
        <time>2014-08-17T07:15:02Z</time>
      </trkpt>
      <trkpt lat="44.70014" lon="0.91169">
        <ele>230.37</ele>
        <time>2014-08-17T07:15:06Z</time>
      </trkpt>
      <trkpt lat="44.70036" lon="0.91221">
        <ele>228.93</ele>
        <time>2014-08-17T07:15:18Z</time>
      </trkpt>
      <trkpt lat="44.70075" lon="0.91311">
        <ele>227.01</ele>
        <time>2014-08-17T07:15:35Z</time>
      </trkpt>
      <trkpt lat="44.70107" lon="0.91392">
        <ele>227.49</ele>
        <time>2014-08-17T07:15:51Z</time>
      </trkpt>
      <trkpt lat="44.70111" lon="0.91396">
        <ele>227.49</ele>
        <time>2014-08-17T07:15:52Z</time>
      </trkpt>
      <trkpt lat="44.70115" lon="0.914">
        <ele>227.97</ele>
        <time>2014-08-17T07:15:53Z</time>
      </trkpt>
      <trkpt lat="44.70119" lon="0.91401">
        <ele>227.49</ele>
        <time>2014-08-17T07:15:54Z</time>
      </trkpt>
      <trkpt lat="44.70123" lon="0.91403">
        <ele>227.49</ele>
        <time>2014-08-17T07:15:55Z</time>
      </trkpt>
      <trkpt lat="44.7019" lon="0.91426">
        <ele>229.89</ele>
        <time>2014-08-17T07:16:11Z</time>
      </trkpt>
      <trkpt lat="44.70238" lon="0.91447">
        <ele>229.89</ele>
        <time>2014-08-17T07:16:24Z</time>
      </trkpt>
      <trkpt lat="44.70274" lon="0.91467">
        <ele>229.41</ele>
        <time>2014-08-17T07:16:34Z</time>
      </trkpt>
      <trkpt lat="44.70285" lon="0.91454">
        <ele>227.97</ele>
        <time>2014-08-17T07:16:38Z</time>
      </trkpt>
      <trkpt lat="44.7029" lon="0.91366">
        <ele>224.61</ele>
        <time>2014-08-17T07:16:48Z</time>
      </trkpt>
      <trkpt lat="44.70313" lon="0.91336">
        <ele>221.24</ele>
        <time>2014-08-17T07:16:55Z</time>
      </trkpt>
      <trkpt lat="44.70323" lon="0.91339">
        <ele>220.28</ele>
        <time>2014-08-17T07:16:57Z</time>
      </trkpt>
      <trkpt lat="44.70343" lon="0.91345">
        <ele>219.32</ele>
        <time>2014-08-17T07:17:01Z</time>
      </trkpt>
      <trkpt lat="44.70362" lon="0.91356">
        <ele>218.84</ele>
        <time>2014-08-17T07:17:05Z</time>
      </trkpt>
      <trkpt lat="44.7038" lon="0.91364">
        <ele>219.32</ele>
        <time>2014-08-17T07:17:09Z</time>
      </trkpt>
      <trkpt lat="44.70388" lon="0.91369">
        <ele>219.32</ele>
        <time>2014-08-17T07:17:11Z</time>
      </trkpt>
      <trkpt lat="44.70416" lon="0.91377">
        <ele>219.32</ele>
        <time>2014-08-17T07:17:17Z</time>
      </trkpt>
      <trkpt lat="44.70444" lon="0.91385">
        <ele>219.8</ele>
        <time>2014-08-17T07:17:24Z</time>
      </trkpt>
      <trkpt lat="44.70479" lon="0.91375">
        <ele>221.72</ele>
        <time>2014-08-17T07:17:32Z</time>
      </trkpt>
      <trkpt lat="44.70487" lon="0.91365">
        <ele>222.2</ele>
        <time>2014-08-17T07:17:34Z</time>
      </trkpt>
      <trkpt lat="44.705" lon="0.91354">
        <ele>222.68</ele>
        <time>2014-08-17T07:17:37Z</time>
      </trkpt>
      <trkpt lat="44.70536" lon="0.91327">
        <ele>222.2</ele>
        <time>2014-08-17T07:17:45Z</time>
      </trkpt>
      <trkpt lat="44.70553" lon="0.9132">
        <ele>221.24</ele>
        <time>2014-08-17T07:17:49Z</time>
      </trkpt>
      <trkpt lat="44.70572" lon="0.91307">
        <ele>221.72</ele>
        <time>2014-08-17T07:17:54Z</time>
      </trkpt>
      <trkpt lat="44.70588" lon="0.91284">
        <ele>222.2</ele>
        <time>2014-08-17T07:18:00Z</time>
      </trkpt>
      <trkpt lat="44.70602" lon="0.91284">
        <ele>222.68</ele>
        <time>2014-08-17T07:18:06Z</time>
      </trkpt>
      <trkpt lat="44.70608" lon="0.91284">
        <ele>223.16</ele>
        <time>2014-08-17T07:18:10Z</time>
      </trkpt>
      <trkpt lat="44.70627" lon="0.91289">
        <ele>225.57</ele>
        <time>2014-08-17T07:18:19Z</time>
      </trkpt>
      <trkpt lat="44.70694" lon="0.91286">
        <ele>225.57</ele>
        <time>2014-08-17T07:18:33Z</time>
      </trkpt>
      <trkpt lat="44.70749" lon="0.91288">
        <ele>223.16</ele>
        <time>2014-08-17T07:18:44Z</time>
      </trkpt>
      <trkpt lat="44.7081" lon="0.91316">
        <ele>223.16</ele>
        <time>2014-08-17T07:19:00Z</time>
      </trkpt>
      <trkpt lat="44.70858" lon="0.91327">
        <ele>223.16</ele>
        <time>2014-08-17T07:19:14Z</time>
      </trkpt>
      <trkpt lat="44.70919" lon="0.91342">
        <ele>223.64</ele>
        <time>2014-08-17T07:19:30Z</time>
      </trkpt>
      <trkpt lat="44.70948" lon="0.91354">
        <ele>224.61</ele>
        <time>2014-08-17T07:19:40Z</time>
      </trkpt>
      <trkpt lat="44.70948" lon="0.91357">
        <ele>224.61</ele>
        <time>2014-08-17T07:19:41Z</time>
      </trkpt>
      <trkpt lat="44.70948" lon="0.91361">
        <ele>224.61</ele>
        <time>2014-08-17T07:19:42Z</time>
      </trkpt>
      <trkpt lat="44.70948" lon="0.91365">
        <ele>224.61</ele>
        <time>2014-08-17T07:19:43Z</time>
      </trkpt>
      <trkpt lat="44.70948" lon="0.91368">
        <ele>224.61</ele>
        <time>2014-08-17T07:19:44Z</time>
      </trkpt>
      <trkpt lat="44.70947" lon="0.91383">
        <ele>224.61</ele>
        <time>2014-08-17T07:19:48Z</time>
      </trkpt>
      <trkpt lat="44.70949" lon="0.91387">
        <ele>224.61</ele>
        <time>2014-08-17T07:19:49Z</time>
      </trkpt>
      <trkpt lat="44.70951" lon="0.9139">
        <ele>224.61</ele>
        <time>2014-08-17T07:19:50Z</time>
      </trkpt>
      <trkpt lat="44.70954" lon="0.91392">
        <ele>224.61</ele>
        <time>2014-08-17T07:19:51Z</time>
      </trkpt>
      <trkpt lat="44.70958" lon="0.91393">
        <ele>224.61</ele>
        <time>2014-08-17T07:19:52Z</time>
      </trkpt>
      <trkpt lat="44.71019" lon="0.91426">
        <ele>225.57</ele>
        <time>2014-08-17T07:20:11Z</time>
      </trkpt>
      <trkpt lat="44.71077" lon="0.9146">
        <ele>227.01</ele>
        <time>2014-08-17T07:20:28Z</time>
      </trkpt>
      <trkpt lat="44.71109" lon="0.91509">
        <ele>228.45</ele>
        <time>2014-08-17T07:20:41Z</time>
      </trkpt>
      <trkpt lat="44.71127" lon="0.91528">
        <ele>228.93</ele>
        <time>2014-08-17T07:20:49Z</time>
      </trkpt>
      <trkpt lat="44.7113" lon="0.91525">
        <ele>228.93</ele>
        <time>2014-08-17T07:20:50Z</time>
      </trkpt>
      <trkpt lat="44.71133" lon="0.91521">
        <ele>228.93</ele>
        <time>2014-08-17T07:20:51Z</time>
      </trkpt>
      <trkpt lat="44.71135" lon="0.91517">
        <ele>228.93</ele>
        <time>2014-08-17T07:20:52Z</time>
      </trkpt>
      <trkpt lat="44.71138" lon="0.91513">
        <ele>228.93</ele>
        <time>2014-08-17T07:20:53Z</time>
      </trkpt>
      <trkpt lat="44.71153" lon="0.91489">
        <ele>227.97</ele>
        <time>2014-08-17T07:20:59Z</time>
      </trkpt>
      <trkpt lat="44.71168" lon="0.91478">
        <ele>227.49</ele>
        <time>2014-08-17T07:21:03Z</time>
      </trkpt>
      <trkpt lat="44.71205" lon="0.91471">
        <ele>227.01</ele>
        <time>2014-08-17T07:21:14Z</time>
      </trkpt>
      <trkpt lat="44.71206" lon="0.91467">
        <ele>227.01</ele>
        <time>2014-08-17T07:21:15Z</time>
      </trkpt>
      <trkpt lat="44.71206" lon="0.91463">
        <ele>226.53</ele>
        <time>2014-08-17T07:21:16Z</time>
      </trkpt>
      <trkpt lat="44.71193" lon="0.9138">
        <ele>223.64</ele>
        <time>2014-08-17T07:21:29Z</time>
      </trkpt>
      <trkpt lat="44.71186" lon="0.913">
        <ele>222.2</ele>
        <time>2014-08-17T07:21:40Z</time>
      </trkpt>
      <trkpt lat="44.71182" lon="0.91257">
        <ele>222.68</ele>
        <time>2014-08-17T07:21:47Z</time>
      </trkpt>
      <trkpt lat="44.71177" lon="0.91196">
        <ele>223.16</ele>
        <time>2014-08-17T07:21:57Z</time>
      </trkpt>
      <trkpt lat="44.71176" lon="0.91183">
        <ele>223.16</ele>
        <time>2014-08-17T07:21:59Z</time>
      </trkpt>
      <trkpt lat="44.71179" lon="0.91142">
        <ele>225.09</ele>
        <time>2014-08-17T07:22:06Z</time>
      </trkpt>
      <trkpt lat="44.71181" lon="0.91129">
        <ele>225.09</ele>
        <time>2014-08-17T07:22:08Z</time>
      </trkpt>
      <trkpt lat="44.71185" lon="0.9108">
        <ele>226.53</ele>
        <time>2014-08-17T07:22:18Z</time>
      </trkpt>
      <trkpt lat="44.71188" lon="0.91062">
        <ele>227.49</ele>
        <time>2014-08-17T07:22:22Z</time>
      </trkpt>
      <trkpt lat="44.71193" lon="0.91044">
        <ele>228.93</ele>
        <time>2014-08-17T07:22:26Z</time>
      </trkpt>
      <trkpt lat="44.71195" lon="0.90982">
        <ele>232.3</ele>
        <time>2014-08-17T07:22:37Z</time>
      </trkpt>
      <trkpt lat="44.71195" lon="0.90967">
        <ele>233.26</ele>
        <time>2014-08-17T07:22:40Z</time>
      </trkpt>
      <trkpt lat="44.71198" lon="0.90948">
        <ele>235.18</ele>
        <time>2014-08-17T07:22:44Z</time>
      </trkpt>
      <trkpt lat="44.71211" lon="0.90904">
        <ele>235.18</ele>
        <time>2014-08-17T07:22:52Z</time>
      </trkpt>
      <trkpt lat="44.71225" lon="0.90855">
        <ele>235.66</ele>
        <time>2014-08-17T07:23:01Z</time>
      </trkpt>
      <trkpt lat="44.71261" lon="0.90826">
        <ele>235.66</ele>
        <time>2014-08-17T07:23:12Z</time>
      </trkpt>
      <trkpt lat="44.7129" lon="0.90805">
        <ele>236.62</ele>
        <time>2014-08-17T07:23:23Z</time>
      </trkpt>
      <trkpt lat="44.71319" lon="0.90784">
        <ele>238.06</ele>
        <time>2014-08-17T07:23:35Z</time>
      </trkpt>
      <trkpt lat="44.71365" lon="0.90751">
        <ele>239.99</ele>
        <time>2014-08-17T07:23:46Z</time>
      </trkpt>
      <trkpt lat="44.71407" lon="0.90726">
        <ele>237.58</ele>
        <time>2014-08-17T07:23:57Z</time>
      </trkpt>
      <trkpt lat="44.71441" lon="0.90707">
        <ele>235.18</ele>
        <time>2014-08-17T07:24:07Z</time>
      </trkpt>
      <trkpt lat="44.71466" lon="0.90682">
        <ele>234.7</ele>
        <time>2014-08-17T07:24:16Z</time>
      </trkpt>
      <trkpt lat="44.715" lon="0.90646">
        <ele>233.74</ele>
        <time>2014-08-17T07:24:28Z</time>
      </trkpt>
      <trkpt lat="44.71536" lon="0.90617">
        <ele>233.74</ele>
        <time>2014-08-17T07:24:39Z</time>
      </trkpt>
      <trkpt lat="44.71596" lon="0.90562">
        <ele>230.85</ele>
        <time>2014-08-17T07:24:55Z</time>
      </trkpt>
      <trkpt lat="44.71614" lon="0.90545">
        <ele>229.41</ele>
        <time>2014-08-17T07:25:01Z</time>
      </trkpt>
      <trkpt lat="44.71617" lon="0.90547">
        <ele>229.41</ele>
        <time>2014-08-17T07:25:02Z</time>
      </trkpt>
      <trkpt lat="44.71622" lon="0.9056">
        <ele>228.93</ele>
        <time>2014-08-17T07:25:05Z</time>
      </trkpt>
      <trkpt lat="44.7164" lon="0.90639">
        <ele>227.97</ele>
        <time>2014-08-17T07:25:20Z</time>
      </trkpt>
      <trkpt lat="44.71632" lon="0.90681">
        <ele>226.53</ele>
        <time>2014-08-17T07:25:31Z</time>
      </trkpt>
      <trkpt lat="44.71616" lon="0.90732">
        <ele>224.61</ele>
        <time>2014-08-17T07:25:43Z</time>
      </trkpt>
      <trkpt lat="44.71605" lon="0.90763">
        <ele>224.12</ele>
        <time>2014-08-17T07:25:49Z</time>
      </trkpt>
      <trkpt lat="44.71598" lon="0.90781">
        <ele>223.16</ele>
        <time>2014-08-17T07:25:52Z</time>
      </trkpt>
      <trkpt lat="44.71586" lon="0.90821">
        <ele>223.16</ele>
        <time>2014-08-17T07:26:01Z</time>
      </trkpt>
      <trkpt lat="44.71588" lon="0.90826">
        <ele>223.16</ele>
        <time>2014-08-17T07:26:05Z</time>
      </trkpt>
      <trkpt lat="44.71596" lon="0.90842">
        <ele>223.16</ele>
        <time>2014-08-17T07:26:12Z</time>
      </trkpt>
      <trkpt lat="44.71594" lon="0.90885">
        <ele>226.05</ele>
        <time>2014-08-17T07:26:26Z</time>
      </trkpt>
      <trkpt lat="44.71588" lon="0.90921">
        <ele>224.61</ele>
        <time>2014-08-17T07:26:38Z</time>
      </trkpt>
      <trkpt lat="44.71576" lon="0.90954">
        <ele>226.05</ele>
        <time>2014-08-17T07:26:50Z</time>
      </trkpt>
      <trkpt lat="44.71569" lon="0.9097">
        <ele>227.97</ele>
        <time>2014-08-17T07:27:01Z</time>
      </trkpt>
      <trkpt lat="44.71568" lon="0.90981">
        <ele>229.41</ele>
        <time>2014-08-17T07:27:05Z</time>
      </trkpt>
      <trkpt lat="44.71545" lon="0.91019">
        <ele>227.01</ele>
        <time>2014-08-17T07:27:16Z</time>
      </trkpt>
      <trkpt lat="44.71542" lon="0.91022">
        <ele>226.05</ele>
        <time>2014-08-17T07:27:17Z</time>
      </trkpt>
      <trkpt lat="44.71538" lon="0.91026">
        <ele>225.57</ele>
        <time>2014-08-17T07:27:18Z</time>
      </trkpt>
      <trkpt lat="44.71535" lon="0.9103">
        <ele>225.09</ele>
        <time>2014-08-17T07:27:19Z</time>
      </trkpt>
      <trkpt lat="44.71515" lon="0.91066">
        <ele>223.16</ele>
        <time>2014-08-17T07:27:28Z</time>
      </trkpt>
      <trkpt lat="44.71507" lon="0.91081">
        <ele>223.64</ele>
        <time>2014-08-17T07:27:31Z</time>
      </trkpt>
      <trkpt lat="44.71505" lon="0.91087">
        <ele>224.12</ele>
        <time>2014-08-17T07:27:32Z</time>
      </trkpt>
      <trkpt lat="44.71503" lon="0.91094">
        <ele>224.61</ele>
        <time>2014-08-17T07:27:33Z</time>
      </trkpt>
      <trkpt lat="44.71501" lon="0.91106">
        <ele>227.01</ele>
        <time>2014-08-17T07:27:36Z</time>
      </trkpt>
      <trkpt lat="44.71516" lon="0.91111">
        <ele>231.33</ele>
        <time>2014-08-17T07:27:41Z</time>
      </trkpt>
      <trkpt lat="44.71544" lon="0.91117">
        <ele>235.18</ele>
        <time>2014-08-17T07:27:47Z</time>
      </trkpt>
      <trkpt lat="44.71563" lon="0.91125">
        <ele>237.58</ele>
        <time>2014-08-17T07:27:51Z</time>
      </trkpt>
      <trkpt lat="44.71578" lon="0.9113">
        <ele>238.54</ele>
        <time>2014-08-17T07:27:54Z</time>
      </trkpt>
      <trkpt lat="44.71599" lon="0.91139">
        <ele>241.43</ele>
        <time>2014-08-17T07:27:59Z</time>
      </trkpt>
      <trkpt lat="44.7164" lon="0.91164">
        <ele>243.35</ele>
        <time>2014-08-17T07:28:11Z</time>
      </trkpt>
      <trkpt lat="44.71675" lon="0.91189">
        <ele>247.2</ele>
        <time>2014-08-17T07:28:24Z</time>
      </trkpt>
      <trkpt lat="44.71685" lon="0.91206">
        <ele>251.04</ele>
        <time>2014-08-17T07:28:31Z</time>
      </trkpt>
      <trkpt lat="44.71696" lon="0.91215">
        <ele>252.96</ele>
        <time>2014-08-17T07:28:35Z</time>
      </trkpt>
      <trkpt lat="44.71725" lon="0.91233">
        <ele>252.96</ele>
        <time>2014-08-17T07:28:42Z</time>
      </trkpt>
      <trkpt lat="44.71733" lon="0.91238">
        <ele>253.44</ele>
        <time>2014-08-17T07:28:44Z</time>
      </trkpt>
      <trkpt lat="44.71788" lon="0.91257">
        <ele>252.96</ele>
        <time>2014-08-17T07:28:56Z</time>
      </trkpt>
      <trkpt lat="44.71834" lon="0.91264">
        <ele>254.41</ele>
        <time>2014-08-17T07:29:08Z</time>
      </trkpt>
      <trkpt lat="44.71836" lon="0.91265">
        <ele>254.89</ele>
        <time>2014-08-17T07:29:09Z</time>
      </trkpt>
      <trkpt lat="44.71846" lon="0.9127">
        <ele>256.33</ele>
        <time>2014-08-17T07:29:13Z</time>
      </trkpt>
      <trkpt lat="44.71862" lon="0.9127">
        <ele>259.21</ele>
        <time>2014-08-17T07:29:17Z</time>
      </trkpt>
      <trkpt lat="44.71901" lon="0.91276">
        <ele>264.98</ele>
        <time>2014-08-17T07:29:27Z</time>
      </trkpt>
      <trkpt lat="44.71951" lon="0.91265">
        <ele>270.27</ele>
        <time>2014-08-17T07:29:38Z</time>
      </trkpt>
      <trkpt lat="44.71987" lon="0.91248">
        <ele>271.23</ele>
        <time>2014-08-17T07:29:48Z</time>
      </trkpt>
      <trkpt lat="44.72007" lon="0.91239">
        <ele>270.27</ele>
        <time>2014-08-17T07:29:56Z</time>
      </trkpt>
      <trkpt lat="44.7201" lon="0.91238">
        <ele>270.27</ele>
        <time>2014-08-17T07:29:57Z</time>
      </trkpt>
      <trkpt lat="44.72029" lon="0.91233">
        <ele>267.38</ele>
        <time>2014-08-17T07:30:02Z</time>
      </trkpt>
      <trkpt lat="44.72076" lon="0.91214">
        <ele>265.94</ele>
        <time>2014-08-17T07:30:13Z</time>
      </trkpt>
      <trkpt lat="44.72087" lon="0.91212">
        <ele>265.94</ele>
        <time>2014-08-17T07:30:15Z</time>
      </trkpt>
      <trkpt lat="44.72113" lon="0.91213">
        <ele>262.58</ele>
        <time>2014-08-17T07:30:19Z</time>
      </trkpt>
      <trkpt lat="44.72136" lon="0.91213">
        <ele>260.65</ele>
        <time>2014-08-17T07:30:22Z</time>
      </trkpt>
      <trkpt lat="44.72159" lon="0.9121">
        <ele>258.73</ele>
        <time>2014-08-17T07:30:25Z</time>
      </trkpt>
      <trkpt lat="44.72197" lon="0.91196">
        <ele>252.96</ele>
        <time>2014-08-17T07:30:30Z</time>
      </trkpt>
      <trkpt lat="44.72221" lon="0.91211">
        <ele>248.16</ele>
        <time>2014-08-17T07:30:36Z</time>
      </trkpt>
      <trkpt lat="44.72233" lon="0.91243">
        <ele>244.31</ele>
        <time>2014-08-17T07:30:40Z</time>
      </trkpt>
      <trkpt lat="44.72251" lon="0.91276">
        <ele>239.51</ele>
        <time>2014-08-17T07:30:44Z</time>
      </trkpt>
      <trkpt lat="44.72259" lon="0.91302">
        <ele>237.58</ele>
        <time>2014-08-17T07:30:47Z</time>
      </trkpt>
      <trkpt lat="44.72299" lon="0.91415">
        <ele>231.81</ele>
        <time>2014-08-17T07:31:01Z</time>
      </trkpt>
      <trkpt lat="44.72307" lon="0.91449">
        <ele>230.37</ele>
        <time>2014-08-17T07:31:05Z</time>
      </trkpt>
      <trkpt lat="44.72313" lon="0.91533">
        <ele>222.68</ele>
        <time>2014-08-17T07:31:12Z</time>
      </trkpt>
      <trkpt lat="44.72316" lon="0.91553">
        <ele>221.24</ele>
        <time>2014-08-17T07:31:14Z</time>
      </trkpt>
      <trkpt lat="44.72316" lon="0.9159">
        <ele>217.88</ele>
        <time>2014-08-17T07:31:18Z</time>
      </trkpt>
      <trkpt lat="44.72328" lon="0.91644">
        <ele>211.63</ele>
        <time>2014-08-17T07:31:26Z</time>
      </trkpt>
      <trkpt lat="44.72342" lon="0.91664">
        <ele>209.7</ele>
        <time>2014-08-17T07:31:31Z</time>
      </trkpt>
      <trkpt lat="44.72353" lon="0.91674">
        <ele>209.22</ele>
        <time>2014-08-17T07:31:34Z</time>
      </trkpt>
      <trkpt lat="44.72365" lon="0.9168">
        <ele>208.26</ele>
        <time>2014-08-17T07:31:37Z</time>
      </trkpt>
      <trkpt lat="44.724" lon="0.91706">
        <ele>208.74</ele>
        <time>2014-08-17T07:31:48Z</time>
      </trkpt>
      <trkpt lat="44.7241" lon="0.91709">
        <ele>210.19</ele>
        <time>2014-08-17T07:31:53Z</time>
      </trkpt>
      <trkpt lat="44.7242" lon="0.91722">
        <ele>211.63</ele>
        <time>2014-08-17T07:32:01Z</time>
      </trkpt>
      <trkpt lat="44.72444" lon="0.9174">
        <ele>215.47</ele>
        <time>2014-08-17T07:32:15Z</time>
      </trkpt>
      <trkpt lat="44.72459" lon="0.91757">
        <ele>217.88</ele>
        <time>2014-08-17T07:32:25Z</time>
      </trkpt>
      <trkpt lat="44.72467" lon="0.91797">
        <ele>222.68</ele>
        <time>2014-08-17T07:32:41Z</time>
      </trkpt>
      <trkpt lat="44.72485" lon="0.91825">
        <ele>224.61</ele>
        <time>2014-08-17T07:32:55Z</time>
      </trkpt>
      <trkpt lat="44.72503" lon="0.91863">
        <ele>227.49</ele>
        <time>2014-08-17T07:33:09Z</time>
      </trkpt>
      <trkpt lat="44.72516" lon="0.91901">
        <ele>228.93</ele>
        <time>2014-08-17T07:33:22Z</time>
      </trkpt>
      <trkpt lat="44.72519" lon="0.91914">
        <ele>227.97</ele>
        <time>2014-08-17T07:33:35Z</time>
      </trkpt>
      <trkpt lat="44.72521" lon="0.91917">
        <ele>228.93</ele>
        <time>2014-08-17T07:33:54Z</time>
      </trkpt>
      <trkpt lat="44.72516" lon="0.91924">
        <ele>228.45</ele>
        <time>2014-08-17T07:33:58Z</time>
      </trkpt>
      <trkpt lat="44.72513" lon="0.91925">
        <ele>227.97</ele>
        <time>2014-08-17T07:33:59Z</time>
      </trkpt>
      <trkpt lat="44.7251" lon="0.91925">
        <ele>227.97</ele>
        <time>2014-08-17T07:34:00Z</time>
      </trkpt>
      <trkpt lat="44.72507" lon="0.91926">
        <ele>227.49</ele>
        <time>2014-08-17T07:34:01Z</time>
      </trkpt>
      <trkpt lat="44.72469" lon="0.91934">
        <ele>225.57</ele>
        <time>2014-08-17T07:34:13Z</time>
      </trkpt>
      <trkpt lat="44.72428" lon="0.91946">
        <ele>226.05</ele>
        <time>2014-08-17T07:34:28Z</time>
      </trkpt>
      <trkpt lat="44.72414" lon="0.91954">
        <ele>227.97</ele>
        <time>2014-08-17T07:34:39Z</time>
      </trkpt>
      <trkpt lat="44.72412" lon="0.91956">
        <ele>227.97</ele>
        <time>2014-08-17T07:34:50Z</time>
      </trkpt>
      <trkpt lat="44.72412" lon="0.91955">
        <ele>228.45</ele>
        <time>2014-08-17T07:35:01Z</time>
      </trkpt>
      <trkpt lat="44.72411" lon="0.91956">
        <ele>227.97</ele>
        <time>2014-08-17T07:35:16Z</time>
      </trkpt>
      <trkpt lat="44.72413" lon="0.91955">
        <ele>227.49</ele>
        <time>2014-08-17T07:35:39Z</time>
      </trkpt>
      <trkpt lat="44.72411" lon="0.91959">
        <ele>228.45</ele>
        <time>2014-08-17T07:35:54Z</time>
      </trkpt>
      <trkpt lat="44.72413" lon="0.9201">
        <ele>225.57</ele>
        <time>2014-08-17T07:36:08Z</time>
      </trkpt>
      <trkpt lat="44.72414" lon="0.92022">
        <ele>223.64</ele>
        <time>2014-08-17T07:36:10Z</time>
      </trkpt>
      <trkpt lat="44.72416" lon="0.92035">
        <ele>221.72</ele>
        <time>2014-08-17T07:36:12Z</time>
      </trkpt>
      <trkpt lat="44.72432" lon="0.9209">
        <ele>214.03</ele>
        <time>2014-08-17T07:36:23Z</time>
      </trkpt>
      <trkpt lat="44.72435" lon="0.921">
        <ele>212.59</ele>
        <time>2014-08-17T07:36:34Z</time>
      </trkpt>
      <trkpt lat="44.72435" lon="0.92101">
        <ele>212.59</ele>
        <time>2014-08-17T07:36:40Z</time>
      </trkpt>
      <trkpt lat="44.72436" lon="0.92111">
        <ele>212.59</ele>
        <time>2014-08-17T07:36:44Z</time>
      </trkpt>
      <trkpt lat="44.7245" lon="0.92147">
        <ele>212.11</ele>
        <time>2014-08-17T07:36:55Z</time>
      </trkpt>
      <trkpt lat="44.72456" lon="0.92146">
        <ele>212.11</ele>
        <time>2014-08-17T07:37:04Z</time>
      </trkpt>
      <trkpt lat="44.72458" lon="0.92146">
        <ele>210.67</ele>
        <time>2014-08-17T07:37:29Z</time>
      </trkpt>
      <trkpt lat="44.72469" lon="0.92137">
        <ele>210.67</ele>
        <time>2014-08-17T07:37:39Z</time>
      </trkpt>
      <trkpt lat="44.72472" lon="0.92133">
        <ele>210.19</ele>
        <time>2014-08-17T07:37:53Z</time>
      </trkpt>
      <trkpt lat="44.72472" lon="0.92132">
        <ele>210.19</ele>
        <time>2014-08-17T07:37:58Z</time>
      </trkpt>
      <trkpt lat="44.72476" lon="0.9213">
        <ele>210.67</ele>
        <time>2014-08-17T07:38:01Z</time>
      </trkpt>
      <trkpt lat="44.72478" lon="0.92128">
        <ele>210.67</ele>
        <time>2014-08-17T07:38:02Z</time>
      </trkpt>
      <trkpt lat="44.7248" lon="0.92127">
        <ele>210.67</ele>
        <time>2014-08-17T07:38:03Z</time>
      </trkpt>
      <trkpt lat="44.72523" lon="0.92096">
        <ele>210.67</ele>
        <time>2014-08-17T07:38:18Z</time>
      </trkpt>
      <trkpt lat="44.72563" lon="0.92071">
        <ele>212.59</ele>
        <time>2014-08-17T07:38:30Z</time>
      </trkpt>
      <trkpt lat="44.72604" lon="0.92043">
        <ele>214.99</ele>
        <time>2014-08-17T07:38:43Z</time>
      </trkpt>
      <trkpt lat="44.72636" lon="0.92021">
        <ele>216.43</ele>
        <time>2014-08-17T07:38:53Z</time>
      </trkpt>
      <trkpt lat="44.7266" lon="0.92009">
        <ele>216.91</ele>
        <time>2014-08-17T07:39:02Z</time>
      </trkpt>
      <trkpt lat="44.7267" lon="0.92023">
        <ele>215.95</ele>
        <time>2014-08-17T07:39:07Z</time>
      </trkpt>
      <trkpt lat="44.72687" lon="0.92099">
        <ele>209.7</ele>
        <time>2014-08-17T07:39:16Z</time>
      </trkpt>
      <trkpt lat="44.7269" lon="0.92164">
        <ele>205.38</ele>
        <time>2014-08-17T07:39:22Z</time>
      </trkpt>
      <trkpt lat="44.72692" lon="0.92186">
        <ele>204.42</ele>
        <time>2014-08-17T07:39:24Z</time>
      </trkpt>
      <trkpt lat="44.72705" lon="0.92224">
        <ele>202.49</ele>
        <time>2014-08-17T07:39:28Z</time>
      </trkpt>
      <trkpt lat="44.72712" lon="0.9223">
        <ele>202.01</ele>
        <time>2014-08-17T07:39:29Z</time>
      </trkpt>
      <trkpt lat="44.72791" lon="0.923">
        <ele>198.65</ele>
        <time>2014-08-17T07:39:41Z</time>
      </trkpt>
      <trkpt lat="44.72798" lon="0.92302">
        <ele>198.65</ele>
        <time>2014-08-17T07:39:42Z</time>
      </trkpt>
      <trkpt lat="44.72816" lon="0.92298">
        <ele>197.21</ele>
        <time>2014-08-17T07:39:45Z</time>
      </trkpt>
      <trkpt lat="44.72849" lon="0.92287">
        <ele>196.73</ele>
        <time>2014-08-17T07:39:50Z</time>
      </trkpt>
      <trkpt lat="44.72882" lon="0.92277">
        <ele>197.21</ele>
        <time>2014-08-17T07:39:55Z</time>
      </trkpt>
      <trkpt lat="44.72895" lon="0.92273">
        <ele>197.21</ele>
        <time>2014-08-17T07:39:57Z</time>
      </trkpt>
      <trkpt lat="44.72944" lon="0.92254">
        <ele>198.17</ele>
        <time>2014-08-17T07:40:06Z</time>
      </trkpt>
      <trkpt lat="44.72965" lon="0.92246">
        <ele>201.53</ele>
        <time>2014-08-17T07:40:13Z</time>
      </trkpt>
      <trkpt lat="44.72979" lon="0.92222">
        <ele>207.78</ele>
        <time>2014-08-17T07:40:23Z</time>
      </trkpt>
      <trkpt lat="44.73001" lon="0.922">
        <ele>214.03</ele>
        <time>2014-08-17T07:40:33Z</time>
      </trkpt>
      <trkpt lat="44.73002" lon="0.92196">
        <ele>214.51</ele>
        <time>2014-08-17T07:40:34Z</time>
      </trkpt>
      <trkpt lat="44.73012" lon="0.92146">
        <ele>218.84</ele>
        <time>2014-08-17T07:40:47Z</time>
      </trkpt>
      <trkpt lat="44.73033" lon="0.92101">
        <ele>218.84</ele>
        <time>2014-08-17T07:40:56Z</time>
      </trkpt>
      <trkpt lat="44.73064" lon="0.92056">
        <ele>217.4</ele>
        <time>2014-08-17T07:41:04Z</time>
      </trkpt>
      <trkpt lat="44.73075" lon="0.92041">
        <ele>215.95</ele>
        <time>2014-08-17T07:41:26Z</time>
      </trkpt>
      <trkpt lat="44.73076" lon="0.9204">
        <ele>215.47</ele>
        <time>2014-08-17T07:41:30Z</time>
      </trkpt>
      <trkpt lat="44.7309" lon="0.92048">
        <ele>215.95</ele>
        <time>2014-08-17T07:41:36Z</time>
      </trkpt>
      <trkpt lat="44.73112" lon="0.9206">
        <ele>215.47</ele>
        <time>2014-08-17T07:41:42Z</time>
      </trkpt>
      <trkpt lat="44.7312" lon="0.92077">
        <ele>215.95</ele>
        <time>2014-08-17T07:41:47Z</time>
      </trkpt>
      <trkpt lat="44.7314" lon="0.92139">
        <ele>218.36</ele>
        <time>2014-08-17T07:42:00Z</time>
      </trkpt>
      <trkpt lat="44.73141" lon="0.92149">
        <ele>218.36</ele>
        <time>2014-08-17T07:42:02Z</time>
      </trkpt>
      <trkpt lat="44.73126" lon="0.92229">
        <ele>212.11</ele>
        <time>2014-08-17T07:42:12Z</time>
      </trkpt>
      <trkpt lat="44.73121" lon="0.92245">
        <ele>211.15</ele>
        <time>2014-08-17T07:42:14Z</time>
      </trkpt>
      <trkpt lat="44.7312" lon="0.92276">
        <ele>210.19</ele>
        <time>2014-08-17T07:42:17Z</time>
      </trkpt>
      <trkpt lat="44.73114" lon="0.92316">
        <ele>207.78</ele>
        <time>2014-08-17T07:42:21Z</time>
      </trkpt>
      <trkpt lat="44.73105" lon="0.92349">
        <ele>204.9</ele>
        <time>2014-08-17T07:42:25Z</time>
      </trkpt>
      <trkpt lat="44.73091" lon="0.92374">
        <ele>202.98</ele>
        <time>2014-08-17T07:42:29Z</time>
      </trkpt>
      <trkpt lat="44.73087" lon="0.92398">
        <ele>202.01</ele>
        <time>2014-08-17T07:42:37Z</time>
      </trkpt>
      <trkpt lat="44.73092" lon="0.92406">
        <ele>202.49</ele>
        <time>2014-08-17T07:42:48Z</time>
      </trkpt>
      <trkpt lat="44.731" lon="0.92408">
        <ele>202.49</ele>
        <time>2014-08-17T07:42:52Z</time>
      </trkpt>
      <trkpt lat="44.73113" lon="0.92412">
        <ele>202.49</ele>
        <time>2014-08-17T07:42:56Z</time>
      </trkpt>
      <trkpt lat="44.73122" lon="0.92415">
        <ele>202.49</ele>
        <time>2014-08-17T07:42:58Z</time>
      </trkpt>
      <trkpt lat="44.7316" lon="0.92423">
        <ele>203.94</ele>
        <time>2014-08-17T07:43:06Z</time>
      </trkpt>
      <trkpt lat="44.73187" lon="0.92415">
        <ele>202.01</ele>
        <time>2014-08-17T07:43:12Z</time>
      </trkpt>
      <trkpt lat="44.73218" lon="0.9241">
        <ele>197.69</ele>
        <time>2014-08-17T07:43:19Z</time>
      </trkpt>
      <trkpt lat="44.73241" lon="0.92416">
        <ele>194.32</ele>
        <time>2014-08-17T07:43:24Z</time>
      </trkpt>
      <trkpt lat="44.73253" lon="0.92434">
        <ele>191.44</ele>
        <time>2014-08-17T07:43:29Z</time>
      </trkpt>
      <trkpt lat="44.73255" lon="0.92514">
        <ele>186.63</ele>
        <time>2014-08-17T07:43:44Z</time>
      </trkpt>
      <trkpt lat="44.73256" lon="0.92521">
        <ele>185.19</ele>
        <time>2014-08-17T07:43:47Z</time>
      </trkpt>
      <trkpt lat="44.73262" lon="0.92528">
        <ele>182.79</ele>
        <time>2014-08-17T07:43:51Z</time>
      </trkpt>
      <trkpt lat="44.73271" lon="0.92534">
        <ele>181.35</ele>
        <time>2014-08-17T07:44:05Z</time>
      </trkpt>
      <trkpt lat="44.73271" lon="0.92536">
        <ele>182.79</ele>
        <time>2014-08-17T07:44:29Z</time>
      </trkpt>
      <trkpt lat="44.73273" lon="0.92534">
        <ele>183.75</ele>
        <time>2014-08-17T07:44:55Z</time>
      </trkpt>
      <trkpt lat="44.73273" lon="0.92533">
        <ele>187.11</ele>
        <time>2014-08-17T07:45:15Z</time>
      </trkpt>
      <trkpt lat="44.73273" lon="0.9253">
        <ele>186.63</ele>
        <time>2014-08-17T07:45:41Z</time>
      </trkpt>
      <trkpt lat="44.73274" lon="0.9253">
        <ele>186.63</ele>
        <time>2014-08-17T07:46:05Z</time>
      </trkpt>
      <trkpt lat="44.7327" lon="0.92533">
        <ele>182.31</ele>
        <time>2014-08-17T07:46:36Z</time>
      </trkpt>
      <trkpt lat="44.73269" lon="0.92533">
        <ele>180.87</ele>
        <time>2014-08-17T07:46:59Z</time>
      </trkpt>
      <trkpt lat="44.73274" lon="0.92534">
        <ele>181.35</ele>
        <time>2014-08-17T07:47:19Z</time>
      </trkpt>
      <trkpt lat="44.73287" lon="0.92532">
        <ele>186.15</ele>
        <time>2014-08-17T07:47:31Z</time>
      </trkpt>
      <trkpt lat="44.73296" lon="0.92537">
        <ele>188.08</ele>
        <time>2014-08-17T07:47:36Z</time>
      </trkpt>
      <trkpt lat="44.73296" lon="0.92557">
        <ele>190</ele>
        <time>2014-08-17T07:47:46Z</time>
      </trkpt>
      <trkpt lat="44.73295" lon="0.9257">
        <ele>187.59</ele>
        <time>2014-08-17T07:47:51Z</time>
      </trkpt>
      <trkpt lat="44.73302" lon="0.92603">
        <ele>186.15</ele>
        <time>2014-08-17T07:48:05Z</time>
      </trkpt>
      <trkpt lat="44.73302" lon="0.9263">
        <ele>185.67</ele>
        <time>2014-08-17T07:48:19Z</time>
      </trkpt>
      <trkpt lat="44.73303" lon="0.92647">
        <ele>186.63</ele>
        <time>2014-08-17T07:48:26Z</time>
      </trkpt>
      <trkpt lat="44.73303" lon="0.92651">
        <ele>187.11</ele>
        <time>2014-08-17T07:48:28Z</time>
      </trkpt>
      <trkpt lat="44.73293" lon="0.92674">
        <ele>187.11</ele>
        <time>2014-08-17T07:48:37Z</time>
      </trkpt>
      <trkpt lat="44.73292" lon="0.92678">
        <ele>186.63</ele>
        <time>2014-08-17T07:48:39Z</time>
      </trkpt>
      <trkpt lat="44.7329" lon="0.92685">
        <ele>186.15</ele>
        <time>2014-08-17T07:48:44Z</time>
      </trkpt>
      <trkpt lat="44.73287" lon="0.92692">
        <ele>185.67</ele>
        <time>2014-08-17T07:48:47Z</time>
      </trkpt>
      <trkpt lat="44.73283" lon="0.92698">
        <ele>184.71</ele>
        <time>2014-08-17T07:48:50Z</time>
      </trkpt>
      <trkpt lat="44.73278" lon="0.92718">
        <ele>185.19</ele>
        <time>2014-08-17T07:48:59Z</time>
      </trkpt>
      <trkpt lat="44.73274" lon="0.92727">
        <ele>185.67</ele>
        <time>2014-08-17T07:49:03Z</time>
      </trkpt>
      <trkpt lat="44.73273" lon="0.92732">
        <ele>185.67</ele>
        <time>2014-08-17T07:49:05Z</time>
      </trkpt>
      <trkpt lat="44.7327" lon="0.92746">
        <ele>186.15</ele>
        <time>2014-08-17T07:49:11Z</time>
      </trkpt>
      <trkpt lat="44.73268" lon="0.92766">
        <ele>187.11</ele>
        <time>2014-08-17T07:49:21Z</time>
      </trkpt>
      <trkpt lat="44.73264" lon="0.92773">
        <ele>188.56</ele>
        <time>2014-08-17T07:49:26Z</time>
      </trkpt>
      <trkpt lat="44.73278" lon="0.92773">
        <ele>191.92</ele>
        <time>2014-08-17T07:49:35Z</time>
      </trkpt>
      <trkpt lat="44.7328" lon="0.92771">
        <ele>191.92</ele>
        <time>2014-08-17T07:49:36Z</time>
      </trkpt>
      <trkpt lat="44.73297" lon="0.92736">
        <ele>188.08</ele>
        <time>2014-08-17T07:49:48Z</time>
      </trkpt>
      <trkpt lat="44.73302" lon="0.92728">
        <ele>187.59</ele>
        <time>2014-08-17T07:49:50Z</time>
      </trkpt>
      <trkpt lat="44.73309" lon="0.92717">
        <ele>185.67</ele>
        <time>2014-08-17T07:49:53Z</time>
      </trkpt>
      <trkpt lat="44.73326" lon="0.92696">
        <ele>183.75</ele>
        <time>2014-08-17T07:50:02Z</time>
      </trkpt>
      <trkpt lat="44.73342" lon="0.92671">
        <ele>184.71</ele>
        <time>2014-08-17T07:50:14Z</time>
      </trkpt>
      <trkpt lat="44.73343" lon="0.92669">
        <ele>185.19</ele>
        <time>2014-08-17T07:50:15Z</time>
      </trkpt>
      <trkpt lat="44.73357" lon="0.9265">
        <ele>190.96</ele>
        <time>2014-08-17T07:50:26Z</time>
      </trkpt>
      <trkpt lat="44.73361" lon="0.92637">
        <ele>193.84</ele>
        <time>2014-08-17T07:50:35Z</time>
      </trkpt>
      <trkpt lat="44.73363" lon="0.92606">
        <ele>196.25</ele>
        <time>2014-08-17T07:50:44Z</time>
      </trkpt>
      <trkpt lat="44.73357" lon="0.92565">
        <ele>203.94</ele>
        <time>2014-08-17T07:50:53Z</time>
      </trkpt>
      <trkpt lat="44.73353" lon="0.92548">
        <ele>206.82</ele>
        <time>2014-08-17T07:50:57Z</time>
      </trkpt>
      <trkpt lat="44.73344" lon="0.92515">
        <ele>212.11</ele>
        <time>2014-08-17T07:51:04Z</time>
      </trkpt>
      <trkpt lat="44.73346" lon="0.9247">
        <ele>211.15</ele>
        <time>2014-08-17T07:51:13Z</time>
      </trkpt>
      <trkpt lat="44.73349" lon="0.92452">
        <ele>210.67</ele>
        <time>2014-08-17T07:51:16Z</time>
      </trkpt>
      <trkpt lat="44.7336" lon="0.92435">
        <ele>210.19</ele>
        <time>2014-08-17T07:51:21Z</time>
      </trkpt>
      <trkpt lat="44.73361" lon="0.92432">
        <ele>210.19</ele>
        <time>2014-08-17T07:51:22Z</time>
      </trkpt>
      <trkpt lat="44.73363" lon="0.9243">
        <ele>209.7</ele>
        <time>2014-08-17T07:51:23Z</time>
      </trkpt>
      <trkpt lat="44.73365" lon="0.92424">
        <ele>210.19</ele>
        <time>2014-08-17T07:51:25Z</time>
      </trkpt>
      <trkpt lat="44.73384" lon="0.92393">
        <ele>209.22</ele>
        <time>2014-08-17T07:51:35Z</time>
      </trkpt>
      <trkpt lat="44.73396" lon="0.92382">
        <ele>210.19</ele>
        <time>2014-08-17T07:51:40Z</time>
      </trkpt>
      <trkpt lat="44.73404" lon="0.92381">
        <ele>210.19</ele>
        <time>2014-08-17T07:51:44Z</time>
      </trkpt>
      <trkpt lat="44.73408" lon="0.92381">
        <ele>209.22</ele>
        <time>2014-08-17T07:51:46Z</time>
      </trkpt>
      <trkpt lat="44.7345" lon="0.9238">
        <ele>209.22</ele>
        <time>2014-08-17T07:51:59Z</time>
      </trkpt>
      <trkpt lat="44.73478" lon="0.92399">
        <ele>209.22</ele>
        <time>2014-08-17T07:52:08Z</time>
      </trkpt>
      <trkpt lat="44.73489" lon="0.92409">
        <ele>209.22</ele>
        <time>2014-08-17T07:52:12Z</time>
      </trkpt>
      <trkpt lat="44.73505" lon="0.92405">
        <ele>207.78</ele>
        <time>2014-08-17T07:52:21Z</time>
      </trkpt>
      <trkpt lat="44.7353" lon="0.92395">
        <ele>205.38</ele>
        <time>2014-08-17T07:52:28Z</time>
      </trkpt>
      <trkpt lat="44.73542" lon="0.92377">
        <ele>203.94</ele>
        <time>2014-08-17T07:52:34Z</time>
      </trkpt>
      <trkpt lat="44.73541" lon="0.92367">
        <ele>203.94</ele>
        <time>2014-08-17T07:52:37Z</time>
      </trkpt>
      <trkpt lat="44.73545" lon="0.92357">
        <ele>203.46</ele>
        <time>2014-08-17T07:52:41Z</time>
      </trkpt>
      <trkpt lat="44.73545" lon="0.92334">
        <ele>203.94</ele>
        <time>2014-08-17T07:52:48Z</time>
      </trkpt>
      <trkpt lat="44.73549" lon="0.92316">
        <ele>206.82</ele>
        <time>2014-08-17T07:52:54Z</time>
      </trkpt>
      <trkpt lat="44.73552" lon="0.92287">
        <ele>208.74</ele>
        <time>2014-08-17T07:53:02Z</time>
      </trkpt>
      <trkpt lat="44.73559" lon="0.92266">
        <ele>208.26</ele>
        <time>2014-08-17T07:53:09Z</time>
      </trkpt>
      <trkpt lat="44.73558" lon="0.92246">
        <ele>206.82</ele>
        <time>2014-08-17T07:53:16Z</time>
      </trkpt>
      <trkpt lat="44.73565" lon="0.92225">
        <ele>205.86</ele>
        <time>2014-08-17T07:53:22Z</time>
      </trkpt>
      <trkpt lat="44.73574" lon="0.922">
        <ele>205.38</ele>
        <time>2014-08-17T07:53:29Z</time>
      </trkpt>
      <trkpt lat="44.73578" lon="0.92183">
        <ele>204.9</ele>
        <time>2014-08-17T07:53:34Z</time>
      </trkpt>
      <trkpt lat="44.73585" lon="0.92145">
        <ele>204.9</ele>
        <time>2014-08-17T07:53:44Z</time>
      </trkpt>
      <trkpt lat="44.73593" lon="0.92093">
        <ele>205.38</ele>
        <time>2014-08-17T07:53:56Z</time>
      </trkpt>
      <trkpt lat="44.73588" lon="0.92073">
        <ele>206.34</ele>
        <time>2014-08-17T07:54:02Z</time>
      </trkpt>
      <trkpt lat="44.73559" lon="0.92047">
        <ele>203.94</ele>
        <time>2014-08-17T07:54:12Z</time>
      </trkpt>
      <trkpt lat="44.73557" lon="0.92019">
        <ele>198.65</ele>
        <time>2014-08-17T07:54:20Z</time>
      </trkpt>
      <trkpt lat="44.73569" lon="0.91996">
        <ele>197.21</ele>
        <time>2014-08-17T07:54:26Z</time>
      </trkpt>
      <trkpt lat="44.73585" lon="0.91966">
        <ele>193.36</ele>
        <time>2014-08-17T07:54:37Z</time>
      </trkpt>
      <trkpt lat="44.7359" lon="0.91927">
        <ele>192.88</ele>
        <time>2014-08-17T07:54:46Z</time>
      </trkpt>
      <trkpt lat="44.73597" lon="0.91898">
        <ele>192.4</ele>
        <time>2014-08-17T07:54:53Z</time>
      </trkpt>
      <trkpt lat="44.73594" lon="0.91883">
        <ele>191.92</ele>
        <time>2014-08-17T07:54:57Z</time>
      </trkpt>
      <trkpt lat="44.7359" lon="0.91864">
        <ele>191.92</ele>
        <time>2014-08-17T07:55:03Z</time>
      </trkpt>
      <trkpt lat="44.73589" lon="0.91858">
        <ele>191.92</ele>
        <time>2014-08-17T07:55:06Z</time>
      </trkpt>
      <trkpt lat="44.73591" lon="0.91851">
        <ele>191.92</ele>
        <time>2014-08-17T07:55:10Z</time>
      </trkpt>
      <trkpt lat="44.73591" lon="0.91847">
        <ele>191.44</ele>
        <time>2014-08-17T07:55:12Z</time>
      </trkpt>
      <trkpt lat="44.73591" lon="0.91832">
        <ele>190</ele>
        <time>2014-08-17T07:55:27Z</time>
      </trkpt>
      <trkpt lat="44.73594" lon="0.91823">
        <ele>186.63</ele>
        <time>2014-08-17T07:55:47Z</time>
      </trkpt>
      <trkpt lat="44.73594" lon="0.91823">
        <ele>181.83</ele>
        <time>2014-08-17T07:56:09Z</time>
      </trkpt>
      <trkpt lat="44.73595" lon="0.91815">
        <ele>180.38</ele>
        <time>2014-08-17T07:56:29Z</time>
      </trkpt>
      <trkpt lat="44.73594" lon="0.91814">
        <ele>182.31</ele>
        <time>2014-08-17T07:56:42Z</time>
      </trkpt>
      <trkpt lat="44.73597" lon="0.91809">
        <ele>182.79</ele>
        <time>2014-08-17T07:56:58Z</time>
      </trkpt>
      <trkpt lat="44.73599" lon="0.91791">
        <ele>184.71</ele>
        <time>2014-08-17T07:57:12Z</time>
      </trkpt>
      <trkpt lat="44.73605" lon="0.9178">
        <ele>185.67</ele>
        <time>2014-08-17T07:57:26Z</time>
      </trkpt>
      <trkpt lat="44.73606" lon="0.91778">
        <ele>185.67</ele>
        <time>2014-08-17T07:57:31Z</time>
      </trkpt>
      <trkpt lat="44.73613" lon="0.9177">
        <ele>185.19</ele>
        <time>2014-08-17T07:57:37Z</time>
      </trkpt>
      <trkpt lat="44.73641" lon="0.91753">
        <ele>188.08</ele>
        <time>2014-08-17T07:57:50Z</time>
      </trkpt>
      <trkpt lat="44.73644" lon="0.91748">
        <ele>188.56</ele>
        <time>2014-08-17T07:57:53Z</time>
      </trkpt>
      <trkpt lat="44.73652" lon="0.91744">
        <ele>190</ele>
        <time>2014-08-17T07:57:58Z</time>
      </trkpt>
      <trkpt lat="44.73656" lon="0.91739">
        <ele>190.96</ele>
        <time>2014-08-17T07:58:01Z</time>
      </trkpt>
      <trkpt lat="44.73659" lon="0.91726">
        <ele>191.92</ele>
        <time>2014-08-17T07:58:08Z</time>
      </trkpt>
      <trkpt lat="44.73662" lon="0.91719">
        <ele>190.96</ele>
        <time>2014-08-17T07:58:11Z</time>
      </trkpt>
      <trkpt lat="44.73668" lon="0.91709">
        <ele>191.92</ele>
        <time>2014-08-17T07:58:20Z</time>
      </trkpt>
      <trkpt lat="44.73671" lon="0.91706">
        <ele>194.8</ele>
        <time>2014-08-17T07:58:32Z</time>
      </trkpt>
      <trkpt lat="44.73672" lon="0.91707">
        <ele>197.21</ele>
        <time>2014-08-17T07:58:44Z</time>
      </trkpt>
      <trkpt lat="44.73669" lon="0.9171">
        <ele>197.21</ele>
        <time>2014-08-17T07:59:14Z</time>
      </trkpt>
      <trkpt lat="44.7367" lon="0.91703">
        <ele>200.57</ele>
        <time>2014-08-17T07:59:39Z</time>
      </trkpt>
      <trkpt lat="44.73671" lon="0.91702">
        <ele>199.13</ele>
        <time>2014-08-17T07:59:56Z</time>
      </trkpt>
      <trkpt lat="44.73673" lon="0.91701">
        <ele>199.13</ele>
        <time>2014-08-17T07:59:59Z</time>
      </trkpt>
      <trkpt lat="44.73688" lon="0.91684">
        <ele>201.05</ele>
        <time>2014-08-17T08:00:11Z</time>
      </trkpt>
      <trkpt lat="44.7371" lon="0.91664">
        <ele>200.57</ele>
        <time>2014-08-17T08:00:21Z</time>
      </trkpt>
      <trkpt lat="44.73711" lon="0.91662">
        <ele>200.57</ele>
        <time>2014-08-17T08:00:22Z</time>
      </trkpt>
      <trkpt lat="44.73711" lon="0.91659">
        <ele>200.09</ele>
        <time>2014-08-17T08:00:23Z</time>
      </trkpt>
      <trkpt lat="44.73712" lon="0.91654">
        <ele>200.09</ele>
        <time>2014-08-17T08:00:25Z</time>
      </trkpt>
      <trkpt lat="44.73714" lon="0.91649">
        <ele>200.09</ele>
        <time>2014-08-17T08:00:27Z</time>
      </trkpt>
      <trkpt lat="44.73714" lon="0.91644">
        <ele>200.09</ele>
        <time>2014-08-17T08:00:28Z</time>
      </trkpt>
      <trkpt lat="44.73715" lon="0.9164">
        <ele>200.57</ele>
        <time>2014-08-17T08:00:29Z</time>
      </trkpt>
      <trkpt lat="44.73717" lon="0.91637">
        <ele>200.57</ele>
        <time>2014-08-17T08:00:30Z</time>
      </trkpt>
      <trkpt lat="44.7372" lon="0.91634">
        <ele>200.57</ele>
        <time>2014-08-17T08:00:31Z</time>
      </trkpt>
      <trkpt lat="44.73722" lon="0.9163">
        <ele>200.57</ele>
        <time>2014-08-17T08:00:32Z</time>
      </trkpt>
      <trkpt lat="44.73723" lon="0.91626">
        <ele>200.57</ele>
        <time>2014-08-17T08:00:33Z</time>
      </trkpt>
      <trkpt lat="44.73724" lon="0.91621">
        <ele>201.05</ele>
        <time>2014-08-17T08:00:34Z</time>
      </trkpt>
      <trkpt lat="44.73724" lon="0.91617">
        <ele>201.05</ele>
        <time>2014-08-17T08:00:35Z</time>
      </trkpt>
      <trkpt lat="44.73725" lon="0.91612">
        <ele>200.57</ele>
        <time>2014-08-17T08:00:36Z</time>
      </trkpt>
      <trkpt lat="44.7373" lon="0.91597">
        <ele>200.57</ele>
        <time>2014-08-17T08:00:39Z</time>
      </trkpt>
      <trkpt lat="44.73731" lon="0.9159">
        <ele>200.57</ele>
        <time>2014-08-17T08:00:40Z</time>
      </trkpt>
      <trkpt lat="44.73737" lon="0.91571">
        <ele>200.09</ele>
        <time>2014-08-17T08:00:43Z</time>
      </trkpt>
      <trkpt lat="44.73739" lon="0.91567">
        <ele>200.09</ele>
        <time>2014-08-17T08:00:44Z</time>
      </trkpt>
      <trkpt lat="44.73741" lon="0.91563">
        <ele>200.09</ele>
        <time>2014-08-17T08:00:45Z</time>
      </trkpt>
      <trkpt lat="44.73743" lon="0.91558">
        <ele>199.61</ele>
        <time>2014-08-17T08:00:46Z</time>
      </trkpt>
      <trkpt lat="44.73744" lon="0.91553">
        <ele>199.61</ele>
        <time>2014-08-17T08:00:47Z</time>
      </trkpt>
      <trkpt lat="44.73745" lon="0.91548">
        <ele>199.61</ele>
        <time>2014-08-17T08:00:48Z</time>
      </trkpt>
      <trkpt lat="44.73746" lon="0.91544">
        <ele>199.13</ele>
        <time>2014-08-17T08:00:49Z</time>
      </trkpt>
      <trkpt lat="44.73747" lon="0.9154">
        <ele>199.61</ele>
        <time>2014-08-17T08:00:50Z</time>
      </trkpt>
      <trkpt lat="44.73749" lon="0.91536">
        <ele>199.61</ele>
        <time>2014-08-17T08:00:51Z</time>
      </trkpt>
      <trkpt lat="44.7375" lon="0.91535">
        <ele>199.61</ele>
        <time>2014-08-17T08:00:52Z</time>
      </trkpt>
      <trkpt lat="44.73751" lon="0.91533">
        <ele>199.61</ele>
        <time>2014-08-17T08:00:53Z</time>
      </trkpt>
      <trkpt lat="44.73752" lon="0.91532">
        <ele>199.61</ele>
        <time>2014-08-17T08:00:54Z</time>
      </trkpt>
      <trkpt lat="44.73753" lon="0.91528">
        <ele>200.09</ele>
        <time>2014-08-17T08:00:55Z</time>
      </trkpt>
      <trkpt lat="44.73754" lon="0.91524">
        <ele>199.61</ele>
        <time>2014-08-17T08:00:56Z</time>
      </trkpt>
      <trkpt lat="44.73754" lon="0.91519">
        <ele>198.65</ele>
        <time>2014-08-17T08:00:57Z</time>
      </trkpt>
      <trkpt lat="44.73754" lon="0.91515">
        <ele>198.17</ele>
        <time>2014-08-17T08:00:58Z</time>
      </trkpt>
      <trkpt lat="44.73755" lon="0.9151">
        <ele>197.69</ele>
        <time>2014-08-17T08:00:59Z</time>
      </trkpt>
      <trkpt lat="44.73755" lon="0.91506">
        <ele>197.69</ele>
        <time>2014-08-17T08:01:00Z</time>
      </trkpt>
      <trkpt lat="44.73754" lon="0.91501">
        <ele>197.21</ele>
        <time>2014-08-17T08:01:01Z</time>
      </trkpt>
      <trkpt lat="44.73753" lon="0.91498">
        <ele>197.69</ele>
        <time>2014-08-17T08:01:02Z</time>
      </trkpt>
      <trkpt lat="44.73753" lon="0.91494">
        <ele>197.21</ele>
        <time>2014-08-17T08:01:03Z</time>
      </trkpt>
      <trkpt lat="44.73748" lon="0.91471">
        <ele>196.73</ele>
        <time>2014-08-17T08:01:13Z</time>
      </trkpt>
      <trkpt lat="44.73748" lon="0.91467">
        <ele>196.25</ele>
        <time>2014-08-17T08:01:16Z</time>
      </trkpt>
      <trkpt lat="44.73748" lon="0.91465">
        <ele>195.77</ele>
        <time>2014-08-17T08:01:17Z</time>
      </trkpt>
      <trkpt lat="44.73747" lon="0.91462">
        <ele>195.77</ele>
        <time>2014-08-17T08:01:18Z</time>
      </trkpt>
      <trkpt lat="44.73747" lon="0.91458">
        <ele>193.84</ele>
        <time>2014-08-17T08:01:20Z</time>
      </trkpt>
      <trkpt lat="44.73741" lon="0.91454">
        <ele>184.71</ele>
        <time>2014-08-17T08:01:31Z</time>
      </trkpt>
      <trkpt lat="44.7374" lon="0.91452">
        <ele>180.38</ele>
        <time>2014-08-17T08:01:50Z</time>
      </trkpt>
      <trkpt lat="44.73739" lon="0.91448">
        <ele>178.46</ele>
        <time>2014-08-17T08:01:58Z</time>
      </trkpt>
      <trkpt lat="44.73744" lon="0.9144">
        <ele>175.1</ele>
        <time>2014-08-17T08:02:11Z</time>
      </trkpt>
      <trkpt lat="44.73745" lon="0.91448">
        <ele>166.45</ele>
        <time>2014-08-17T08:02:37Z</time>
      </trkpt>
      <trkpt lat="44.73746" lon="0.91443">
        <ele>165.48</ele>
        <time>2014-08-17T08:03:09Z</time>
      </trkpt>
      <trkpt lat="44.73744" lon="0.91441">
        <ele>171.25</ele>
        <time>2014-08-17T08:03:41Z</time>
      </trkpt>
      <trkpt lat="44.73745" lon="0.9144">
        <ele>173.17</ele>
        <time>2014-08-17T08:04:15Z</time>
      </trkpt>
      <trkpt lat="44.73745" lon="0.91437">
        <ele>173.17</ele>
        <time>2014-08-17T08:04:30Z</time>
      </trkpt>
      <trkpt lat="44.7375" lon="0.9144">
        <ele>174.62</ele>
        <time>2014-08-17T08:04:59Z</time>
      </trkpt>
      <trkpt lat="44.73747" lon="0.91436">
        <ele>180.87</ele>
        <time>2014-08-17T08:05:35Z</time>
      </trkpt>
      <trkpt lat="44.73747" lon="0.91422">
        <ele>177.5</ele>
        <time>2014-08-17T08:05:49Z</time>
      </trkpt>
      <trkpt lat="44.73748" lon="0.91405">
        <ele>172.69</ele>
        <time>2014-08-17T08:06:06Z</time>
      </trkpt>
      <trkpt lat="44.73748" lon="0.91395">
        <ele>168.85</ele>
        <time>2014-08-17T08:06:18Z</time>
      </trkpt>
      <trkpt lat="44.73746" lon="0.91379">
        <ele>168.85</ele>
        <time>2014-08-17T08:06:23Z</time>
      </trkpt>
      <trkpt lat="44.73746" lon="0.91377">
        <ele>168.85</ele>
        <time>2014-08-17T08:06:24Z</time>
      </trkpt>
      <trkpt lat="44.73747" lon="0.91377">
        <ele>167.41</ele>
        <time>2014-08-17T08:06:28Z</time>
      </trkpt>
      <trkpt lat="44.73749" lon="0.91383">
        <ele>165</ele>
        <time>2014-08-17T08:06:38Z</time>
      </trkpt>
      <trkpt lat="44.73749" lon="0.91383">
        <ele>165.48</ele>
        <time>2014-08-17T08:06:47Z</time>
      </trkpt>
      <trkpt lat="44.73752" lon="0.91398">
        <ele>165.48</ele>
        <time>2014-08-17T08:06:52Z</time>
      </trkpt>
      <trkpt lat="44.73752" lon="0.91409">
        <ele>165.96</ele>
        <time>2014-08-17T08:06:58Z</time>
      </trkpt>
      <trkpt lat="44.73752" lon="0.91406">
        <ele>165</ele>
        <time>2014-08-17T08:07:06Z</time>
      </trkpt>
      <trkpt lat="44.73751" lon="0.91389">
        <ele>165</ele>
        <time>2014-08-17T08:07:12Z</time>
      </trkpt>
      <trkpt lat="44.73748" lon="0.91377">
        <ele>165</ele>
        <time>2014-08-17T08:07:14Z</time>
      </trkpt>
      <trkpt lat="44.73748" lon="0.91364">
        <ele>165.96</ele>
        <time>2014-08-17T08:07:16Z</time>
      </trkpt>
      <trkpt lat="44.73749" lon="0.91337">
        <ele>168.37</ele>
        <time>2014-08-17T08:07:23Z</time>
      </trkpt>
      <trkpt lat="44.73748" lon="0.91328">
        <ele>170.29</ele>
        <time>2014-08-17T08:07:34Z</time>
      </trkpt>
      <trkpt lat="44.73749" lon="0.91328">
        <ele>168.85</ele>
        <time>2014-08-17T08:07:47Z</time>
      </trkpt>
      <trkpt lat="44.73751" lon="0.91308">
        <ele>170.29</ele>
        <time>2014-08-17T08:08:01Z</time>
      </trkpt>
      <trkpt lat="44.73755" lon="0.91269">
        <ele>171.73</ele>
        <time>2014-08-17T08:08:14Z</time>
      </trkpt>
      <trkpt lat="44.73756" lon="0.91263">
        <ele>172.21</ele>
        <time>2014-08-17T08:08:16Z</time>
      </trkpt>
      <trkpt lat="44.73756" lon="0.91222">
        <ele>173.66</ele>
        <time>2014-08-17T08:08:30Z</time>
      </trkpt>
      <trkpt lat="44.73761" lon="0.91182">
        <ele>175.1</ele>
        <time>2014-08-17T08:08:42Z</time>
      </trkpt>
      <trkpt lat="44.73784" lon="0.91148">
        <ele>176.54</ele>
        <time>2014-08-17T08:08:54Z</time>
      </trkpt>
      <trkpt lat="44.73811" lon="0.91111">
        <ele>177.02</ele>
        <time>2014-08-17T08:09:06Z</time>
      </trkpt>
      <trkpt lat="44.73833" lon="0.91088">
        <ele>177.5</ele>
        <time>2014-08-17T08:09:15Z</time>
      </trkpt>
      <trkpt lat="44.7384" lon="0.9107">
        <ele>176.06</ele>
        <time>2014-08-17T08:09:19Z</time>
      </trkpt>
      <trkpt lat="44.73845" lon="0.91058">
        <ele>175.1</ele>
        <time>2014-08-17T08:09:21Z</time>
      </trkpt>
      <trkpt lat="44.73862" lon="0.9103">
        <ele>170.77</ele>
        <time>2014-08-17T08:09:28Z</time>
      </trkpt>
      <trkpt lat="44.73886" lon="0.91017">
        <ele>167.41</ele>
        <time>2014-08-17T08:09:36Z</time>
      </trkpt>
      <trkpt lat="44.7389" lon="0.9101">
        <ele>166.93</ele>
        <time>2014-08-17T08:09:38Z</time>
      </trkpt>
      <trkpt lat="44.73905" lon="0.90985">
        <ele>165</ele>
        <time>2014-08-17T08:09:46Z</time>
      </trkpt>
      <trkpt lat="44.73909" lon="0.90971">
        <ele>164.04</ele>
        <time>2014-08-17T08:09:51Z</time>
      </trkpt>
      <trkpt lat="44.73938" lon="0.90948">
        <ele>163.08</ele>
        <time>2014-08-17T08:10:03Z</time>
      </trkpt>
      <trkpt lat="44.7396" lon="0.90924">
        <ele>162.6</ele>
        <time>2014-08-17T08:10:13Z</time>
      </trkpt>
      <trkpt lat="44.73968" lon="0.90907">
        <ele>161.64</ele>
        <time>2014-08-17T08:10:19Z</time>
      </trkpt>
      <trkpt lat="44.73985" lon="0.90888">
        <ele>162.12</ele>
        <time>2014-08-17T08:10:27Z</time>
      </trkpt>
      <trkpt lat="44.73997" lon="0.90878">
        <ele>163.08</ele>
        <time>2014-08-17T08:10:37Z</time>
      </trkpt>
      <trkpt lat="44.73999" lon="0.90876">
        <ele>162.6</ele>
        <time>2014-08-17T08:10:40Z</time>
      </trkpt>
      <trkpt lat="44.74001" lon="0.90874">
        <ele>162.6</ele>
        <time>2014-08-17T08:10:42Z</time>
      </trkpt>
      <trkpt lat="44.74008" lon="0.90864">
        <ele>162.12</ele>
        <time>2014-08-17T08:10:49Z</time>
      </trkpt>
      <trkpt lat="44.74012" lon="0.90863">
        <ele>162.12</ele>
        <time>2014-08-17T08:11:01Z</time>
      </trkpt>
      <trkpt lat="44.74013" lon="0.90865">
        <ele>162.12</ele>
        <time>2014-08-17T08:11:21Z</time>
      </trkpt>
      <trkpt lat="44.74013" lon="0.90865">
        <ele>161.16</ele>
        <time>2014-08-17T08:11:50Z</time>
      </trkpt>
      <trkpt lat="44.74013" lon="0.90862">
        <ele>158.75</ele>
        <time>2014-08-17T08:12:10Z</time>
      </trkpt>
      <trkpt lat="44.74011" lon="0.90864">
        <ele>160.2</ele>
        <time>2014-08-17T08:12:37Z</time>
      </trkpt>
      <trkpt lat="44.74012" lon="0.90863">
        <ele>161.16</ele>
        <time>2014-08-17T08:12:56Z</time>
      </trkpt>
      <trkpt lat="44.74013" lon="0.90864">
        <ele>157.31</ele>
        <time>2014-08-17T08:13:18Z</time>
      </trkpt>
      <trkpt lat="44.74016" lon="0.90864">
        <ele>156.35</ele>
        <time>2014-08-17T08:13:37Z</time>
      </trkpt>
      <trkpt lat="44.74016" lon="0.90864">
        <ele>155.87</ele>
        <time>2014-08-17T08:13:59Z</time>
      </trkpt>
      <trkpt lat="44.74016" lon="0.90864">
        <ele>155.39</ele>
        <time>2014-08-17T08:14:02Z</time>
      </trkpt>
      <trkpt lat="44.74023" lon="0.90853">
        <ele>153.47</ele>
        <time>2014-08-17T08:14:10Z</time>
      </trkpt>
      <trkpt lat="44.74029" lon="0.90839">
        <ele>150.1</ele>
        <time>2014-08-17T08:14:16Z</time>
      </trkpt>
      <trkpt lat="44.74026" lon="0.90827">
        <ele>144.34</ele>
        <time>2014-08-17T08:14:27Z</time>
      </trkpt>
      <trkpt lat="44.74026" lon="0.90826">
        <ele>143.37</ele>
        <time>2014-08-17T08:14:49Z</time>
      </trkpt>
      <trkpt lat="44.74026" lon="0.90824">
        <ele>142.89</ele>
        <time>2014-08-17T08:15:14Z</time>
      </trkpt>
      <trkpt lat="44.74019" lon="0.90808">
        <ele>141.93</ele>
        <time>2014-08-17T08:15:22Z</time>
      </trkpt>
      <trkpt lat="44.74027" lon="0.90786">
        <ele>141.93</ele>
        <time>2014-08-17T08:15:30Z</time>
      </trkpt>
      <trkpt lat="44.74024" lon="0.90776">
        <ele>142.41</ele>
        <time>2014-08-17T08:15:34Z</time>
      </trkpt>
      <trkpt lat="44.74018" lon="0.90767">
        <ele>147.7</ele>
        <time>2014-08-17T08:15:47Z</time>
      </trkpt>
      <trkpt lat="44.74005" lon="0.90735">
        <ele>150.1</ele>
        <time>2014-08-17T08:15:58Z</time>
      </trkpt>
      <trkpt lat="44.73985" lon="0.90691">
        <ele>147.7</ele>
        <time>2014-08-17T08:16:09Z</time>
      </trkpt>
      <trkpt lat="44.73974" lon="0.90643">
        <ele>144.82</ele>
        <time>2014-08-17T08:16:17Z</time>
      </trkpt>
      <trkpt lat="44.73973" lon="0.90637">
        <ele>144.34</ele>
        <time>2014-08-17T08:16:18Z</time>
      </trkpt>
      <trkpt lat="44.73972" lon="0.90631">
        <ele>143.85</ele>
        <time>2014-08-17T08:16:19Z</time>
      </trkpt>
      <trkpt lat="44.73966" lon="0.90595">
        <ele>142.89</ele>
        <time>2014-08-17T08:16:25Z</time>
      </trkpt>
      <trkpt lat="44.73962" lon="0.90541">
        <ele>142.89</ele>
        <time>2014-08-17T08:16:35Z</time>
      </trkpt>
      <trkpt lat="44.73959" lon="0.90537">
        <ele>143.37</ele>
        <time>2014-08-17T08:16:36Z</time>
      </trkpt>
      <trkpt lat="44.73955" lon="0.90534">
        <ele>143.37</ele>
        <time>2014-08-17T08:16:37Z</time>
      </trkpt>
      <trkpt lat="44.73948" lon="0.90527">
        <ele>143.37</ele>
        <time>2014-08-17T08:16:39Z</time>
      </trkpt>
      <trkpt lat="44.73927" lon="0.90515">
        <ele>143.37</ele>
        <time>2014-08-17T08:16:44Z</time>
      </trkpt>
      <trkpt lat="44.73909" lon="0.90506">
        <ele>143.37</ele>
        <time>2014-08-17T08:16:49Z</time>
      </trkpt>
      <trkpt lat="44.73903" lon="0.90463">
        <ele>142.41</ele>
        <time>2014-08-17T08:17:00Z</time>
      </trkpt>
      <trkpt lat="44.73902" lon="0.90427">
        <ele>142.41</ele>
        <time>2014-08-17T08:17:11Z</time>
      </trkpt>
      <trkpt lat="44.73899" lon="0.9039">
        <ele>142.41</ele>
        <time>2014-08-17T08:17:22Z</time>
      </trkpt>
      <trkpt lat="44.73897" lon="0.90363">
        <ele>144.34</ele>
        <time>2014-08-17T08:17:31Z</time>
      </trkpt>
      <trkpt lat="44.73896" lon="0.90357">
        <ele>143.85</ele>
        <time>2014-08-17T08:17:33Z</time>
      </trkpt>
      <trkpt lat="44.73888" lon="0.90315">
        <ele>143.85</ele>
        <time>2014-08-17T08:17:46Z</time>
      </trkpt>
      <trkpt lat="44.73888" lon="0.90313">
        <ele>143.85</ele>
        <time>2014-08-17T08:17:47Z</time>
      </trkpt>
      <trkpt lat="44.73887" lon="0.90301">
        <ele>143.85</ele>
        <time>2014-08-17T08:17:51Z</time>
      </trkpt>
      <trkpt lat="44.73877" lon="0.90254">
        <ele>146.26</ele>
        <time>2014-08-17T08:18:07Z</time>
      </trkpt>
      <trkpt lat="44.7387" lon="0.90229">
        <ele>152.03</ele>
        <time>2014-08-17T08:18:17Z</time>
      </trkpt>
      <trkpt lat="44.73865" lon="0.90206">
        <ele>153.95</ele>
        <time>2014-08-17T08:18:27Z</time>
      </trkpt>
      <trkpt lat="44.7386" lon="0.90192">
        <ele>155.87</ele>
        <time>2014-08-17T08:18:33Z</time>
      </trkpt>
      <trkpt lat="44.73839" lon="0.90153">
        <ele>160.68</ele>
        <time>2014-08-17T08:18:46Z</time>
      </trkpt>
      <trkpt lat="44.73819" lon="0.90124">
        <ele>160.68</ele>
        <time>2014-08-17T08:18:55Z</time>
      </trkpt>
      <trkpt lat="44.73798" lon="0.90106">
        <ele>159.72</ele>
        <time>2014-08-17T08:19:00Z</time>
      </trkpt>
      <trkpt lat="44.7378" lon="0.90099">
        <ele>158.75</ele>
        <time>2014-08-17T08:19:04Z</time>
      </trkpt>
      <trkpt lat="44.73779" lon="0.90075">
        <ele>159.24</ele>
        <time>2014-08-17T08:19:09Z</time>
      </trkpt>
      <trkpt lat="44.7378" lon="0.90062">
        <ele>159.72</ele>
        <time>2014-08-17T08:19:21Z</time>
      </trkpt>
      <trkpt lat="44.73777" lon="0.90058">
        <ele>160.2</ele>
        <time>2014-08-17T08:19:47Z</time>
      </trkpt>
      <trkpt lat="44.73775" lon="0.9003">
        <ele>160.2</ele>
        <time>2014-08-17T08:19:56Z</time>
      </trkpt>
      <trkpt lat="44.73775" lon="0.90026">
        <ele>160.68</ele>
        <time>2014-08-17T08:19:58Z</time>
      </trkpt>
      <trkpt lat="44.73772" lon="0.90014">
        <ele>165</ele>
        <time>2014-08-17T08:20:09Z</time>
      </trkpt>
      <trkpt lat="44.73773" lon="0.89999">
        <ele>163.08</ele>
        <time>2014-08-17T08:20:22Z</time>
      </trkpt>
      <trkpt lat="44.73773" lon="0.8999">
        <ele>163.08</ele>
        <time>2014-08-17T08:20:25Z</time>
      </trkpt>
      <trkpt lat="44.7377" lon="0.89982">
        <ele>164.52</ele>
        <time>2014-08-17T08:20:28Z</time>
      </trkpt>
      <trkpt lat="44.73767" lon="0.89965">
        <ele>166.93</ele>
        <time>2014-08-17T08:20:34Z</time>
      </trkpt>
      <trkpt lat="44.73757" lon="0.89953">
        <ele>168.37</ele>
        <time>2014-08-17T08:20:39Z</time>
      </trkpt>
      <trkpt lat="44.73728" lon="0.89924">
        <ele>173.17</ele>
        <time>2014-08-17T08:20:53Z</time>
      </trkpt>
      <trkpt lat="44.73709" lon="0.89909">
        <ele>178.46</ele>
        <time>2014-08-17T08:21:03Z</time>
      </trkpt>
      <trkpt lat="44.73688" lon="0.89888">
        <ele>182.79</ele>
        <time>2014-08-17T08:21:14Z</time>
      </trkpt>
      <trkpt lat="44.73683" lon="0.89884">
        <ele>183.75</ele>
        <time>2014-08-17T08:21:19Z</time>
      </trkpt>
      <trkpt lat="44.73664" lon="0.8987">
        <ele>187.11</ele>
        <time>2014-08-17T08:21:31Z</time>
      </trkpt>
      <trkpt lat="44.73652" lon="0.89859">
        <ele>188.08</ele>
        <time>2014-08-17T08:21:40Z</time>
      </trkpt>
      <trkpt lat="44.73649" lon="0.89879">
        <ele>185.67</ele>
        <time>2014-08-17T08:21:50Z</time>
      </trkpt>
      <trkpt lat="44.73645" lon="0.89895">
        <ele>185.67</ele>
        <time>2014-08-17T08:21:57Z</time>
      </trkpt>
      <trkpt lat="44.73634" lon="0.89918">
        <ele>186.63</ele>
        <time>2014-08-17T08:22:08Z</time>
      </trkpt>
      <trkpt lat="44.73609" lon="0.89956">
        <ele>190</ele>
        <time>2014-08-17T08:22:23Z</time>
      </trkpt>
      <trkpt lat="44.73593" lon="0.8997">
        <ele>193.36</ele>
        <time>2014-08-17T08:22:34Z</time>
      </trkpt>
      <trkpt lat="44.73573" lon="0.89995">
        <ele>196.25</ele>
        <time>2014-08-17T08:22:45Z</time>
      </trkpt>
      <trkpt lat="44.7356" lon="0.90016">
        <ele>196.73</ele>
        <time>2014-08-17T08:22:49Z</time>
      </trkpt>
      <trkpt lat="44.73556" lon="0.90029">
        <ele>197.21</ele>
        <time>2014-08-17T08:22:51Z</time>
      </trkpt>
      <trkpt lat="44.73557" lon="0.90081">
        <ele>195.77</ele>
        <time>2014-08-17T08:23:00Z</time>
      </trkpt>
      <trkpt lat="44.7356" lon="0.90092">
        <ele>195.28</ele>
        <time>2014-08-17T08:23:03Z</time>
      </trkpt>
      <trkpt lat="44.73561" lon="0.90143">
        <ele>194.32</ele>
        <time>2014-08-17T08:23:13Z</time>
      </trkpt>
      <trkpt lat="44.73569" lon="0.90185">
        <ele>190.48</ele>
        <time>2014-08-17T08:23:21Z</time>
      </trkpt>
      <trkpt lat="44.73544" lon="0.90199">
        <ele>186.63</ele>
        <time>2014-08-17T08:23:26Z</time>
      </trkpt>
      <trkpt lat="44.73508" lon="0.90247">
        <ele>179.42</ele>
        <time>2014-08-17T08:23:34Z</time>
      </trkpt>
      <trkpt lat="44.73503" lon="0.90308">
        <ele>176.06</ele>
        <time>2014-08-17T08:23:45Z</time>
      </trkpt>
      <trkpt lat="44.73501" lon="0.90348">
        <ele>175.58</ele>
        <time>2014-08-17T08:23:54Z</time>
      </trkpt>
      <trkpt lat="44.73491" lon="0.90388">
        <ele>174.62</ele>
        <time>2014-08-17T08:24:05Z</time>
      </trkpt>
      <trkpt lat="44.73491" lon="0.90392">
        <ele>174.14</ele>
        <time>2014-08-17T08:24:06Z</time>
      </trkpt>
      <trkpt lat="44.73484" lon="0.90402">
        <ele>173.66</ele>
        <time>2014-08-17T08:24:11Z</time>
      </trkpt>
      <trkpt lat="44.73478" lon="0.9042">
        <ele>173.66</ele>
        <time>2014-08-17T08:24:18Z</time>
      </trkpt>
      <trkpt lat="44.73475" lon="0.90427">
        <ele>173.17</ele>
        <time>2014-08-17T08:24:21Z</time>
      </trkpt>
      <trkpt lat="44.73466" lon="0.9044">
        <ele>173.66</ele>
        <time>2014-08-17T08:24:29Z</time>
      </trkpt>
      <trkpt lat="44.73463" lon="0.90448">
        <ele>173.17</ele>
        <time>2014-08-17T08:24:33Z</time>
      </trkpt>
      <trkpt lat="44.73459" lon="0.90453">
        <ele>172.69</ele>
        <time>2014-08-17T08:24:36Z</time>
      </trkpt>
      <trkpt lat="44.73452" lon="0.90462">
        <ele>171.73</ele>
        <time>2014-08-17T08:24:41Z</time>
      </trkpt>
      <trkpt lat="44.7341" lon="0.90483">
        <ele>181.83</ele>
        <time>2014-08-17T08:24:55Z</time>
      </trkpt>
      <trkpt lat="44.73378" lon="0.90502">
        <ele>183.27</ele>
        <time>2014-08-17T08:25:06Z</time>
      </trkpt>
      <trkpt lat="44.73351" lon="0.90535">
        <ele>183.27</ele>
        <time>2014-08-17T08:25:18Z</time>
      </trkpt>
      <trkpt lat="44.73347" lon="0.90542">
        <ele>184.23</ele>
        <time>2014-08-17T08:25:20Z</time>
      </trkpt>
      <trkpt lat="44.73333" lon="0.90541">
        <ele>185.19</ele>
        <time>2014-08-17T08:25:25Z</time>
      </trkpt>
      <trkpt lat="44.73313" lon="0.90523">
        <ele>186.63</ele>
        <time>2014-08-17T08:25:36Z</time>
      </trkpt>
      <trkpt lat="44.73296" lon="0.9051">
        <ele>189.04</ele>
        <time>2014-08-17T08:25:45Z</time>
      </trkpt>
      <trkpt lat="44.73274" lon="0.905">
        <ele>192.4</ele>
        <time>2014-08-17T08:25:59Z</time>
      </trkpt>
      <trkpt lat="44.73248" lon="0.90487">
        <ele>196.25</ele>
        <time>2014-08-17T08:26:15Z</time>
      </trkpt>
      <trkpt lat="44.73231" lon="0.90473">
        <ele>197.21</ele>
        <time>2014-08-17T08:26:27Z</time>
      </trkpt>
      <trkpt lat="44.73226" lon="0.90472">
        <ele>197.21</ele>
        <time>2014-08-17T08:26:30Z</time>
      </trkpt>
      <trkpt lat="44.73212" lon="0.90484">
        <ele>197.69</ele>
        <time>2014-08-17T08:26:40Z</time>
      </trkpt>
      <trkpt lat="44.73191" lon="0.90501">
        <ele>199.13</ele>
        <time>2014-08-17T08:26:52Z</time>
      </trkpt>
      <trkpt lat="44.73177" lon="0.90505">
        <ele>202.01</ele>
        <time>2014-08-17T08:26:59Z</time>
      </trkpt>
      <trkpt lat="44.73172" lon="0.90507">
        <ele>202.98</ele>
        <time>2014-08-17T08:27:02Z</time>
      </trkpt>
      <trkpt lat="44.73163" lon="0.90514">
        <ele>202.98</ele>
        <time>2014-08-17T08:27:06Z</time>
      </trkpt>
      <trkpt lat="44.73151" lon="0.90523">
        <ele>203.46</ele>
        <time>2014-08-17T08:27:11Z</time>
      </trkpt>
      <trkpt lat="44.73141" lon="0.90528">
        <ele>203.94</ele>
        <time>2014-08-17T08:27:16Z</time>
      </trkpt>
      <trkpt lat="44.73122" lon="0.90532">
        <ele>206.82</ele>
        <time>2014-08-17T08:27:24Z</time>
      </trkpt>
      <trkpt lat="44.73084" lon="0.9053">
        <ele>211.63</ele>
        <time>2014-08-17T08:27:34Z</time>
      </trkpt>
      <trkpt lat="44.73073" lon="0.90533">
        <ele>212.59</ele>
        <time>2014-08-17T08:27:38Z</time>
      </trkpt>
      <trkpt lat="44.7307" lon="0.90535">
        <ele>213.07</ele>
        <time>2014-08-17T08:27:40Z</time>
      </trkpt>
      <trkpt lat="44.73061" lon="0.90539">
        <ele>215.95</ele>
        <time>2014-08-17T08:27:53Z</time>
      </trkpt>
      <trkpt lat="44.73059" lon="0.90537">
        <ele>213.55</ele>
        <time>2014-08-17T08:28:16Z</time>
      </trkpt>
      <trkpt lat="44.73058" lon="0.90537">
        <ele>215.47</ele>
        <time>2014-08-17T08:28:37Z</time>
      </trkpt>
      <trkpt lat="44.73047" lon="0.90521">
        <ele>210.67</ele>
        <time>2014-08-17T08:28:43Z</time>
      </trkpt>
      <trkpt lat="44.73043" lon="0.90498">
        <ele>207.78</ele>
        <time>2014-08-17T08:28:47Z</time>
      </trkpt>
      <trkpt lat="44.73041" lon="0.90473">
        <ele>206.34</ele>
        <time>2014-08-17T08:28:50Z</time>
      </trkpt>
      <trkpt lat="44.73061" lon="0.90372">
        <ele>200.09</ele>
        <time>2014-08-17T08:29:00Z</time>
      </trkpt>
      <trkpt lat="44.73113" lon="0.90283">
        <ele>197.69</ele>
        <time>2014-08-17T08:29:11Z</time>
      </trkpt>
      <trkpt lat="44.73152" lon="0.90226">
        <ele>199.13</ele>
        <time>2014-08-17T08:29:21Z</time>
      </trkpt>
      <trkpt lat="44.73187" lon="0.9019">
        <ele>202.98</ele>
        <time>2014-08-17T08:29:32Z</time>
      </trkpt>
      <trkpt lat="44.73208" lon="0.9017">
        <ele>203.94</ele>
        <time>2014-08-17T08:29:41Z</time>
      </trkpt>
      <trkpt lat="44.7324" lon="0.90156">
        <ele>203.46</ele>
        <time>2014-08-17T08:29:53Z</time>
      </trkpt>
      <trkpt lat="44.73271" lon="0.90149">
        <ele>203.94</ele>
        <time>2014-08-17T08:30:02Z</time>
      </trkpt>
      <trkpt lat="44.73283" lon="0.90139">
        <ele>204.9</ele>
        <time>2014-08-17T08:30:06Z</time>
      </trkpt>
      <trkpt lat="44.73291" lon="0.90093">
        <ele>204.9</ele>
        <time>2014-08-17T08:30:14Z</time>
      </trkpt>
      <trkpt lat="44.73314" lon="0.90037">
        <ele>202.49</ele>
        <time>2014-08-17T08:30:22Z</time>
      </trkpt>
      <trkpt lat="44.73325" lon="0.89983">
        <ele>202.49</ele>
        <time>2014-08-17T08:30:30Z</time>
      </trkpt>
      <trkpt lat="44.73342" lon="0.8994">
        <ele>201.05</ele>
        <time>2014-08-17T08:30:38Z</time>
      </trkpt>
      <trkpt lat="44.73353" lon="0.8993">
        <ele>201.05</ele>
        <time>2014-08-17T08:30:41Z</time>
      </trkpt>
      <trkpt lat="44.73368" lon="0.89894">
        <ele>200.09</ele>
        <time>2014-08-17T08:30:47Z</time>
      </trkpt>
      <trkpt lat="44.73379" lon="0.89852">
        <ele>199.61</ele>
        <time>2014-08-17T08:30:53Z</time>
      </trkpt>
      <trkpt lat="44.73403" lon="0.89808">
        <ele>199.13</ele>
        <time>2014-08-17T08:31:01Z</time>
      </trkpt>
      <trkpt lat="44.73424" lon="0.89771">
        <ele>199.13</ele>
        <time>2014-08-17T08:31:08Z</time>
      </trkpt>
      <trkpt lat="44.73427" lon="0.89767">
        <ele>199.61</ele>
        <time>2014-08-17T08:31:09Z</time>
      </trkpt>
      <trkpt lat="44.73428" lon="0.89762">
        <ele>199.61</ele>
        <time>2014-08-17T08:31:10Z</time>
      </trkpt>
      <trkpt lat="44.73433" lon="0.89739">
        <ele>200.09</ele>
        <time>2014-08-17T08:31:15Z</time>
      </trkpt>
      <trkpt lat="44.73433" lon="0.89733">
        <ele>200.09</ele>
        <time>2014-08-17T08:31:16Z</time>
      </trkpt>
      <trkpt lat="44.73433" lon="0.89727">
        <ele>199.61</ele>
        <time>2014-08-17T08:31:17Z</time>
      </trkpt>
      <trkpt lat="44.73431" lon="0.89702">
        <ele>199.61</ele>
        <time>2014-08-17T08:31:21Z</time>
      </trkpt>
      <trkpt lat="44.73431" lon="0.89695">
        <ele>199.61</ele>
        <time>2014-08-17T08:31:22Z</time>
      </trkpt>
      <trkpt lat="44.73432" lon="0.89689">
        <ele>199.13</ele>
        <time>2014-08-17T08:31:23Z</time>
      </trkpt>
      <trkpt lat="44.73433" lon="0.89683">
        <ele>199.13</ele>
        <time>2014-08-17T08:31:24Z</time>
      </trkpt>
      <trkpt lat="44.73434" lon="0.89678">
        <ele>199.61</ele>
        <time>2014-08-17T08:31:25Z</time>
      </trkpt>
      <trkpt lat="44.73441" lon="0.89624">
        <ele>198.17</ele>
        <time>2014-08-17T08:31:34Z</time>
      </trkpt>
      <trkpt lat="44.73443" lon="0.89619">
        <ele>198.17</ele>
        <time>2014-08-17T08:31:35Z</time>
      </trkpt>
      <trkpt lat="44.73446" lon="0.89613">
        <ele>197.69</ele>
        <time>2014-08-17T08:31:36Z</time>
      </trkpt>
      <trkpt lat="44.7345" lon="0.89608">
        <ele>197.69</ele>
        <time>2014-08-17T08:31:37Z</time>
      </trkpt>
      <trkpt lat="44.73454" lon="0.89604">
        <ele>197.69</ele>
        <time>2014-08-17T08:31:38Z</time>
      </trkpt>
      <trkpt lat="44.73458" lon="0.896">
        <ele>197.69</ele>
        <time>2014-08-17T08:31:39Z</time>
      </trkpt>
      <trkpt lat="44.73463" lon="0.89596">
        <ele>197.21</ele>
        <time>2014-08-17T08:31:40Z</time>
      </trkpt>
      <trkpt lat="44.73468" lon="0.89593">
        <ele>197.21</ele>
        <time>2014-08-17T08:31:41Z</time>
      </trkpt>
      <trkpt lat="44.735" lon="0.89565">
        <ele>196.73</ele>
        <time>2014-08-17T08:31:48Z</time>
      </trkpt>
      <trkpt lat="44.73537" lon="0.89555">
        <ele>196.73</ele>
        <time>2014-08-17T08:31:56Z</time>
      </trkpt>
      <trkpt lat="44.73551" lon="0.89554">
        <ele>196.73</ele>
        <time>2014-08-17T08:31:59Z</time>
      </trkpt>
      <trkpt lat="44.73566" lon="0.89549">
        <ele>196.73</ele>
        <time>2014-08-17T08:32:02Z</time>
      </trkpt>
      <trkpt lat="44.73604" lon="0.89533">
        <ele>195.28</ele>
        <time>2014-08-17T08:32:10Z</time>
      </trkpt>
      <trkpt lat="44.73676" lon="0.89478">
        <ele>193.36</ele>
        <time>2014-08-17T08:32:22Z</time>
      </trkpt>
      <trkpt lat="44.73719" lon="0.89451">
        <ele>193.84</ele>
        <time>2014-08-17T08:32:29Z</time>
      </trkpt>
      <trkpt lat="44.73749" lon="0.89452">
        <ele>194.32</ele>
        <time>2014-08-17T08:32:34Z</time>
      </trkpt>
      <trkpt lat="44.73784" lon="0.89445">
        <ele>193.84</ele>
        <time>2014-08-17T08:32:39Z</time>
      </trkpt>
      <trkpt lat="44.73831" lon="0.89422">
        <ele>191.44</ele>
        <time>2014-08-17T08:32:45Z</time>
      </trkpt>
      <trkpt lat="44.739" lon="0.89359">
        <ele>186.15</ele>
        <time>2014-08-17T08:32:54Z</time>
      </trkpt>
      <trkpt lat="44.73906" lon="0.89358">
        <ele>185.67</ele>
        <time>2014-08-17T08:32:55Z</time>
      </trkpt>
      <trkpt lat="44.73955" lon="0.89362">
        <ele>181.35</ele>
        <time>2014-08-17T08:33:02Z</time>
      </trkpt>
      <trkpt lat="44.73962" lon="0.89359">
        <ele>180.38</ele>
        <time>2014-08-17T08:33:03Z</time>
      </trkpt>
      <trkpt lat="44.73968" lon="0.89355">
        <ele>179.9</ele>
        <time>2014-08-17T08:33:04Z</time>
      </trkpt>
      <trkpt lat="44.73976" lon="0.89347">
        <ele>178.46</ele>
        <time>2014-08-17T08:33:05Z</time>
      </trkpt>
      <trkpt lat="44.73984" lon="0.89338">
        <ele>177.5</ele>
        <time>2014-08-17T08:33:06Z</time>
      </trkpt>
      <trkpt lat="44.73989" lon="0.89328">
        <ele>177.02</ele>
        <time>2014-08-17T08:33:07Z</time>
      </trkpt>
      <trkpt lat="44.73994" lon="0.89317">
        <ele>176.06</ele>
        <time>2014-08-17T08:33:08Z</time>
      </trkpt>
      <trkpt lat="44.73998" lon="0.89306">
        <ele>175.1</ele>
        <time>2014-08-17T08:33:09Z</time>
      </trkpt>
      <trkpt lat="44.74001" lon="0.89295">
        <ele>174.62</ele>
        <time>2014-08-17T08:33:10Z</time>
      </trkpt>
      <trkpt lat="44.74003" lon="0.89283">
        <ele>174.62</ele>
        <time>2014-08-17T08:33:11Z</time>
      </trkpt>
      <trkpt lat="44.74004" lon="0.89269">
        <ele>174.14</ele>
        <time>2014-08-17T08:33:12Z</time>
      </trkpt>
      <trkpt lat="44.74014" lon="0.89187">
        <ele>172.69</ele>
        <time>2014-08-17T08:33:18Z</time>
      </trkpt>
      <trkpt lat="44.74016" lon="0.89174">
        <ele>172.21</ele>
        <time>2014-08-17T08:33:19Z</time>
      </trkpt>
      <trkpt lat="44.7402" lon="0.89162">
        <ele>171.25</ele>
        <time>2014-08-17T08:33:20Z</time>
      </trkpt>
      <trkpt lat="44.74024" lon="0.89153">
        <ele>170.29</ele>
        <time>2014-08-17T08:33:21Z</time>
      </trkpt>
      <trkpt lat="44.74027" lon="0.89148">
        <ele>168.85</ele>
        <time>2014-08-17T08:33:22Z</time>
      </trkpt>
      <trkpt lat="44.74029" lon="0.89146">
        <ele>167.41</ele>
        <time>2014-08-17T08:33:23Z</time>
      </trkpt>
      <trkpt lat="44.74032" lon="0.89146">
        <ele>165.96</ele>
        <time>2014-08-17T08:33:24Z</time>
      </trkpt>
      <trkpt lat="44.74033" lon="0.89147">
        <ele>164.52</ele>
        <time>2014-08-17T08:33:25Z</time>
      </trkpt>
      <trkpt lat="44.74035" lon="0.89149">
        <ele>163.56</ele>
        <time>2014-08-17T08:33:26Z</time>
      </trkpt>
      <trkpt lat="44.74037" lon="0.8915">
        <ele>163.08</ele>
        <time>2014-08-17T08:33:27Z</time>
      </trkpt>
      <trkpt lat="44.74039" lon="0.89151">
        <ele>162.6</ele>
        <time>2014-08-17T08:33:28Z</time>
      </trkpt>
      <trkpt lat="44.74042" lon="0.89152">
        <ele>161.64</ele>
        <time>2014-08-17T08:33:29Z</time>
      </trkpt>
      <trkpt lat="44.74046" lon="0.89153">
        <ele>161.16</ele>
        <time>2014-08-17T08:33:30Z</time>
      </trkpt>
      <trkpt lat="44.7405" lon="0.89154">
        <ele>160.2</ele>
        <time>2014-08-17T08:33:31Z</time>
      </trkpt>
      <trkpt lat="44.74069" lon="0.89156">
        <ele>156.83</ele>
        <time>2014-08-17T08:33:36Z</time>
      </trkpt>
      <trkpt lat="44.74111" lon="0.8915">
        <ele>151.06</ele>
        <time>2014-08-17T08:33:45Z</time>
      </trkpt>
      <trkpt lat="44.74129" lon="0.8915">
        <ele>147.7</ele>
        <time>2014-08-17T08:33:49Z</time>
      </trkpt>
      <trkpt lat="44.74133" lon="0.89147">
        <ele>146.74</ele>
        <time>2014-08-17T08:33:50Z</time>
      </trkpt>
      <trkpt lat="44.74136" lon="0.89144">
        <ele>146.26</ele>
        <time>2014-08-17T08:33:51Z</time>
      </trkpt>
      <trkpt lat="44.74139" lon="0.89139">
        <ele>145.3</ele>
        <time>2014-08-17T08:33:52Z</time>
      </trkpt>
      <trkpt lat="44.74141" lon="0.89134">
        <ele>144.82</ele>
        <time>2014-08-17T08:33:53Z</time>
      </trkpt>
      <trkpt lat="44.74144" lon="0.89128">
        <ele>143.85</ele>
        <time>2014-08-17T08:33:54Z</time>
      </trkpt>
      <trkpt lat="44.74147" lon="0.89121">
        <ele>142.89</ele>
        <time>2014-08-17T08:33:55Z</time>
      </trkpt>
      <trkpt lat="44.7415" lon="0.89113">
        <ele>141.93</ele>
        <time>2014-08-17T08:33:56Z</time>
      </trkpt>
      <trkpt lat="44.74151" lon="0.89105">
        <ele>140.97</ele>
        <time>2014-08-17T08:33:57Z</time>
      </trkpt>
      <trkpt lat="44.74151" lon="0.89097">
        <ele>140.01</ele>
        <time>2014-08-17T08:33:58Z</time>
      </trkpt>
      <trkpt lat="44.74151" lon="0.89087">
        <ele>139.53</ele>
        <time>2014-08-17T08:33:59Z</time>
      </trkpt>
      <trkpt lat="44.74151" lon="0.89006">
        <ele>132.8</ele>
        <time>2014-08-17T08:34:08Z</time>
      </trkpt>
      <trkpt lat="44.74152" lon="0.88995">
        <ele>131.84</ele>
        <time>2014-08-17T08:34:11Z</time>
      </trkpt>
      <trkpt lat="44.74157" lon="0.88995">
        <ele>131.36</ele>
        <time>2014-08-17T08:34:13Z</time>
      </trkpt>
      <trkpt lat="44.74159" lon="0.88997">
        <ele>130.88</ele>
        <time>2014-08-17T08:34:14Z</time>
      </trkpt>
      <trkpt lat="44.7416" lon="0.89">
        <ele>130.88</ele>
        <time>2014-08-17T08:34:15Z</time>
      </trkpt>
      <trkpt lat="44.74162" lon="0.89004">
        <ele>130.4</ele>
        <time>2014-08-17T08:34:16Z</time>
      </trkpt>
      <trkpt lat="44.74162" lon="0.89008">
        <ele>130.4</ele>
        <time>2014-08-17T08:34:17Z</time>
      </trkpt>
      <trkpt lat="44.74178" lon="0.89049">
        <ele>127.99</ele>
        <time>2014-08-17T08:34:29Z</time>
      </trkpt>
      <trkpt lat="44.74203" lon="0.89087">
        <ele>128.95</ele>
        <time>2014-08-17T08:34:41Z</time>
      </trkpt>
      <trkpt lat="44.74218" lon="0.89101">
        <ele>128.95</ele>
        <time>2014-08-17T08:34:50Z</time>
      </trkpt>
      <trkpt lat="44.74219" lon="0.89101">
        <ele>128.95</ele>
        <time>2014-08-17T08:34:51Z</time>
      </trkpt>
      <trkpt lat="44.74221" lon="0.891">
        <ele>128.95</ele>
        <time>2014-08-17T08:34:52Z</time>
      </trkpt>
      <trkpt lat="44.74222" lon="0.891">
        <ele>128.95</ele>
        <time>2014-08-17T08:34:53Z</time>
      </trkpt>
      <trkpt lat="44.74224" lon="0.891">
        <ele>128.95</ele>
        <time>2014-08-17T08:34:54Z</time>
      </trkpt>
      <trkpt lat="44.74227" lon="0.891">
        <ele>129.92</ele>
        <time>2014-08-17T08:34:57Z</time>
      </trkpt>
      <trkpt lat="44.74228" lon="0.89101">
        <ele>129.92</ele>
        <time>2014-08-17T08:34:58Z</time>
      </trkpt>
      <trkpt lat="44.74229" lon="0.89102">
        <ele>129.92</ele>
        <time>2014-08-17T08:34:59Z</time>
      </trkpt>
      <trkpt lat="44.74231" lon="0.89102">
        <ele>130.4</ele>
        <time>2014-08-17T08:35:00Z</time>
      </trkpt>
      <trkpt lat="44.74232" lon="0.89103">
        <ele>130.88</ele>
        <time>2014-08-17T08:35:01Z</time>
      </trkpt>
      <trkpt lat="44.74234" lon="0.89103">
        <ele>131.36</ele>
        <time>2014-08-17T08:35:02Z</time>
      </trkpt>
      <trkpt lat="44.74235" lon="0.89104">
        <ele>131.84</ele>
        <time>2014-08-17T08:35:03Z</time>
      </trkpt>
      <trkpt lat="44.74237" lon="0.89105">
        <ele>132.32</ele>
        <time>2014-08-17T08:35:04Z</time>
      </trkpt>
      <trkpt lat="44.74238" lon="0.89106">
        <ele>132.32</ele>
        <time>2014-08-17T08:35:05Z</time>
      </trkpt>
      <trkpt lat="44.74252" lon="0.89123">
        <ele>138.09</ele>
        <time>2014-08-17T08:35:18Z</time>
      </trkpt>
      <trkpt lat="44.74265" lon="0.89125">
        <ele>142.89</ele>
        <time>2014-08-17T08:35:28Z</time>
      </trkpt>
      <trkpt lat="44.74282" lon="0.89132">
        <ele>149.62</ele>
        <time>2014-08-17T08:35:41Z</time>
      </trkpt>
      <trkpt lat="44.74298" lon="0.89134">
        <ele>155.87</ele>
        <time>2014-08-17T08:35:54Z</time>
      </trkpt>
      <trkpt lat="44.74307" lon="0.8914">
        <ele>159.24</ele>
        <time>2014-08-17T08:36:03Z</time>
      </trkpt>
      <trkpt lat="44.74323" lon="0.89152">
        <ele>163.56</ele>
        <time>2014-08-17T08:36:17Z</time>
      </trkpt>
      <trkpt lat="44.74339" lon="0.89165">
        <ele>170.29</ele>
        <time>2014-08-17T08:36:32Z</time>
      </trkpt>
      <trkpt lat="44.74346" lon="0.89171">
        <ele>172.69</ele>
        <time>2014-08-17T08:36:38Z</time>
      </trkpt>
      <trkpt lat="44.74351" lon="0.89176">
        <ele>174.62</ele>
        <time>2014-08-17T08:36:43Z</time>
      </trkpt>
      <trkpt lat="44.74356" lon="0.8918">
        <ele>177.02</ele>
        <time>2014-08-17T08:36:48Z</time>
      </trkpt>
      <trkpt lat="44.74366" lon="0.89187">
        <ele>180.87</ele>
        <time>2014-08-17T08:36:57Z</time>
      </trkpt>
      <trkpt lat="44.74384" lon="0.89203">
        <ele>182.31</ele>
        <time>2014-08-17T08:37:13Z</time>
      </trkpt>
      <trkpt lat="44.74397" lon="0.89226">
        <ele>182.31</ele>
        <time>2014-08-17T08:37:28Z</time>
      </trkpt>
      <trkpt lat="44.74408" lon="0.89243">
        <ele>183.75</ele>
        <time>2014-08-17T08:37:41Z</time>
      </trkpt>
      <trkpt lat="44.74411" lon="0.89247">
        <ele>184.23</ele>
        <time>2014-08-17T08:37:44Z</time>
      </trkpt>
      <trkpt lat="44.74425" lon="0.89266">
        <ele>181.83</ele>
        <time>2014-08-17T08:37:58Z</time>
      </trkpt>
      <trkpt lat="44.74437" lon="0.89294">
        <ele>184.71</ele>
        <time>2014-08-17T08:38:15Z</time>
      </trkpt>
      <trkpt lat="44.74445" lon="0.89321">
        <ele>187.11</ele>
        <time>2014-08-17T08:38:29Z</time>
      </trkpt>
      <trkpt lat="44.74459" lon="0.89351">
        <ele>189.04</ele>
        <time>2014-08-17T08:38:44Z</time>
      </trkpt>
      <trkpt lat="44.74483" lon="0.8936">
        <ele>188.56</ele>
        <time>2014-08-17T08:38:57Z</time>
      </trkpt>
      <trkpt lat="44.74491" lon="0.89361">
        <ele>189.04</ele>
        <time>2014-08-17T08:39:01Z</time>
      </trkpt>
      <trkpt lat="44.74498" lon="0.89359">
        <ele>189.52</ele>
        <time>2014-08-17T08:39:05Z</time>
      </trkpt>
      <trkpt lat="44.74528" lon="0.89343">
        <ele>191.92</ele>
        <time>2014-08-17T08:39:21Z</time>
      </trkpt>
      <trkpt lat="44.7454" lon="0.89345">
        <ele>192.4</ele>
        <time>2014-08-17T08:39:26Z</time>
      </trkpt>
      <trkpt lat="44.74544" lon="0.89366">
        <ele>192.88</ele>
        <time>2014-08-17T08:39:32Z</time>
      </trkpt>
      <trkpt lat="44.7453" lon="0.89426">
        <ele>193.84</ele>
        <time>2014-08-17T08:39:48Z</time>
      </trkpt>
      <trkpt lat="44.74548" lon="0.8945">
        <ele>194.32</ele>
        <time>2014-08-17T08:39:58Z</time>
      </trkpt>
      <trkpt lat="44.74573" lon="0.89464">
        <ele>202.98</ele>
        <time>2014-08-17T08:40:10Z</time>
      </trkpt>
      <trkpt lat="44.74598" lon="0.89483">
        <ele>212.11</ele>
        <time>2014-08-17T08:40:22Z</time>
      </trkpt>
      <trkpt lat="44.74622" lon="0.89499">
        <ele>217.88</ele>
        <time>2014-08-17T08:40:32Z</time>
      </trkpt>
      <trkpt lat="44.74655" lon="0.89514">
        <ele>223.64</ele>
        <time>2014-08-17T08:40:45Z</time>
      </trkpt>
      <trkpt lat="44.7468" lon="0.89532">
        <ele>224.12</ele>
        <time>2014-08-17T08:40:57Z</time>
      </trkpt>
      <trkpt lat="44.74689" lon="0.89538">
        <ele>222.2</ele>
        <time>2014-08-17T08:41:10Z</time>
      </trkpt>
      <trkpt lat="44.74689" lon="0.8954">
        <ele>215.47</ele>
        <time>2014-08-17T08:41:21Z</time>
      </trkpt>
      <trkpt lat="44.74687" lon="0.89543">
        <ele>217.4</ele>
        <time>2014-08-17T08:42:00Z</time>
      </trkpt>
      <trkpt lat="44.74685" lon="0.89539">
        <ele>219.32</ele>
        <time>2014-08-17T08:42:37Z</time>
      </trkpt>
      <trkpt lat="44.74688" lon="0.89536">
        <ele>221.24</ele>
        <time>2014-08-17T08:43:10Z</time>
      </trkpt>
      <trkpt lat="44.74691" lon="0.8954">
        <ele>219.8</ele>
        <time>2014-08-17T08:43:43Z</time>
      </trkpt>
      <trkpt lat="44.74688" lon="0.89536">
        <ele>210.67</ele>
        <time>2014-08-17T08:44:21Z</time>
      </trkpt>
      <trkpt lat="44.7469" lon="0.89537">
        <ele>208.26</ele>
        <time>2014-08-17T08:44:57Z</time>
      </trkpt>
      <trkpt lat="44.74689" lon="0.89537">
        <ele>214.99</ele>
        <time>2014-08-17T08:45:37Z</time>
      </trkpt>
      <trkpt lat="44.74692" lon="0.89541">
        <ele>214.51</ele>
        <time>2014-08-17T08:46:20Z</time>
      </trkpt>
      <trkpt lat="44.74694" lon="0.89542">
        <ele>215.95</ele>
        <time>2014-08-17T08:46:57Z</time>
      </trkpt>
      <trkpt lat="44.74687" lon="0.89538">
        <ele>210.67</ele>
        <time>2014-08-17T08:47:33Z</time>
      </trkpt>
      <trkpt lat="44.74684" lon="0.89541">
        <ele>209.7</ele>
        <time>2014-08-17T08:48:07Z</time>
      </trkpt>
      <trkpt lat="44.74686" lon="0.89539">
        <ele>209.22</ele>
        <time>2014-08-17T08:48:39Z</time>
      </trkpt>
      <trkpt lat="44.74689" lon="0.89538">
        <ele>209.7</ele>
        <time>2014-08-17T08:48:43Z</time>
      </trkpt>
      <trkpt lat="44.74711" lon="0.89506">
        <ele>208.26</ele>
        <time>2014-08-17T08:48:53Z</time>
      </trkpt>
      <trkpt lat="44.74749" lon="0.89429">
        <ele>205.38</ele>
        <time>2014-08-17T08:49:09Z</time>
      </trkpt>
      <trkpt lat="44.74763" lon="0.89396">
        <ele>204.9</ele>
        <time>2014-08-17T08:49:15Z</time>
      </trkpt>
      <trkpt lat="44.74765" lon="0.89391">
        <ele>204.9</ele>
        <time>2014-08-17T08:49:16Z</time>
      </trkpt>
      <trkpt lat="44.74767" lon="0.89386">
        <ele>204.9</ele>
        <time>2014-08-17T08:49:17Z</time>
      </trkpt>
      <trkpt lat="44.7477" lon="0.89369">
        <ele>203.94</ele>
        <time>2014-08-17T08:49:20Z</time>
      </trkpt>
      <trkpt lat="44.7478" lon="0.89325">
        <ele>202.98</ele>
        <time>2014-08-17T08:49:27Z</time>
      </trkpt>
      <trkpt lat="44.74782" lon="0.89312">
        <ele>202.98</ele>
        <time>2014-08-17T08:49:29Z</time>
      </trkpt>
      <trkpt lat="44.74784" lon="0.89306">
        <ele>202.98</ele>
        <time>2014-08-17T08:49:30Z</time>
      </trkpt>
      <trkpt lat="44.74785" lon="0.89299">
        <ele>202.98</ele>
        <time>2014-08-17T08:49:31Z</time>
      </trkpt>
      <trkpt lat="44.74786" lon="0.89293">
        <ele>202.98</ele>
        <time>2014-08-17T08:49:32Z</time>
      </trkpt>
      <trkpt lat="44.74787" lon="0.89286">
        <ele>202.98</ele>
        <time>2014-08-17T08:49:33Z</time>
      </trkpt>
      <trkpt lat="44.74788" lon="0.89279">
        <ele>203.46</ele>
        <time>2014-08-17T08:49:34Z</time>
      </trkpt>
      <trkpt lat="44.74789" lon="0.89272">
        <ele>203.46</ele>
        <time>2014-08-17T08:49:35Z</time>
      </trkpt>
      <trkpt lat="44.74791" lon="0.8919">
        <ele>204.42</ele>
        <time>2014-08-17T08:49:46Z</time>
      </trkpt>
      <trkpt lat="44.74793" lon="0.89183">
        <ele>204.42</ele>
        <time>2014-08-17T08:49:47Z</time>
      </trkpt>
      <trkpt lat="44.74795" lon="0.89176">
        <ele>203.94</ele>
        <time>2014-08-17T08:49:48Z</time>
      </trkpt>
      <trkpt lat="44.74798" lon="0.89169">
        <ele>203.94</ele>
        <time>2014-08-17T08:49:49Z</time>
      </trkpt>
      <trkpt lat="44.748" lon="0.89162">
        <ele>203.94</ele>
        <time>2014-08-17T08:49:50Z</time>
      </trkpt>
      <trkpt lat="44.74806" lon="0.89149">
        <ele>203.46</ele>
        <time>2014-08-17T08:49:52Z</time>
      </trkpt>
      <trkpt lat="44.74809" lon="0.89143">
        <ele>202.98</ele>
        <time>2014-08-17T08:49:53Z</time>
      </trkpt>
      <trkpt lat="44.74857" lon="0.89038">
        <ele>196.73</ele>
        <time>2014-08-17T08:50:06Z</time>
      </trkpt>
      <trkpt lat="44.74861" lon="0.8903">
        <ele>196.25</ele>
        <time>2014-08-17T08:50:07Z</time>
      </trkpt>
      <trkpt lat="44.74866" lon="0.89022">
        <ele>196.25</ele>
        <time>2014-08-17T08:50:08Z</time>
      </trkpt>
      <trkpt lat="44.74871" lon="0.89015">
        <ele>195.77</ele>
        <time>2014-08-17T08:50:09Z</time>
      </trkpt>
      <trkpt lat="44.74942" lon="0.88912">
        <ele>190.48</ele>
        <time>2014-08-17T08:50:23Z</time>
      </trkpt>
      <trkpt lat="44.74972" lon="0.8888">
        <ele>188.56</ele>
        <time>2014-08-17T08:50:28Z</time>
      </trkpt>
      <trkpt lat="44.75003" lon="0.88864">
        <ele>187.11</ele>
        <time>2014-08-17T08:50:33Z</time>
      </trkpt>
      <trkpt lat="44.75008" lon="0.88863">
        <ele>186.63</ele>
        <time>2014-08-17T08:50:34Z</time>
      </trkpt>
      <trkpt lat="44.75011" lon="0.88863">
        <ele>186.63</ele>
        <time>2014-08-17T08:50:35Z</time>
      </trkpt>
      <trkpt lat="44.75014" lon="0.88864">
        <ele>186.15</ele>
        <time>2014-08-17T08:50:36Z</time>
      </trkpt>
      <trkpt lat="44.75017" lon="0.88864">
        <ele>185.67</ele>
        <time>2014-08-17T08:50:37Z</time>
      </trkpt>
      <trkpt lat="44.7502" lon="0.88864">
        <ele>185.67</ele>
        <time>2014-08-17T08:50:38Z</time>
      </trkpt>
      <trkpt lat="44.75022" lon="0.88862">
        <ele>185.19</ele>
        <time>2014-08-17T08:50:39Z</time>
      </trkpt>
      <trkpt lat="44.75025" lon="0.8886">
        <ele>185.19</ele>
        <time>2014-08-17T08:50:40Z</time>
      </trkpt>
      <trkpt lat="44.75029" lon="0.88857">
        <ele>185.19</ele>
        <time>2014-08-17T08:50:41Z</time>
      </trkpt>
      <trkpt lat="44.75033" lon="0.88855">
        <ele>184.71</ele>
        <time>2014-08-17T08:50:42Z</time>
      </trkpt>
      <trkpt lat="44.75037" lon="0.88854">
        <ele>184.23</ele>
        <time>2014-08-17T08:50:43Z</time>
      </trkpt>
      <trkpt lat="44.75042" lon="0.88852">
        <ele>184.23</ele>
        <time>2014-08-17T08:50:44Z</time>
      </trkpt>
      <trkpt lat="44.75047" lon="0.88849">
        <ele>184.23</ele>
        <time>2014-08-17T08:50:45Z</time>
      </trkpt>
      <trkpt lat="44.75069" lon="0.8883">
        <ele>183.27</ele>
        <time>2014-08-17T08:50:50Z</time>
      </trkpt>
      <trkpt lat="44.75074" lon="0.88827">
        <ele>183.27</ele>
        <time>2014-08-17T08:50:51Z</time>
      </trkpt>
      <trkpt lat="44.75079" lon="0.88825">
        <ele>183.27</ele>
        <time>2014-08-17T08:50:52Z</time>
      </trkpt>
      <trkpt lat="44.75084" lon="0.88823">
        <ele>183.27</ele>
        <time>2014-08-17T08:50:53Z</time>
      </trkpt>
      <trkpt lat="44.75089" lon="0.88819">
        <ele>183.27</ele>
        <time>2014-08-17T08:50:54Z</time>
      </trkpt>
      <trkpt lat="44.75103" lon="0.88808">
        <ele>181.83</ele>
        <time>2014-08-17T08:50:57Z</time>
      </trkpt>
      <trkpt lat="44.75107" lon="0.88803">
        <ele>181.83</ele>
        <time>2014-08-17T08:50:58Z</time>
      </trkpt>
      <trkpt lat="44.75136" lon="0.88779">
        <ele>180.87</ele>
        <time>2014-08-17T08:51:07Z</time>
      </trkpt>
      <trkpt lat="44.7514" lon="0.88778">
        <ele>180.38</ele>
        <time>2014-08-17T08:51:08Z</time>
      </trkpt>
      <trkpt lat="44.75145" lon="0.88777">
        <ele>180.38</ele>
        <time>2014-08-17T08:51:09Z</time>
      </trkpt>
      <trkpt lat="44.7515" lon="0.88775">
        <ele>180.38</ele>
        <time>2014-08-17T08:51:10Z</time>
      </trkpt>
      <trkpt lat="44.75154" lon="0.88772">
        <ele>179.9</ele>
        <time>2014-08-17T08:51:11Z</time>
      </trkpt>
      <trkpt lat="44.75172" lon="0.88743">
        <ele>177.98</ele>
        <time>2014-08-17T08:51:17Z</time>
      </trkpt>
      <trkpt lat="44.75189" lon="0.88712">
        <ele>176.06</ele>
        <time>2014-08-17T08:51:28Z</time>
      </trkpt>
      <trkpt lat="44.7519" lon="0.88711">
        <ele>176.06</ele>
        <time>2014-08-17T08:51:53Z</time>
      </trkpt>
      <trkpt lat="44.75189" lon="0.88711">
        <ele>175.1</ele>
        <time>2014-08-17T08:52:10Z</time>
      </trkpt>
      <trkpt lat="44.7519" lon="0.88713">
        <ele>175.1</ele>
        <time>2014-08-17T08:52:13Z</time>
      </trkpt>
      <trkpt lat="44.75175" lon="0.88742">
        <ele>175.58</ele>
        <time>2014-08-17T08:52:23Z</time>
      </trkpt>
      <trkpt lat="44.75141" lon="0.88779">
        <ele>177.5</ele>
        <time>2014-08-17T08:52:37Z</time>
      </trkpt>
      <trkpt lat="44.75111" lon="0.888">
        <ele>179.9</ele>
        <time>2014-08-17T08:52:50Z</time>
      </trkpt>
      <trkpt lat="44.75074" lon="0.8883">
        <ele>182.31</ele>
        <time>2014-08-17T08:53:04Z</time>
      </trkpt>
      <trkpt lat="44.75038" lon="0.88855">
        <ele>182.79</ele>
        <time>2014-08-17T08:53:16Z</time>
      </trkpt>
      <trkpt lat="44.75024" lon="0.88861">
        <ele>184.71</ele>
        <time>2014-08-17T08:53:21Z</time>
      </trkpt>
      <trkpt lat="44.75023" lon="0.88864">
        <ele>184.71</ele>
        <time>2014-08-17T08:53:22Z</time>
      </trkpt>
      <trkpt lat="44.75024" lon="0.88867">
        <ele>185.19</ele>
        <time>2014-08-17T08:53:23Z</time>
      </trkpt>
      <trkpt lat="44.75025" lon="0.88871">
        <ele>185.19</ele>
        <time>2014-08-17T08:53:24Z</time>
      </trkpt>
      <trkpt lat="44.75027" lon="0.88874">
        <ele>185.19</ele>
        <time>2014-08-17T08:53:25Z</time>
      </trkpt>
      <trkpt lat="44.75029" lon="0.88877">
        <ele>185.19</ele>
        <time>2014-08-17T08:53:26Z</time>
      </trkpt>
      <trkpt lat="44.7507" lon="0.88936">
        <ele>181.35</ele>
        <time>2014-08-17T08:53:36Z</time>
      </trkpt>
      <trkpt lat="44.75102" lon="0.88979">
        <ele>177.5</ele>
        <time>2014-08-17T08:53:41Z</time>
      </trkpt>
      <trkpt lat="44.7511" lon="0.88984">
        <ele>176.54</ele>
        <time>2014-08-17T08:53:42Z</time>
      </trkpt>
      <trkpt lat="44.75119" lon="0.88988">
        <ele>175.58</ele>
        <time>2014-08-17T08:53:43Z</time>
      </trkpt>
      <trkpt lat="44.75129" lon="0.88989">
        <ele>174.62</ele>
        <time>2014-08-17T08:53:44Z</time>
      </trkpt>
      <trkpt lat="44.75139" lon="0.88989">
        <ele>173.17</ele>
        <time>2014-08-17T08:53:45Z</time>
      </trkpt>
      <trkpt lat="44.75149" lon="0.88988">
        <ele>172.21</ele>
        <time>2014-08-17T08:53:46Z</time>
      </trkpt>
      <trkpt lat="44.75238" lon="0.88983">
        <ele>162.6</ele>
        <time>2014-08-17T08:53:55Z</time>
      </trkpt>
      <trkpt lat="44.75245" lon="0.88981">
        <ele>161.64</ele>
        <time>2014-08-17T08:53:56Z</time>
      </trkpt>
      <trkpt lat="44.75251" lon="0.88977">
        <ele>160.68</ele>
        <time>2014-08-17T08:53:57Z</time>
      </trkpt>
      <trkpt lat="44.75257" lon="0.8897">
        <ele>159.24</ele>
        <time>2014-08-17T08:53:58Z</time>
      </trkpt>
      <trkpt lat="44.75261" lon="0.8896">
        <ele>158.27</ele>
        <time>2014-08-17T08:53:59Z</time>
      </trkpt>
      <trkpt lat="44.75265" lon="0.88948">
        <ele>156.83</ele>
        <time>2014-08-17T08:54:00Z</time>
      </trkpt>
      <trkpt lat="44.75268" lon="0.88935">
        <ele>155.39</ele>
        <time>2014-08-17T08:54:01Z</time>
      </trkpt>
      <trkpt lat="44.75271" lon="0.88921">
        <ele>153.95</ele>
        <time>2014-08-17T08:54:02Z</time>
      </trkpt>
      <trkpt lat="44.75275" lon="0.88907">
        <ele>152.51</ele>
        <time>2014-08-17T08:54:03Z</time>
      </trkpt>
      <trkpt lat="44.75281" lon="0.88892">
        <ele>150.58</ele>
        <time>2014-08-17T08:54:04Z</time>
      </trkpt>
      <trkpt lat="44.75288" lon="0.88878">
        <ele>149.14</ele>
        <time>2014-08-17T08:54:05Z</time>
      </trkpt>
      <trkpt lat="44.7536" lon="0.8877">
        <ele>138.09</ele>
        <time>2014-08-17T08:54:14Z</time>
      </trkpt>
      <trkpt lat="44.75385" lon="0.88742">
        <ele>132.8</ele>
        <time>2014-08-17T08:54:21Z</time>
      </trkpt>
      <trkpt lat="44.75391" lon="0.88741">
        <ele>131.84</ele>
        <time>2014-08-17T08:54:22Z</time>
      </trkpt>
      <trkpt lat="44.75397" lon="0.88739">
        <ele>131.36</ele>
        <time>2014-08-17T08:54:23Z</time>
      </trkpt>
      <trkpt lat="44.75403" lon="0.88735">
        <ele>130.88</ele>
        <time>2014-08-17T08:54:24Z</time>
      </trkpt>
      <trkpt lat="44.75409" lon="0.88731">
        <ele>130.4</ele>
        <time>2014-08-17T08:54:25Z</time>
      </trkpt>
      <trkpt lat="44.75414" lon="0.88726">
        <ele>129.92</ele>
        <time>2014-08-17T08:54:26Z</time>
      </trkpt>
      <trkpt lat="44.75418" lon="0.88721">
        <ele>129.43</ele>
        <time>2014-08-17T08:54:27Z</time>
      </trkpt>
      <trkpt lat="44.7542" lon="0.88715">
        <ele>128.95</ele>
        <time>2014-08-17T08:54:28Z</time>
      </trkpt>
      <trkpt lat="44.75423" lon="0.88709">
        <ele>128.47</ele>
        <time>2014-08-17T08:54:29Z</time>
      </trkpt>
      <trkpt lat="44.75426" lon="0.88703">
        <ele>127.99</ele>
        <time>2014-08-17T08:54:30Z</time>
      </trkpt>
      <trkpt lat="44.75429" lon="0.88697">
        <ele>127.99</ele>
        <time>2014-08-17T08:54:31Z</time>
      </trkpt>
      <trkpt lat="44.75432" lon="0.8869">
        <ele>127.51</ele>
        <time>2014-08-17T08:54:32Z</time>
      </trkpt>
      <trkpt lat="44.75434" lon="0.88683">
        <ele>127.03</ele>
        <time>2014-08-17T08:54:33Z</time>
      </trkpt>
      <trkpt lat="44.75435" lon="0.88679">
        <ele>126.55</ele>
        <time>2014-08-17T08:54:34Z</time>
      </trkpt>
      <trkpt lat="44.75436" lon="0.88675">
        <ele>126.07</ele>
        <time>2014-08-17T08:54:35Z</time>
      </trkpt>
      <trkpt lat="44.75437" lon="0.88671">
        <ele>126.07</ele>
        <time>2014-08-17T08:54:36Z</time>
      </trkpt>
      <trkpt lat="44.75435" lon="0.88631">
        <ele>124.63</ele>
        <time>2014-08-17T08:54:47Z</time>
      </trkpt>
      <trkpt lat="44.75432" lon="0.88593">
        <ele>123.19</ele>
        <time>2014-08-17T08:54:53Z</time>
      </trkpt>
      <trkpt lat="44.7543" lon="0.88557">
        <ele>122.71</ele>
        <time>2014-08-17T08:54:58Z</time>
      </trkpt>
      <trkpt lat="44.7543" lon="0.8855">
        <ele>122.71</ele>
        <time>2014-08-17T08:54:59Z</time>
      </trkpt>
      <trkpt lat="44.75429" lon="0.88526">
        <ele>121.74</ele>
        <time>2014-08-17T08:55:02Z</time>
      </trkpt>
      <trkpt lat="44.75429" lon="0.88509">
        <ele>120.78</ele>
        <time>2014-08-17T08:55:04Z</time>
      </trkpt>
      <trkpt lat="44.75429" lon="0.885">
        <ele>120.3</ele>
        <time>2014-08-17T08:55:05Z</time>
      </trkpt>
      <trkpt lat="44.75426" lon="0.88435">
        <ele>115.98</ele>
        <time>2014-08-17T08:55:12Z</time>
      </trkpt>
      <trkpt lat="44.75424" lon="0.88427">
        <ele>115.01</ele>
        <time>2014-08-17T08:55:13Z</time>
      </trkpt>
      <trkpt lat="44.75421" lon="0.8842">
        <ele>114.53</ele>
        <time>2014-08-17T08:55:14Z</time>
      </trkpt>
      <trkpt lat="44.75418" lon="0.88412">
        <ele>114.05</ele>
        <time>2014-08-17T08:55:15Z</time>
      </trkpt>
      <trkpt lat="44.75414" lon="0.88404">
        <ele>113.57</ele>
        <time>2014-08-17T08:55:16Z</time>
      </trkpt>
      <trkpt lat="44.75411" lon="0.88396">
        <ele>112.61</ele>
        <time>2014-08-17T08:55:17Z</time>
      </trkpt>
      <trkpt lat="44.75388" lon="0.88341">
        <ele>107.32</ele>
        <time>2014-08-17T08:55:25Z</time>
      </trkpt>
      <trkpt lat="44.75385" lon="0.88336">
        <ele>106.84</ele>
        <time>2014-08-17T08:55:26Z</time>
      </trkpt>
      <trkpt lat="44.75383" lon="0.88331">
        <ele>106.36</ele>
        <time>2014-08-17T08:55:27Z</time>
      </trkpt>
      <trkpt lat="44.75371" lon="0.88316">
        <ele>106.84</ele>
        <time>2014-08-17T08:55:30Z</time>
      </trkpt>
      <trkpt lat="44.75357" lon="0.88303">
        <ele>109.73</ele>
        <time>2014-08-17T08:55:37Z</time>
      </trkpt>
      <trkpt lat="44.75348" lon="0.88274">
        <ele>111.17</ele>
        <time>2014-08-17T08:55:47Z</time>
      </trkpt>
      <trkpt lat="44.75341" lon="0.88242">
        <ele>111.17</ele>
        <time>2014-08-17T08:56:01Z</time>
      </trkpt>
      <trkpt lat="44.75324" lon="0.88201">
        <ele>112.13</ele>
        <time>2014-08-17T08:56:19Z</time>
      </trkpt>
      <trkpt lat="44.75318" lon="0.88166">
        <ele>114.05</ele>
        <time>2014-08-17T08:56:33Z</time>
      </trkpt>
      <trkpt lat="44.75338" lon="0.88122">
        <ele>117.9</ele>
        <time>2014-08-17T08:56:50Z</time>
      </trkpt>
      <trkpt lat="44.75354" lon="0.88066">
        <ele>114.53</ele>
        <time>2014-08-17T08:57:06Z</time>
      </trkpt>
      <trkpt lat="44.75342" lon="0.87989">
        <ele>118.86</ele>
        <time>2014-08-17T08:57:24Z</time>
      </trkpt>
      <trkpt lat="44.75321" lon="0.87966">
        <ele>122.22</ele>
        <time>2014-08-17T08:57:35Z</time>
      </trkpt>
      <trkpt lat="44.75276" lon="0.87993">
        <ele>126.07</ele>
        <time>2014-08-17T08:57:51Z</time>
      </trkpt>
      <trkpt lat="44.75237" lon="0.88026">
        <ele>128.95</ele>
        <time>2014-08-17T08:58:06Z</time>
      </trkpt>
      <trkpt lat="44.75208" lon="0.88049">
        <ele>131.36</ele>
        <time>2014-08-17T08:58:20Z</time>
      </trkpt>
      <trkpt lat="44.75187" lon="0.8806">
        <ele>135.2</ele>
        <time>2014-08-17T08:58:32Z</time>
      </trkpt>
      <trkpt lat="44.75179" lon="0.88052">
        <ele>136.64</ele>
        <time>2014-08-17T08:58:39Z</time>
      </trkpt>
      <trkpt lat="44.75177" lon="0.8805">
        <ele>137.13</ele>
        <time>2014-08-17T08:58:41Z</time>
      </trkpt>
      <trkpt lat="44.7516" lon="0.88026">
        <ele>138.09</ele>
        <time>2014-08-17T08:58:54Z</time>
      </trkpt>
      <trkpt lat="44.75146" lon="0.87987">
        <ele>137.13</ele>
        <time>2014-08-17T08:59:06Z</time>
      </trkpt>
      <trkpt lat="44.75123" lon="0.8792">
        <ele>134.72</ele>
        <time>2014-08-17T08:59:17Z</time>
      </trkpt>
      <trkpt lat="44.75122" lon="0.87912">
        <ele>134.24</ele>
        <time>2014-08-17T08:59:18Z</time>
      </trkpt>
      <trkpt lat="44.75123" lon="0.87883">
        <ele>133.28</ele>
        <time>2014-08-17T08:59:22Z</time>
      </trkpt>
      <trkpt lat="44.75125" lon="0.87861">
        <ele>131.84</ele>
        <time>2014-08-17T08:59:25Z</time>
      </trkpt>
      <trkpt lat="44.75122" lon="0.87808">
        <ele>130.4</ele>
        <time>2014-08-17T08:59:32Z</time>
      </trkpt>
      <trkpt lat="44.75109" lon="0.87715">
        <ele>127.99</ele>
        <time>2014-08-17T08:59:44Z</time>
      </trkpt>
      <trkpt lat="44.75108" lon="0.87702">
        <ele>127.99</ele>
        <time>2014-08-17T08:59:46Z</time>
      </trkpt>
      <trkpt lat="44.7511" lon="0.87602">
        <ele>126.07</ele>
        <time>2014-08-17T08:59:57Z</time>
      </trkpt>
      <trkpt lat="44.75105" lon="0.87524">
        <ele>122.71</ele>
        <time>2014-08-17T09:00:03Z</time>
      </trkpt>
      <trkpt lat="44.75099" lon="0.87483">
        <ele>119.82</ele>
        <time>2014-08-17T09:00:07Z</time>
      </trkpt>
      <trkpt lat="44.75093" lon="0.87459">
        <ele>117.9</ele>
        <time>2014-08-17T09:00:10Z</time>
      </trkpt>
      <trkpt lat="44.75087" lon="0.87424">
        <ele>114.53</ele>
        <time>2014-08-17T09:00:14Z</time>
      </trkpt>
      <trkpt lat="44.7509" lon="0.8739">
        <ele>112.13</ele>
        <time>2014-08-17T09:00:18Z</time>
      </trkpt>
      <trkpt lat="44.75105" lon="0.8733">
        <ele>107.81</ele>
        <time>2014-08-17T09:00:25Z</time>
      </trkpt>
      <trkpt lat="44.75105" lon="0.87319">
        <ele>107.32</ele>
        <time>2014-08-17T09:00:26Z</time>
      </trkpt>
      <trkpt lat="44.75105" lon="0.87261">
        <ele>106.84</ele>
        <time>2014-08-17T09:00:32Z</time>
      </trkpt>
      <trkpt lat="44.75105" lon="0.87253">
        <ele>106.84</ele>
        <time>2014-08-17T09:00:33Z</time>
      </trkpt>
      <trkpt lat="44.75105" lon="0.87208">
        <ele>108.29</ele>
        <time>2014-08-17T09:00:39Z</time>
      </trkpt>
      <trkpt lat="44.75106" lon="0.87201">
        <ele>108.77</ele>
        <time>2014-08-17T09:00:40Z</time>
      </trkpt>
      <trkpt lat="44.75106" lon="0.87195">
        <ele>109.25</ele>
        <time>2014-08-17T09:00:41Z</time>
      </trkpt>
      <trkpt lat="44.75122" lon="0.87101">
        <ele>107.32</ele>
        <time>2014-08-17T09:00:52Z</time>
      </trkpt>
      <trkpt lat="44.75123" lon="0.87065">
        <ele>107.32</ele>
        <time>2014-08-17T09:00:56Z</time>
      </trkpt>
      <trkpt lat="44.75126" lon="0.87034">
        <ele>107.32</ele>
        <time>2014-08-17T09:01:00Z</time>
      </trkpt>
      <trkpt lat="44.75132" lon="0.86979">
        <ele>108.77</ele>
        <time>2014-08-17T09:01:08Z</time>
      </trkpt>
      <trkpt lat="44.75142" lon="0.86922">
        <ele>111.65</ele>
        <time>2014-08-17T09:01:19Z</time>
      </trkpt>
      <trkpt lat="44.7515" lon="0.86864">
        <ele>114.53</ele>
        <time>2014-08-17T09:01:31Z</time>
      </trkpt>
      <trkpt lat="44.75155" lon="0.86818">
        <ele>112.61</ele>
        <time>2014-08-17T09:01:38Z</time>
      </trkpt>
      <trkpt lat="44.75155" lon="0.86811">
        <ele>112.13</ele>
        <time>2014-08-17T09:01:39Z</time>
      </trkpt>
      <trkpt lat="44.75155" lon="0.86803">
        <ele>111.65</ele>
        <time>2014-08-17T09:01:40Z</time>
      </trkpt>
      <trkpt lat="44.75155" lon="0.86797">
        <ele>110.69</ele>
        <time>2014-08-17T09:01:41Z</time>
      </trkpt>
      <trkpt lat="44.75156" lon="0.86792">
        <ele>109.73</ele>
        <time>2014-08-17T09:01:42Z</time>
      </trkpt>
      <trkpt lat="44.75156" lon="0.86786">
        <ele>108.77</ele>
        <time>2014-08-17T09:01:44Z</time>
      </trkpt>
      <trkpt lat="44.75156" lon="0.86781">
        <ele>106.84</ele>
        <time>2014-08-17T09:01:58Z</time>
      </trkpt>
      <trkpt lat="44.75157" lon="0.86781">
        <ele>109.25</ele>
        <time>2014-08-17T09:02:18Z</time>
      </trkpt>
      <trkpt lat="44.75158" lon="0.86781">
        <ele>105.4</ele>
        <time>2014-08-17T09:02:42Z</time>
      </trkpt>
      <trkpt lat="44.75158" lon="0.8678">
        <ele>106.84</ele>
        <time>2014-08-17T09:03:09Z</time>
      </trkpt>
      <trkpt lat="44.7516" lon="0.86779">
        <ele>107.81</ele>
        <time>2014-08-17T09:03:31Z</time>
      </trkpt>
      <trkpt lat="44.75161" lon="0.86779">
        <ele>107.81</ele>
        <time>2014-08-17T09:03:32Z</time>
      </trkpt>
      <trkpt lat="44.75175" lon="0.86752">
        <ele>108.77</ele>
        <time>2014-08-17T09:03:44Z</time>
      </trkpt>
      <trkpt lat="44.75173" lon="0.86721">
        <ele>111.17</ele>
        <time>2014-08-17T09:03:56Z</time>
      </trkpt>
      <trkpt lat="44.75172" lon="0.86719">
        <ele>111.17</ele>
        <time>2014-08-17T09:03:57Z</time>
      </trkpt>
      <trkpt lat="44.75168" lon="0.86714">
        <ele>111.65</ele>
        <time>2014-08-17T09:04:00Z</time>
      </trkpt>
      <trkpt lat="44.75162" lon="0.86708">
        <ele>112.13</ele>
        <time>2014-08-17T09:04:04Z</time>
      </trkpt>
      <trkpt lat="44.7516" lon="0.86707">
        <ele>112.61</ele>
        <time>2014-08-17T09:04:05Z</time>
      </trkpt>
      <trkpt lat="44.75134" lon="0.86688">
        <ele>116.46</ele>
        <time>2014-08-17T09:04:21Z</time>
      </trkpt>
      <trkpt lat="44.75109" lon="0.8667">
        <ele>123.67</ele>
        <time>2014-08-17T09:04:36Z</time>
      </trkpt>
      <trkpt lat="44.75083" lon="0.86652">
        <ele>127.03</ele>
        <time>2014-08-17T09:04:52Z</time>
      </trkpt>
      <trkpt lat="44.75052" lon="0.86641">
        <ele>133.76</ele>
        <time>2014-08-17T09:05:07Z</time>
      </trkpt>
      <trkpt lat="44.75017" lon="0.86629">
        <ele>138.09</ele>
        <time>2014-08-17T09:05:23Z</time>
      </trkpt>
      <trkpt lat="44.74981" lon="0.86623">
        <ele>138.57</ele>
        <time>2014-08-17T09:05:40Z</time>
      </trkpt>
      <trkpt lat="44.74944" lon="0.86614">
        <ele>140.49</ele>
        <time>2014-08-17T09:05:57Z</time>
      </trkpt>
      <trkpt lat="44.74918" lon="0.86596">
        <ele>143.85</ele>
        <time>2014-08-17T09:06:11Z</time>
      </trkpt>
      <trkpt lat="44.74891" lon="0.86581">
        <ele>147.7</ele>
        <time>2014-08-17T09:06:26Z</time>
      </trkpt>
      <trkpt lat="44.74861" lon="0.86572">
        <ele>153.47</ele>
        <time>2014-08-17T09:06:41Z</time>
      </trkpt>
      <trkpt lat="44.74839" lon="0.86562">
        <ele>156.35</ele>
        <time>2014-08-17T09:06:52Z</time>
      </trkpt>
      <trkpt lat="44.74839" lon="0.8656">
        <ele>156.35</ele>
        <time>2014-08-17T09:06:53Z</time>
      </trkpt>
      <trkpt lat="44.7484" lon="0.86557">
        <ele>156.35</ele>
        <time>2014-08-17T09:06:54Z</time>
      </trkpt>
      <trkpt lat="44.74842" lon="0.86555">
        <ele>156.35</ele>
        <time>2014-08-17T09:06:55Z</time>
      </trkpt>
      <trkpt lat="44.74843" lon="0.86553">
        <ele>156.35</ele>
        <time>2014-08-17T09:06:56Z</time>
      </trkpt>
      <trkpt lat="44.74845" lon="0.86551">
        <ele>156.35</ele>
        <time>2014-08-17T09:06:57Z</time>
      </trkpt>
      <trkpt lat="44.74848" lon="0.86547">
        <ele>156.83</ele>
        <time>2014-08-17T09:06:59Z</time>
      </trkpt>
      <trkpt lat="44.74863" lon="0.86517">
        <ele>158.27</ele>
        <time>2014-08-17T09:07:13Z</time>
      </trkpt>
      <trkpt lat="44.74869" lon="0.86485">
        <ele>157.79</ele>
        <time>2014-08-17T09:07:26Z</time>
      </trkpt>
      <trkpt lat="44.7487" lon="0.86483">
        <ele>157.79</ele>
        <time>2014-08-17T09:07:27Z</time>
      </trkpt>
      <trkpt lat="44.74874" lon="0.86479">
        <ele>158.27</ele>
        <time>2014-08-17T09:07:40Z</time>
      </trkpt>
      <trkpt lat="44.74876" lon="0.86476">
        <ele>156.35</ele>
        <time>2014-08-17T09:07:57Z</time>
      </trkpt>
      <trkpt lat="44.74876" lon="0.86476">
        <ele>155.39</ele>
        <time>2014-08-17T09:08:02Z</time>
      </trkpt>
      <trkpt lat="44.74876" lon="0.86474">
        <ele>154.91</ele>
        <time>2014-08-17T09:08:04Z</time>
      </trkpt>
      <trkpt lat="44.74871" lon="0.86465">
        <ele>153.95</ele>
        <time>2014-08-17T09:08:10Z</time>
      </trkpt>
      <trkpt lat="44.74849" lon="0.8644">
        <ele>150.58</ele>
        <time>2014-08-17T09:08:21Z</time>
      </trkpt>
      <trkpt lat="44.74846" lon="0.86436">
        <ele>150.58</ele>
        <time>2014-08-17T09:08:23Z</time>
      </trkpt>
      <trkpt lat="44.74837" lon="0.86425">
        <ele>150.58</ele>
        <time>2014-08-17T09:08:28Z</time>
      </trkpt>
      <trkpt lat="44.74813" lon="0.86393">
        <ele>153.47</ele>
        <time>2014-08-17T09:08:42Z</time>
      </trkpt>
      <trkpt lat="44.74798" lon="0.86369">
        <ele>156.35</ele>
        <time>2014-08-17T09:08:54Z</time>
      </trkpt>
      <trkpt lat="44.74795" lon="0.86355">
        <ele>157.31</ele>
        <time>2014-08-17T09:09:00Z</time>
      </trkpt>
      <trkpt lat="44.7479" lon="0.86326">
        <ele>162.12</ele>
        <time>2014-08-17T09:09:11Z</time>
      </trkpt>
      <trkpt lat="44.74788" lon="0.86316">
        <ele>164.52</ele>
        <time>2014-08-17T09:09:15Z</time>
      </trkpt>
      <trkpt lat="44.74787" lon="0.86293">
        <ele>169.33</ele>
        <time>2014-08-17T09:09:29Z</time>
      </trkpt>
      <trkpt lat="44.74789" lon="0.86278">
        <ele>169.33</ele>
        <time>2014-08-17T09:09:42Z</time>
      </trkpt>
      <trkpt lat="44.74787" lon="0.86275">
        <ele>169.33</ele>
        <time>2014-08-17T09:09:56Z</time>
      </trkpt>
      <trkpt lat="44.74785" lon="0.86261">
        <ele>170.29</ele>
        <time>2014-08-17T09:10:05Z</time>
      </trkpt>
      <trkpt lat="44.74786" lon="0.86252">
        <ele>171.73</ele>
        <time>2014-08-17T09:10:10Z</time>
      </trkpt>
      <trkpt lat="44.74788" lon="0.86231">
        <ele>176.06</ele>
        <time>2014-08-17T09:10:24Z</time>
      </trkpt>
      <trkpt lat="44.74789" lon="0.86228">
        <ele>176.54</ele>
        <time>2014-08-17T09:10:50Z</time>
      </trkpt>
      <trkpt lat="44.74786" lon="0.86199">
        <ele>174.14</ele>
        <time>2014-08-17T09:11:00Z</time>
      </trkpt>
      <trkpt lat="44.74776" lon="0.86155">
        <ele>173.66</ele>
        <time>2014-08-17T09:11:12Z</time>
      </trkpt>
      <trkpt lat="44.74772" lon="0.86144">
        <ele>173.66</ele>
        <time>2014-08-17T09:11:15Z</time>
      </trkpt>
      <trkpt lat="44.74744" lon="0.861">
        <ele>172.69</ele>
        <time>2014-08-17T09:11:28Z</time>
      </trkpt>
      <trkpt lat="44.74708" lon="0.86065">
        <ele>173.17</ele>
        <time>2014-08-17T09:11:40Z</time>
      </trkpt>
      <trkpt lat="44.74655" lon="0.86034">
        <ele>173.17</ele>
        <time>2014-08-17T09:11:57Z</time>
      </trkpt>
      <trkpt lat="44.74615" lon="0.85994">
        <ele>173.17</ele>
        <time>2014-08-17T09:12:12Z</time>
      </trkpt>
      <trkpt lat="44.74597" lon="0.85968">
        <ele>174.14</ele>
        <time>2014-08-17T09:12:21Z</time>
      </trkpt>
      <trkpt lat="44.74597" lon="0.85965">
        <ele>174.62</ele>
        <time>2014-08-17T09:12:22Z</time>
      </trkpt>
      <trkpt lat="44.74598" lon="0.85962">
        <ele>174.62</ele>
        <time>2014-08-17T09:12:23Z</time>
      </trkpt>
      <trkpt lat="44.74615" lon="0.85922">
        <ele>174.14</ele>
        <time>2014-08-17T09:12:34Z</time>
      </trkpt>
      <trkpt lat="44.74618" lon="0.85918">
        <ele>174.14</ele>
        <time>2014-08-17T09:12:35Z</time>
      </trkpt>
      <trkpt lat="44.74621" lon="0.85913">
        <ele>173.66</ele>
        <time>2014-08-17T09:12:36Z</time>
      </trkpt>
      <trkpt lat="44.74622" lon="0.85891">
        <ele>173.66</ele>
        <time>2014-08-17T09:12:40Z</time>
      </trkpt>
      <trkpt lat="44.7462" lon="0.85888">
        <ele>174.14</ele>
        <time>2014-08-17T09:12:41Z</time>
      </trkpt>
      <trkpt lat="44.74617" lon="0.85886">
        <ele>173.66</ele>
        <time>2014-08-17T09:12:42Z</time>
      </trkpt>
      <trkpt lat="44.74614" lon="0.85885">
        <ele>173.66</ele>
        <time>2014-08-17T09:12:43Z</time>
      </trkpt>
      <trkpt lat="44.74611" lon="0.85884">
        <ele>174.14</ele>
        <time>2014-08-17T09:12:44Z</time>
      </trkpt>
      <trkpt lat="44.74608" lon="0.85883">
        <ele>174.14</ele>
        <time>2014-08-17T09:12:45Z</time>
      </trkpt>
      <trkpt lat="44.74577" lon="0.85873">
        <ele>176.06</ele>
        <time>2014-08-17T09:12:57Z</time>
      </trkpt>
      <trkpt lat="44.74572" lon="0.85847">
        <ele>176.06</ele>
        <time>2014-08-17T09:13:02Z</time>
      </trkpt>
      <trkpt lat="44.7457" lon="0.8584">
        <ele>175.58</ele>
        <time>2014-08-17T09:13:03Z</time>
      </trkpt>
      <trkpt lat="44.74567" lon="0.85833">
        <ele>175.1</ele>
        <time>2014-08-17T09:13:04Z</time>
      </trkpt>
      <trkpt lat="44.74547" lon="0.8579">
        <ele>171.25</ele>
        <time>2014-08-17T09:13:09Z</time>
      </trkpt>
      <trkpt lat="44.74541" lon="0.85783">
        <ele>170.29</ele>
        <time>2014-08-17T09:13:10Z</time>
      </trkpt>
      <trkpt lat="44.74534" lon="0.85777">
        <ele>168.85</ele>
        <time>2014-08-17T09:13:11Z</time>
      </trkpt>
      <trkpt lat="44.74526" lon="0.85772">
        <ele>167.89</ele>
        <time>2014-08-17T09:13:12Z</time>
      </trkpt>
      <trkpt lat="44.74517" lon="0.85768">
        <ele>166.93</ele>
        <time>2014-08-17T09:13:13Z</time>
      </trkpt>
      <trkpt lat="44.74421" lon="0.85704">
        <ele>153.47</ele>
        <time>2014-08-17T09:13:23Z</time>
      </trkpt>
      <trkpt lat="44.74412" lon="0.85697">
        <ele>152.51</ele>
        <time>2014-08-17T09:13:24Z</time>
      </trkpt>
      <trkpt lat="44.74405" lon="0.85687">
        <ele>152.03</ele>
        <time>2014-08-17T09:13:25Z</time>
      </trkpt>
      <trkpt lat="44.74399" lon="0.85677">
        <ele>151.54</ele>
        <time>2014-08-17T09:13:26Z</time>
      </trkpt>
      <trkpt lat="44.74397" lon="0.85665">
        <ele>151.54</ele>
        <time>2014-08-17T09:13:27Z</time>
      </trkpt>
      <trkpt lat="44.74396" lon="0.85654">
        <ele>151.06</ele>
        <time>2014-08-17T09:13:28Z</time>
      </trkpt>
      <trkpt lat="44.74397" lon="0.85643">
        <ele>151.06</ele>
        <time>2014-08-17T09:13:29Z</time>
      </trkpt>
      <trkpt lat="44.74399" lon="0.85633">
        <ele>151.06</ele>
        <time>2014-08-17T09:13:30Z</time>
      </trkpt>
      <trkpt lat="44.74408" lon="0.85545">
        <ele>154.91</ele>
        <time>2014-08-17T09:13:41Z</time>
      </trkpt>
      <trkpt lat="44.74406" lon="0.85521">
        <ele>156.35</ele>
        <time>2014-08-17T09:13:45Z</time>
      </trkpt>
      <trkpt lat="44.74392" lon="0.8544">
        <ele>160.68</ele>
        <time>2014-08-17T09:14:01Z</time>
      </trkpt>
      <trkpt lat="44.74382" lon="0.85385">
        <ele>161.64</ele>
        <time>2014-08-17T09:14:13Z</time>
      </trkpt>
      <trkpt lat="44.74378" lon="0.8532">
        <ele>159.72</ele>
        <time>2014-08-17T09:14:22Z</time>
      </trkpt>
      <trkpt lat="44.7438" lon="0.85178">
        <ele>156.35</ele>
        <time>2014-08-17T09:14:38Z</time>
      </trkpt>
      <trkpt lat="44.74363" lon="0.85015">
        <ele>151.54</ele>
        <time>2014-08-17T09:14:53Z</time>
      </trkpt>
      <trkpt lat="44.74351" lon="0.84867">
        <ele>146.74</ele>
        <time>2014-08-17T09:15:06Z</time>
      </trkpt>
      <trkpt lat="44.74353" lon="0.84831">
        <ele>145.78</ele>
        <time>2014-08-17T09:15:09Z</time>
      </trkpt>
      <trkpt lat="44.74372" lon="0.84648">
        <ele>140.49</ele>
        <time>2014-08-17T09:15:24Z</time>
      </trkpt>
      <trkpt lat="44.74374" lon="0.84481">
        <ele>133.76</ele>
        <time>2014-08-17T09:15:36Z</time>
      </trkpt>
      <trkpt lat="44.74385" lon="0.84309">
        <ele>123.67</ele>
        <time>2014-08-17T09:15:47Z</time>
      </trkpt>
      <trkpt lat="44.74388" lon="0.84294">
        <ele>122.71</ele>
        <time>2014-08-17T09:15:48Z</time>
      </trkpt>
      <trkpt lat="44.74393" lon="0.8428">
        <ele>121.74</ele>
        <time>2014-08-17T09:15:49Z</time>
      </trkpt>
      <trkpt lat="44.74398" lon="0.84266">
        <ele>121.26</ele>
        <time>2014-08-17T09:15:50Z</time>
      </trkpt>
      <trkpt lat="44.74404" lon="0.84252">
        <ele>120.3</ele>
        <time>2014-08-17T09:15:51Z</time>
      </trkpt>
      <trkpt lat="44.74411" lon="0.8424">
        <ele>119.34</ele>
        <time>2014-08-17T09:15:52Z</time>
      </trkpt>
      <trkpt lat="44.74418" lon="0.84228">
        <ele>118.38</ele>
        <time>2014-08-17T09:15:53Z</time>
      </trkpt>
      <trkpt lat="44.74456" lon="0.84166">
        <ele>114.05</ele>
        <time>2014-08-17T09:15:58Z</time>
      </trkpt>
      <trkpt lat="44.74462" lon="0.84153">
        <ele>113.09</ele>
        <time>2014-08-17T09:15:59Z</time>
      </trkpt>
      <trkpt lat="44.74466" lon="0.84138">
        <ele>112.13</ele>
        <time>2014-08-17T09:16:00Z</time>
      </trkpt>
      <trkpt lat="44.74469" lon="0.84122">
        <ele>111.17</ele>
        <time>2014-08-17T09:16:01Z</time>
      </trkpt>
      <trkpt lat="44.74472" lon="0.84106">
        <ele>110.21</ele>
        <time>2014-08-17T09:16:02Z</time>
      </trkpt>
      <trkpt lat="44.74483" lon="0.84014">
        <ele>100.6</ele>
        <time>2014-08-17T09:16:09Z</time>
      </trkpt>
      <trkpt lat="44.74487" lon="0.83998">
        <ele>98.19</ele>
        <time>2014-08-17T09:16:11Z</time>
      </trkpt>
      <trkpt lat="44.74489" lon="0.83991">
        <ele>97.23</ele>
        <time>2014-08-17T09:16:12Z</time>
      </trkpt>
      <trkpt lat="44.74492" lon="0.83986">
        <ele>96.75</ele>
        <time>2014-08-17T09:16:13Z</time>
      </trkpt>
      <trkpt lat="44.74494" lon="0.83983">
        <ele>96.27</ele>
        <time>2014-08-17T09:16:14Z</time>
      </trkpt>
      <trkpt lat="44.74496" lon="0.8398">
        <ele>96.27</ele>
        <time>2014-08-17T09:16:15Z</time>
      </trkpt>
      <trkpt lat="44.74497" lon="0.83975">
        <ele>95.79</ele>
        <time>2014-08-17T09:16:16Z</time>
      </trkpt>
      <trkpt lat="44.74498" lon="0.83969">
        <ele>95.79</ele>
        <time>2014-08-17T09:16:17Z</time>
      </trkpt>
      <trkpt lat="44.74497" lon="0.83962">
        <ele>95.31</ele>
        <time>2014-08-17T09:16:18Z</time>
      </trkpt>
      <trkpt lat="44.74494" lon="0.83956">
        <ele>95.31</ele>
        <time>2014-08-17T09:16:19Z</time>
      </trkpt>
      <trkpt lat="44.7449" lon="0.8395">
        <ele>94.83</ele>
        <time>2014-08-17T09:16:20Z</time>
      </trkpt>
      <trkpt lat="44.74485" lon="0.83944">
        <ele>94.35</ele>
        <time>2014-08-17T09:16:21Z</time>
      </trkpt>
      <trkpt lat="44.74475" lon="0.83929">
        <ele>93.39</ele>
        <time>2014-08-17T09:16:23Z</time>
      </trkpt>
      <trkpt lat="44.74471" lon="0.8392">
        <ele>93.39</ele>
        <time>2014-08-17T09:16:24Z</time>
      </trkpt>
      <trkpt lat="44.74467" lon="0.83911">
        <ele>93.39</ele>
        <time>2014-08-17T09:16:25Z</time>
      </trkpt>
      <trkpt lat="44.74465" lon="0.839">
        <ele>92.9</ele>
        <time>2014-08-17T09:16:26Z</time>
      </trkpt>
      <trkpt lat="44.74463" lon="0.8389">
        <ele>93.39</ele>
        <time>2014-08-17T09:16:27Z</time>
      </trkpt>
      <trkpt lat="44.74462" lon="0.83879">
        <ele>93.39</ele>
        <time>2014-08-17T09:16:28Z</time>
      </trkpt>
      <trkpt lat="44.74461" lon="0.83869">
        <ele>92.9</ele>
        <time>2014-08-17T09:16:29Z</time>
      </trkpt>
      <trkpt lat="44.74447" lon="0.83799">
        <ele>93.87</ele>
        <time>2014-08-17T09:16:37Z</time>
      </trkpt>
      <trkpt lat="44.74445" lon="0.83794">
        <ele>93.87</ele>
        <time>2014-08-17T09:16:38Z</time>
      </trkpt>
      <trkpt lat="44.74422" lon="0.83768">
        <ele>99.15</ele>
        <time>2014-08-17T09:16:49Z</time>
      </trkpt>
      <trkpt lat="44.74397" lon="0.83735">
        <ele>104.44</ele>
        <time>2014-08-17T09:17:05Z</time>
      </trkpt>
      <trkpt lat="44.74388" lon="0.83687">
        <ele>103.96</ele>
        <time>2014-08-17T09:17:21Z</time>
      </trkpt>
      <trkpt lat="44.7438" lon="0.83654">
        <ele>100.11</ele>
        <time>2014-08-17T09:17:34Z</time>
      </trkpt>
      <trkpt lat="44.74368" lon="0.8362">
        <ele>103.96</ele>
        <time>2014-08-17T09:17:47Z</time>
      </trkpt>
      <trkpt lat="44.74354" lon="0.83584">
        <ele>113.09</ele>
        <time>2014-08-17T09:18:03Z</time>
      </trkpt>
      <trkpt lat="44.74345" lon="0.83552">
        <ele>114.53</ele>
        <time>2014-08-17T09:18:14Z</time>
      </trkpt>
      <trkpt lat="44.74344" lon="0.83544">
        <ele>115.01</ele>
        <time>2014-08-17T09:18:17Z</time>
      </trkpt>
      <trkpt lat="44.74343" lon="0.83541">
        <ele>115.01</ele>
        <time>2014-08-17T09:18:18Z</time>
      </trkpt>
      <trkpt lat="44.74342" lon="0.83539">
        <ele>115.01</ele>
        <time>2014-08-17T09:18:19Z</time>
      </trkpt>
      <trkpt lat="44.74341" lon="0.83537">
        <ele>115.01</ele>
        <time>2014-08-17T09:18:20Z</time>
      </trkpt>
      <trkpt lat="44.74341" lon="0.83534">
        <ele>115.5</ele>
        <time>2014-08-17T09:18:21Z</time>
      </trkpt>
      <trkpt lat="44.74328" lon="0.83495">
        <ele>116.94</ele>
        <time>2014-08-17T09:18:35Z</time>
      </trkpt>
      <trkpt lat="44.74305" lon="0.83458">
        <ele>119.34</ele>
        <time>2014-08-17T09:18:52Z</time>
      </trkpt>
      <trkpt lat="44.74276" lon="0.83433">
        <ele>118.38</ele>
        <time>2014-08-17T09:19:08Z</time>
      </trkpt>
      <trkpt lat="44.74248" lon="0.83417">
        <ele>118.86</ele>
        <time>2014-08-17T09:19:22Z</time>
      </trkpt>
      <trkpt lat="44.74211" lon="0.83405">
        <ele>128.47</ele>
        <time>2014-08-17T09:19:38Z</time>
      </trkpt>
      <trkpt lat="44.74176" lon="0.83386">
        <ele>134.24</ele>
        <time>2014-08-17T09:19:55Z</time>
      </trkpt>
      <trkpt lat="44.74135" lon="0.83352">
        <ele>139.53</ele>
        <time>2014-08-17T09:20:13Z</time>
      </trkpt>
      <trkpt lat="44.74093" lon="0.83306">
        <ele>142.89</ele>
        <time>2014-08-17T09:20:32Z</time>
      </trkpt>
      <trkpt lat="44.74058" lon="0.83274">
        <ele>145.3</ele>
        <time>2014-08-17T09:20:47Z</time>
      </trkpt>
      <trkpt lat="44.74016" lon="0.83262">
        <ele>147.22</ele>
        <time>2014-08-17T09:21:03Z</time>
      </trkpt>
      <trkpt lat="44.73966" lon="0.83253">
        <ele>149.62</ele>
        <time>2014-08-17T09:21:22Z</time>
      </trkpt>
      <trkpt lat="44.73918" lon="0.83244">
        <ele>152.03</ele>
        <time>2014-08-17T09:21:40Z</time>
      </trkpt>
      <trkpt lat="44.73882" lon="0.83243">
        <ele>153.95</ele>
        <time>2014-08-17T09:21:55Z</time>
      </trkpt>
      <trkpt lat="44.7388" lon="0.83252">
        <ele>154.43</ele>
        <time>2014-08-17T09:22:07Z</time>
      </trkpt>
      <trkpt lat="44.7388" lon="0.83251">
        <ele>154.43</ele>
        <time>2014-08-17T09:22:28Z</time>
      </trkpt>
      <trkpt lat="44.73878" lon="0.83276">
        <ele>153.95</ele>
        <time>2014-08-17T09:22:44Z</time>
      </trkpt>
      <trkpt lat="44.73875" lon="0.83346">
        <ele>153.47</ele>
        <time>2014-08-17T09:22:59Z</time>
      </trkpt>
      <trkpt lat="44.73876" lon="0.83351">
        <ele>153.47</ele>
        <time>2014-08-17T09:23:00Z</time>
      </trkpt>
      <trkpt lat="44.73879" lon="0.83406">
        <ele>151.06</ele>
        <time>2014-08-17T09:23:09Z</time>
      </trkpt>
      <trkpt lat="44.73878" lon="0.83418">
        <ele>150.1</ele>
        <time>2014-08-17T09:23:11Z</time>
      </trkpt>
      <trkpt lat="44.73872" lon="0.83442">
        <ele>148.66</ele>
        <time>2014-08-17T09:23:15Z</time>
      </trkpt>
      <trkpt lat="44.73847" lon="0.83529">
        <ele>143.85</ele>
        <time>2014-08-17T09:23:27Z</time>
      </trkpt>
      <trkpt lat="44.73834" lon="0.83581">
        <ele>143.37</ele>
        <time>2014-08-17T09:23:33Z</time>
      </trkpt>
      <trkpt lat="44.73823" lon="0.83617">
        <ele>141.93</ele>
        <time>2014-08-17T09:23:37Z</time>
      </trkpt>
      <trkpt lat="44.73809" lon="0.83659">
        <ele>139.53</ele>
        <time>2014-08-17T09:23:42Z</time>
      </trkpt>
      <trkpt lat="44.73784" lon="0.83704">
        <ele>138.09</ele>
        <time>2014-08-17T09:23:50Z</time>
      </trkpt>
      <trkpt lat="44.73781" lon="0.83708">
        <ele>137.61</ele>
        <time>2014-08-17T09:23:51Z</time>
      </trkpt>
      <trkpt lat="44.73774" lon="0.83718">
        <ele>137.61</ele>
        <time>2014-08-17T09:23:53Z</time>
      </trkpt>
      <trkpt lat="44.73766" lon="0.83737">
        <ele>136.64</ele>
        <time>2014-08-17T09:23:56Z</time>
      </trkpt>
      <trkpt lat="44.73739" lon="0.83801">
        <ele>134.24</ele>
        <time>2014-08-17T09:24:08Z</time>
      </trkpt>
      <trkpt lat="44.73727" lon="0.83824">
        <ele>132.8</ele>
        <time>2014-08-17T09:24:12Z</time>
      </trkpt>
      <trkpt lat="44.73712" lon="0.83849">
        <ele>130.88</ele>
        <time>2014-08-17T09:24:16Z</time>
      </trkpt>
      <trkpt lat="44.73701" lon="0.83869">
        <ele>129.43</ele>
        <time>2014-08-17T09:24:19Z</time>
      </trkpt>
      <trkpt lat="44.73681" lon="0.83883">
        <ele>126.55</ele>
        <time>2014-08-17T09:24:23Z</time>
      </trkpt>
      <trkpt lat="44.73669" lon="0.83885">
        <ele>125.59</ele>
        <time>2014-08-17T09:24:25Z</time>
      </trkpt>
      <trkpt lat="44.7364" lon="0.83888">
        <ele>122.22</ele>
        <time>2014-08-17T09:24:31Z</time>
      </trkpt>
      <trkpt lat="44.73642" lon="0.83907">
        <ele>118.38</ele>
        <time>2014-08-17T09:24:38Z</time>
      </trkpt>
      <trkpt lat="44.73661" lon="0.83929">
        <ele>113.09</ele>
        <time>2014-08-17T09:24:45Z</time>
      </trkpt>
      <trkpt lat="44.73659" lon="0.8398">
        <ele>105.88</ele>
        <time>2014-08-17T09:24:53Z</time>
      </trkpt>
      <trkpt lat="44.73657" lon="0.84012">
        <ele>108.29</ele>
        <time>2014-08-17T09:25:04Z</time>
      </trkpt>
      <trkpt lat="44.73657" lon="0.84015">
        <ele>109.25</ele>
        <time>2014-08-17T09:25:05Z</time>
      </trkpt>
      <trkpt lat="44.73657" lon="0.84022">
        <ele>111.17</ele>
        <time>2014-08-17T09:25:09Z</time>
      </trkpt>
      <trkpt lat="44.73665" lon="0.84032">
        <ele>110.69</ele>
        <time>2014-08-17T09:25:16Z</time>
      </trkpt>
      <trkpt lat="44.73666" lon="0.84035">
        <ele>111.17</ele>
        <time>2014-08-17T09:25:17Z</time>
      </trkpt>
      <trkpt lat="44.73668" lon="0.84038">
        <ele>111.17</ele>
        <time>2014-08-17T09:25:18Z</time>
      </trkpt>
      <trkpt lat="44.73671" lon="0.84041">
        <ele>110.69</ele>
        <time>2014-08-17T09:25:19Z</time>
      </trkpt>
      <trkpt lat="44.73673" lon="0.84044">
        <ele>110.69</ele>
        <time>2014-08-17T09:25:20Z</time>
      </trkpt>
      <trkpt lat="44.73675" lon="0.84048">
        <ele>110.69</ele>
        <time>2014-08-17T09:25:21Z</time>
      </trkpt>
      <trkpt lat="44.73677" lon="0.84053">
        <ele>110.69</ele>
        <time>2014-08-17T09:25:22Z</time>
      </trkpt>
      <trkpt lat="44.73679" lon="0.84058">
        <ele>110.69</ele>
        <time>2014-08-17T09:25:23Z</time>
      </trkpt>
      <trkpt lat="44.73684" lon="0.84086">
        <ele>112.13</ele>
        <time>2014-08-17T09:25:32Z</time>
      </trkpt>
      <trkpt lat="44.73686" lon="0.84107">
        <ele>115.01</ele>
        <time>2014-08-17T09:25:39Z</time>
      </trkpt>
      <trkpt lat="44.73683" lon="0.84132">
        <ele>118.86</ele>
        <time>2014-08-17T09:25:51Z</time>
      </trkpt>
      <trkpt lat="44.73679" lon="0.84141">
        <ele>119.82</ele>
        <time>2014-08-17T09:26:04Z</time>
      </trkpt>
      <trkpt lat="44.7368" lon="0.84142">
        <ele>121.74</ele>
        <time>2014-08-17T09:26:35Z</time>
      </trkpt>
      <trkpt lat="44.73675" lon="0.84152">
        <ele>122.71</ele>
        <time>2014-08-17T09:26:57Z</time>
      </trkpt>
      <trkpt lat="44.73662" lon="0.84182">
        <ele>119.82</ele>
        <time>2014-08-17T09:27:03Z</time>
      </trkpt>
      <trkpt lat="44.73629" lon="0.84233">
        <ele>116.94</ele>
        <time>2014-08-17T09:27:12Z</time>
      </trkpt>
      <trkpt lat="44.73593" lon="0.84288">
        <ele>115.98</ele>
        <time>2014-08-17T09:27:23Z</time>
      </trkpt>
      <trkpt lat="44.73582" lon="0.8431">
        <ele>116.46</ele>
        <time>2014-08-17T09:27:27Z</time>
      </trkpt>
      <trkpt lat="44.73575" lon="0.84321">
        <ele>115.98</ele>
        <time>2014-08-17T09:27:29Z</time>
      </trkpt>
      <trkpt lat="44.73569" lon="0.84332">
        <ele>115.98</ele>
        <time>2014-08-17T09:27:31Z</time>
      </trkpt>
      <trkpt lat="44.73539" lon="0.84389">
        <ele>114.05</ele>
        <time>2014-08-17T09:27:42Z</time>
      </trkpt>
      <trkpt lat="44.7352" lon="0.84418">
        <ele>112.13</ele>
        <time>2014-08-17T09:27:47Z</time>
      </trkpt>
      <trkpt lat="44.7346" lon="0.8449">
        <ele>109.25</ele>
        <time>2014-08-17T09:28:01Z</time>
      </trkpt>
      <trkpt lat="44.7345" lon="0.84502">
        <ele>108.77</ele>
        <time>2014-08-17T09:28:04Z</time>
      </trkpt>
      <trkpt lat="44.73423" lon="0.84518">
        <ele>107.32</ele>
        <time>2014-08-17T09:28:12Z</time>
      </trkpt>
      <trkpt lat="44.73414" lon="0.84491">
        <ele>106.36</ele>
        <time>2014-08-17T09:28:24Z</time>
      </trkpt>
      <trkpt lat="44.73413" lon="0.84485">
        <ele>106.36</ele>
        <time>2014-08-17T09:28:27Z</time>
      </trkpt>
      <trkpt lat="44.73412" lon="0.84479">
        <ele>106.84</ele>
        <time>2014-08-17T09:28:30Z</time>
      </trkpt>
      <trkpt lat="44.73409" lon="0.84471">
        <ele>107.81</ele>
        <time>2014-08-17T09:28:34Z</time>
      </trkpt>
      <trkpt lat="44.73407" lon="0.84465">
        <ele>108.77</ele>
        <time>2014-08-17T09:28:38Z</time>
      </trkpt>
      <trkpt lat="44.73388" lon="0.8447">
        <ele>111.65</ele>
        <time>2014-08-17T09:28:50Z</time>
      </trkpt>
      <trkpt lat="44.73352" lon="0.84481">
        <ele>112.13</ele>
        <time>2014-08-17T09:29:01Z</time>
      </trkpt>
      <trkpt lat="44.73328" lon="0.84487">
        <ele>112.61</ele>
        <time>2014-08-17T09:29:10Z</time>
      </trkpt>
      <trkpt lat="44.73319" lon="0.84475">
        <ele>113.57</ele>
        <time>2014-08-17T09:29:18Z</time>
      </trkpt>
      <trkpt lat="44.73311" lon="0.84464">
        <ele>116.46</ele>
        <time>2014-08-17T09:29:28Z</time>
      </trkpt>
      <trkpt lat="44.73303" lon="0.84452">
        <ele>121.74</ele>
        <time>2014-08-17T09:29:42Z</time>
      </trkpt>
      <trkpt lat="44.73302" lon="0.84448">
        <ele>123.19</ele>
        <time>2014-08-17T09:30:01Z</time>
      </trkpt>
      <trkpt lat="44.73299" lon="0.84441">
        <ele>125.59</ele>
        <time>2014-08-17T09:30:17Z</time>
      </trkpt>
      <trkpt lat="44.73294" lon="0.84431">
        <ele>129.92</ele>
        <time>2014-08-17T09:30:33Z</time>
      </trkpt>
      <trkpt lat="44.73288" lon="0.84419">
        <ele>132.32</ele>
        <time>2014-08-17T09:30:49Z</time>
      </trkpt>
      <trkpt lat="44.73284" lon="0.84414">
        <ele>134.72</ele>
        <time>2014-08-17T09:31:04Z</time>
      </trkpt>
      <trkpt lat="44.73284" lon="0.84412">
        <ele>134.72</ele>
        <time>2014-08-17T09:31:22Z</time>
      </trkpt>
      <trkpt lat="44.73283" lon="0.84408">
        <ele>134.72</ele>
        <time>2014-08-17T09:31:51Z</time>
      </trkpt>
      <trkpt lat="44.73282" lon="0.84405">
        <ele>132.8</ele>
        <time>2014-08-17T09:32:06Z</time>
      </trkpt>
      <trkpt lat="44.73278" lon="0.84401">
        <ele>133.28</ele>
        <time>2014-08-17T09:32:30Z</time>
      </trkpt>
      <trkpt lat="44.73269" lon="0.8438">
        <ele>133.76</ele>
        <time>2014-08-17T09:32:43Z</time>
      </trkpt>
      <trkpt lat="44.73263" lon="0.84366">
        <ele>133.76</ele>
        <time>2014-08-17T09:32:51Z</time>
      </trkpt>
      <trkpt lat="44.73261" lon="0.84358">
        <ele>134.24</ele>
        <time>2014-08-17T09:32:56Z</time>
      </trkpt>
      <trkpt lat="44.73259" lon="0.84356">
        <ele>134.72</ele>
        <time>2014-08-17T09:32:58Z</time>
      </trkpt>
      <trkpt lat="44.73255" lon="0.84349">
        <ele>135.2</ele>
        <time>2014-08-17T09:33:02Z</time>
      </trkpt>
      <trkpt lat="44.73252" lon="0.84342">
        <ele>135.68</ele>
        <time>2014-08-17T09:33:06Z</time>
      </trkpt>
      <trkpt lat="44.73243" lon="0.8432">
        <ele>136.16</ele>
        <time>2014-08-17T09:33:17Z</time>
      </trkpt>
      <trkpt lat="44.73227" lon="0.84298">
        <ele>135.68</ele>
        <time>2014-08-17T09:33:29Z</time>
      </trkpt>
      <trkpt lat="44.73212" lon="0.84273">
        <ele>135.68</ele>
        <time>2014-08-17T09:33:43Z</time>
      </trkpt>
      <trkpt lat="44.73211" lon="0.84271">
        <ele>135.2</ele>
        <time>2014-08-17T09:33:44Z</time>
      </trkpt>
      <trkpt lat="44.73215" lon="0.84258">
        <ele>134.24</ele>
        <time>2014-08-17T09:33:51Z</time>
      </trkpt>
      <trkpt lat="44.73229" lon="0.84238">
        <ele>134.24</ele>
        <time>2014-08-17T09:34:03Z</time>
      </trkpt>
      <trkpt lat="44.73246" lon="0.84213">
        <ele>136.16</ele>
        <time>2014-08-17T09:34:17Z</time>
      </trkpt>
      <trkpt lat="44.73247" lon="0.84211">
        <ele>136.16</ele>
        <time>2014-08-17T09:34:18Z</time>
      </trkpt>
      <trkpt lat="44.73244" lon="0.84189">
        <ele>140.01</ele>
        <time>2014-08-17T09:34:28Z</time>
      </trkpt>
      <trkpt lat="44.73237" lon="0.84182">
        <ele>140.97</ele>
        <time>2014-08-17T09:34:31Z</time>
      </trkpt>
      <trkpt lat="44.73216" lon="0.84156">
        <ele>145.78</ele>
        <time>2014-08-17T09:34:44Z</time>
      </trkpt>
      <trkpt lat="44.73214" lon="0.84154">
        <ele>146.26</ele>
        <time>2014-08-17T09:34:45Z</time>
      </trkpt>
      <trkpt lat="44.73205" lon="0.84143">
        <ele>147.7</ele>
        <time>2014-08-17T09:34:50Z</time>
      </trkpt>
      <trkpt lat="44.73179" lon="0.84114">
        <ele>148.18</ele>
        <time>2014-08-17T09:35:04Z</time>
      </trkpt>
      <trkpt lat="44.73167" lon="0.84097">
        <ele>149.62</ele>
        <time>2014-08-17T09:35:11Z</time>
      </trkpt>
      <trkpt lat="44.73161" lon="0.84089">
        <ele>149.62</ele>
        <time>2014-08-17T09:35:17Z</time>
      </trkpt>
      <trkpt lat="44.73152" lon="0.84094">
        <ele>150.1</ele>
        <time>2014-08-17T09:35:22Z</time>
      </trkpt>
      <trkpt lat="44.73109" lon="0.84146">
        <ele>149.14</ele>
        <time>2014-08-17T09:35:31Z</time>
      </trkpt>
      <trkpt lat="44.73087" lon="0.84168">
        <ele>148.18</ele>
        <time>2014-08-17T09:35:37Z</time>
      </trkpt>
      <trkpt lat="44.73079" lon="0.84167">
        <ele>146.26</ele>
        <time>2014-08-17T09:35:42Z</time>
      </trkpt>
      <trkpt lat="44.73065" lon="0.84156">
        <ele>141.93</ele>
        <time>2014-08-17T09:35:51Z</time>
      </trkpt>
      <trkpt lat="44.73048" lon="0.8414">
        <ele>138.57</ele>
        <time>2014-08-17T09:36:00Z</time>
      </trkpt>
      <trkpt lat="44.73027" lon="0.84114">
        <ele>137.61</ele>
        <time>2014-08-17T09:36:10Z</time>
      </trkpt>
      <trkpt lat="44.72998" lon="0.84086">
        <ele>136.64</ele>
        <time>2014-08-17T09:36:25Z</time>
      </trkpt>
      <trkpt lat="44.72969" lon="0.84049">
        <ele>135.2</ele>
        <time>2014-08-17T09:36:41Z</time>
      </trkpt>
      <trkpt lat="44.72937" lon="0.84008">
        <ele>135.68</ele>
        <time>2014-08-17T09:36:58Z</time>
      </trkpt>
      <trkpt lat="44.72914" lon="0.83975">
        <ele>138.09</ele>
        <time>2014-08-17T09:37:11Z</time>
      </trkpt>
      <trkpt lat="44.72888" lon="0.83934">
        <ele>134.24</ele>
        <time>2014-08-17T09:37:26Z</time>
      </trkpt>
      <trkpt lat="44.72876" lon="0.839">
        <ele>134.72</ele>
        <time>2014-08-17T09:37:37Z</time>
      </trkpt>
      <trkpt lat="44.72854" lon="0.83876">
        <ele>138.09</ele>
        <time>2014-08-17T09:37:50Z</time>
      </trkpt>
      <trkpt lat="44.72852" lon="0.83876">
        <ele>138.57</ele>
        <time>2014-08-17T09:37:51Z</time>
      </trkpt>
      <trkpt lat="44.72851" lon="0.83877">
        <ele>138.09</ele>
        <time>2014-08-17T09:37:52Z</time>
      </trkpt>
      <trkpt lat="44.72842" lon="0.8388">
        <ele>137.61</ele>
        <time>2014-08-17T09:38:05Z</time>
      </trkpt>
      <trkpt lat="44.72844" lon="0.83876">
        <ele>139.05</ele>
        <time>2014-08-17T09:38:28Z</time>
      </trkpt>
      <trkpt lat="44.72839" lon="0.8388">
        <ele>144.82</ele>
        <time>2014-08-17T09:38:49Z</time>
      </trkpt>
      <trkpt lat="44.72841" lon="0.8388">
        <ele>153.95</ele>
        <time>2014-08-17T09:39:10Z</time>
      </trkpt>
      <trkpt lat="44.72841" lon="0.83884">
        <ele>154.91</ele>
        <time>2014-08-17T09:39:38Z</time>
      </trkpt>
      <trkpt lat="44.72828" lon="0.83891">
        <ele>154.43</ele>
        <time>2014-08-17T09:39:53Z</time>
      </trkpt>
      <trkpt lat="44.72815" lon="0.839">
        <ele>152.99</ele>
        <time>2014-08-17T09:40:03Z</time>
      </trkpt>
      <trkpt lat="44.72803" lon="0.83907">
        <ele>150.58</ele>
        <time>2014-08-17T09:40:17Z</time>
      </trkpt>
      <trkpt lat="44.72801" lon="0.83904">
        <ele>150.58</ele>
        <time>2014-08-17T09:40:28Z</time>
      </trkpt>
      <trkpt lat="44.72797" lon="0.83909">
        <ele>151.54</ele>
        <time>2014-08-17T09:40:57Z</time>
      </trkpt>
      <trkpt lat="44.72789" lon="0.83914">
        <ele>156.35</ele>
        <time>2014-08-17T09:41:13Z</time>
      </trkpt>
      <trkpt lat="44.72783" lon="0.83921">
        <ele>155.39</ele>
        <time>2014-08-17T09:41:29Z</time>
      </trkpt>
      <trkpt lat="44.72782" lon="0.83927">
        <ele>156.83</ele>
        <time>2014-08-17T09:41:48Z</time>
      </trkpt>
      <trkpt lat="44.72781" lon="0.83928">
        <ele>156.83</ele>
        <time>2014-08-17T09:41:49Z</time>
      </trkpt>
      <trkpt lat="44.72762" lon="0.83944">
        <ele>155.87</ele>
        <time>2014-08-17T09:42:02Z</time>
      </trkpt>
      <trkpt lat="44.72733" lon="0.83969">
        <ele>153.47</ele>
        <time>2014-08-17T09:42:16Z</time>
      </trkpt>
      <trkpt lat="44.72713" lon="0.83987">
        <ele>152.03</ele>
        <time>2014-08-17T09:42:30Z</time>
      </trkpt>
      <trkpt lat="44.72692" lon="0.84002">
        <ele>152.51</ele>
        <time>2014-08-17T09:42:41Z</time>
      </trkpt>
      <trkpt lat="44.72677" lon="0.8402">
        <ele>153.95</ele>
        <time>2014-08-17T09:42:51Z</time>
      </trkpt>
      <trkpt lat="44.72672" lon="0.84023">
        <ele>154.43</ele>
        <time>2014-08-17T09:42:54Z</time>
      </trkpt>
      <trkpt lat="44.72669" lon="0.84028">
        <ele>154.43</ele>
        <time>2014-08-17T09:42:56Z</time>
      </trkpt>
      <trkpt lat="44.72668" lon="0.84031">
        <ele>154.43</ele>
        <time>2014-08-17T09:42:57Z</time>
      </trkpt>
      <trkpt lat="44.72666" lon="0.84033">
        <ele>154.43</ele>
        <time>2014-08-17T09:42:58Z</time>
      </trkpt>
      <trkpt lat="44.72665" lon="0.84036">
        <ele>154.43</ele>
        <time>2014-08-17T09:42:59Z</time>
      </trkpt>
      <trkpt lat="44.72663" lon="0.84039">
        <ele>154.43</ele>
        <time>2014-08-17T09:43:00Z</time>
      </trkpt>
      <trkpt lat="44.72661" lon="0.84041">
        <ele>154.43</ele>
        <time>2014-08-17T09:43:01Z</time>
      </trkpt>
      <trkpt lat="44.72659" lon="0.84043">
        <ele>154.43</ele>
        <time>2014-08-17T09:43:02Z</time>
      </trkpt>
      <trkpt lat="44.72643" lon="0.84066">
        <ele>154.91</ele>
        <time>2014-08-17T09:43:09Z</time>
      </trkpt>
      <trkpt lat="44.7261" lon="0.8409">
        <ele>155.39</ele>
        <time>2014-08-17T09:43:17Z</time>
      </trkpt>
      <trkpt lat="44.726" lon="0.84107">
        <ele>153.95</ele>
        <time>2014-08-17T09:43:20Z</time>
      </trkpt>
      <trkpt lat="44.72589" lon="0.84141">
        <ele>151.06</ele>
        <time>2014-08-17T09:43:24Z</time>
      </trkpt>
      <trkpt lat="44.72575" lon="0.84197">
        <ele>148.18</ele>
        <time>2014-08-17T09:43:31Z</time>
      </trkpt>
      <trkpt lat="44.72574" lon="0.84211">
        <ele>146.26</ele>
        <time>2014-08-17T09:43:38Z</time>
      </trkpt>
      <trkpt lat="44.72574" lon="0.84213">
        <ele>145.3</ele>
        <time>2014-08-17T09:43:49Z</time>
      </trkpt>
      <trkpt lat="44.72573" lon="0.84214">
        <ele>143.85</ele>
        <time>2014-08-17T09:44:14Z</time>
      </trkpt>
      <trkpt lat="44.72572" lon="0.84215">
        <ele>143.85</ele>
        <time>2014-08-17T09:44:22Z</time>
      </trkpt>
      <trkpt lat="44.72563" lon="0.84231">
        <ele>142.89</ele>
        <time>2014-08-17T09:44:29Z</time>
      </trkpt>
      <trkpt lat="44.72559" lon="0.84239">
        <ele>142.41</ele>
        <time>2014-08-17T09:44:31Z</time>
      </trkpt>
      <trkpt lat="44.72551" lon="0.84282">
        <ele>137.13</ele>
        <time>2014-08-17T09:44:40Z</time>
      </trkpt>
      <trkpt lat="44.72578" lon="0.84317">
        <ele>133.28</ele>
        <time>2014-08-17T09:44:47Z</time>
      </trkpt>
      <trkpt lat="44.72636" lon="0.84349">
        <ele>129.92</ele>
        <time>2014-08-17T09:44:56Z</time>
      </trkpt>
      <trkpt lat="44.7269" lon="0.84399">
        <ele>128.47</ele>
        <time>2014-08-17T09:45:05Z</time>
      </trkpt>
      <trkpt lat="44.72741" lon="0.84429">
        <ele>127.03</ele>
        <time>2014-08-17T09:45:12Z</time>
      </trkpt>
      <trkpt lat="44.72763" lon="0.84452">
        <ele>126.55</ele>
        <time>2014-08-17T09:45:16Z</time>
      </trkpt>
      <trkpt lat="44.72776" lon="0.84514">
        <ele>119.82</ele>
        <time>2014-08-17T09:45:25Z</time>
      </trkpt>
      <trkpt lat="44.72778" lon="0.8454">
        <ele>117.42</ele>
        <time>2014-08-17T09:45:28Z</time>
      </trkpt>
      <trkpt lat="44.72788" lon="0.84571">
        <ele>116.46</ele>
        <time>2014-08-17T09:45:33Z</time>
      </trkpt>
      <trkpt lat="44.72796" lon="0.84589">
        <ele>117.42</ele>
        <time>2014-08-17T09:45:36Z</time>
      </trkpt>
      <trkpt lat="44.72813" lon="0.84643">
        <ele>116.94</ele>
        <time>2014-08-17T09:45:43Z</time>
      </trkpt>
      <trkpt lat="44.72825" lon="0.84692">
        <ele>117.9</ele>
        <time>2014-08-17T09:45:50Z</time>
      </trkpt>
      <trkpt lat="44.72825" lon="0.84756">
        <ele>118.86</ele>
        <time>2014-08-17T09:45:59Z</time>
      </trkpt>
      <trkpt lat="44.728" lon="0.84816">
        <ele>115.5</ele>
        <time>2014-08-17T09:46:07Z</time>
      </trkpt>
      <trkpt lat="44.72783" lon="0.84837">
        <ele>114.53</ele>
        <time>2014-08-17T09:46:12Z</time>
      </trkpt>
      <trkpt lat="44.7276" lon="0.8486">
        <ele>115.01</ele>
        <time>2014-08-17T09:46:23Z</time>
      </trkpt>
      <trkpt lat="44.72734" lon="0.84876">
        <ele>117.9</ele>
        <time>2014-08-17T09:46:34Z</time>
      </trkpt>
      <trkpt lat="44.72705" lon="0.84893">
        <ele>120.3</ele>
        <time>2014-08-17T09:46:46Z</time>
      </trkpt>
      <trkpt lat="44.72672" lon="0.84906">
        <ele>122.71</ele>
        <time>2014-08-17T09:46:59Z</time>
      </trkpt>
      <trkpt lat="44.72639" lon="0.84909">
        <ele>121.74</ele>
        <time>2014-08-17T09:47:11Z</time>
      </trkpt>
      <trkpt lat="44.72623" lon="0.84901">
        <ele>119.82</ele>
        <time>2014-08-17T09:47:18Z</time>
      </trkpt>
      <trkpt lat="44.72596" lon="0.84908">
        <ele>124.63</ele>
        <time>2014-08-17T09:47:30Z</time>
      </trkpt>
      <trkpt lat="44.72564" lon="0.84933">
        <ele>131.84</ele>
        <time>2014-08-17T09:47:43Z</time>
      </trkpt>
      <trkpt lat="44.72553" lon="0.8494">
        <ele>134.24</ele>
        <time>2014-08-17T09:47:47Z</time>
      </trkpt>
      <trkpt lat="44.72523" lon="0.84959">
        <ele>138.09</ele>
        <time>2014-08-17T09:47:59Z</time>
      </trkpt>
      <trkpt lat="44.72496" lon="0.84965">
        <ele>141.45</ele>
        <time>2014-08-17T09:48:11Z</time>
      </trkpt>
      <trkpt lat="44.72467" lon="0.84969">
        <ele>139.05</ele>
        <time>2014-08-17T09:48:24Z</time>
      </trkpt>
      <trkpt lat="44.72441" lon="0.84975">
        <ele>138.09</ele>
        <time>2014-08-17T09:48:38Z</time>
      </trkpt>
      <trkpt lat="44.72417" lon="0.84975">
        <ele>141.93</ele>
        <time>2014-08-17T09:48:49Z</time>
      </trkpt>
      <trkpt lat="44.7239" lon="0.84968">
        <ele>144.34</ele>
        <time>2014-08-17T09:49:02Z</time>
      </trkpt>
      <trkpt lat="44.72364" lon="0.84958">
        <ele>146.26</ele>
        <time>2014-08-17T09:49:16Z</time>
      </trkpt>
      <trkpt lat="44.72356" lon="0.84955">
        <ele>147.7</ele>
        <time>2014-08-17T09:49:21Z</time>
      </trkpt>
      <trkpt lat="44.72332" lon="0.84946">
        <ele>151.54</ele>
        <time>2014-08-17T09:49:36Z</time>
      </trkpt>
      <trkpt lat="44.7233" lon="0.84945">
        <ele>151.54</ele>
        <time>2014-08-17T09:49:37Z</time>
      </trkpt>
      <trkpt lat="44.723" lon="0.84932">
        <ele>152.99</ele>
        <time>2014-08-17T09:49:54Z</time>
      </trkpt>
      <trkpt lat="44.7229" lon="0.84919">
        <ele>153.95</ele>
        <time>2014-08-17T09:50:07Z</time>
      </trkpt>
      <trkpt lat="44.72291" lon="0.84919">
        <ele>152.03</ele>
        <time>2014-08-17T09:50:28Z</time>
      </trkpt>
      <trkpt lat="44.72288" lon="0.84918">
        <ele>157.79</ele>
        <time>2014-08-17T09:50:53Z</time>
      </trkpt>
      <trkpt lat="44.7229" lon="0.84923">
        <ele>156.83</ele>
        <time>2014-08-17T09:51:28Z</time>
      </trkpt>
      <trkpt lat="44.72293" lon="0.84922">
        <ele>156.83</ele>
        <time>2014-08-17T09:51:54Z</time>
      </trkpt>
      <trkpt lat="44.7229" lon="0.84917">
        <ele>163.08</ele>
        <time>2014-08-17T09:52:23Z</time>
      </trkpt>
      <trkpt lat="44.72288" lon="0.84915">
        <ele>163.56</ele>
        <time>2014-08-17T09:52:48Z</time>
      </trkpt>
      <trkpt lat="44.7229" lon="0.84916">
        <ele>165</ele>
        <time>2014-08-17T09:53:06Z</time>
      </trkpt>
      <trkpt lat="44.72286" lon="0.84919">
        <ele>165</ele>
        <time>2014-08-17T09:53:09Z</time>
      </trkpt>
      <trkpt lat="44.72277" lon="0.84921">
        <ele>165</ele>
        <time>2014-08-17T09:53:14Z</time>
      </trkpt>
      <trkpt lat="44.72256" lon="0.84923">
        <ele>164.04</ele>
        <time>2014-08-17T09:53:23Z</time>
      </trkpt>
      <trkpt lat="44.72247" lon="0.84922">
        <ele>164.04</ele>
        <time>2014-08-17T09:53:27Z</time>
      </trkpt>
      <trkpt lat="44.72215" lon="0.84906">
        <ele>164.52</ele>
        <time>2014-08-17T09:53:43Z</time>
      </trkpt>
      <trkpt lat="44.72189" lon="0.8489">
        <ele>164.04</ele>
        <time>2014-08-17T09:53:57Z</time>
      </trkpt>
      <trkpt lat="44.72158" lon="0.8487">
        <ele>165.48</ele>
        <time>2014-08-17T09:54:12Z</time>
      </trkpt>
      <trkpt lat="44.72131" lon="0.84848">
        <ele>167.89</ele>
        <time>2014-08-17T09:54:24Z</time>
      </trkpt>
      <trkpt lat="44.72101" lon="0.84835">
        <ele>169.81</ele>
        <time>2014-08-17T09:54:35Z</time>
      </trkpt>
      <trkpt lat="44.72071" lon="0.84838">
        <ele>170.77</ele>
        <time>2014-08-17T09:54:43Z</time>
      </trkpt>
      <trkpt lat="44.72059" lon="0.84837">
        <ele>171.25</ele>
        <time>2014-08-17T09:54:46Z</time>
      </trkpt>
      <trkpt lat="44.72029" lon="0.84795">
        <ele>169.81</ele>
        <time>2014-08-17T09:54:58Z</time>
      </trkpt>
      <trkpt lat="44.72001" lon="0.84785">
        <ele>170.29</ele>
        <time>2014-08-17T09:55:07Z</time>
      </trkpt>
      <trkpt lat="44.7198" lon="0.84812">
        <ele>173.66</ele>
        <time>2014-08-17T09:55:15Z</time>
      </trkpt>
      <trkpt lat="44.71939" lon="0.84845">
        <ele>175.1</ele>
        <time>2014-08-17T09:55:27Z</time>
      </trkpt>
      <trkpt lat="44.71887" lon="0.84877">
        <ele>174.62</ele>
        <time>2014-08-17T09:55:43Z</time>
      </trkpt>
      <trkpt lat="44.71828" lon="0.84918">
        <ele>170.29</ele>
        <time>2014-08-17T09:55:56Z</time>
      </trkpt>
      <trkpt lat="44.71735" lon="0.85">
        <ele>164.52</ele>
        <time>2014-08-17T09:56:10Z</time>
      </trkpt>
      <trkpt lat="44.71722" lon="0.85007">
        <ele>164.04</ele>
        <time>2014-08-17T09:56:12Z</time>
      </trkpt>
      <trkpt lat="44.71716" lon="0.85012">
        <ele>164.04</ele>
        <time>2014-08-17T09:56:13Z</time>
      </trkpt>
      <trkpt lat="44.7171" lon="0.85017">
        <ele>164.04</ele>
        <time>2014-08-17T09:56:14Z</time>
      </trkpt>
      <trkpt lat="44.71705" lon="0.85023">
        <ele>164.04</ele>
        <time>2014-08-17T09:56:15Z</time>
      </trkpt>
      <trkpt lat="44.71701" lon="0.85029">
        <ele>163.56</ele>
        <time>2014-08-17T09:56:16Z</time>
      </trkpt>
      <trkpt lat="44.71696" lon="0.85035">
        <ele>163.56</ele>
        <time>2014-08-17T09:56:17Z</time>
      </trkpt>
      <trkpt lat="44.71665" lon="0.85101">
        <ele>160.68</ele>
        <time>2014-08-17T09:56:25Z</time>
      </trkpt>
      <trkpt lat="44.71629" lon="0.85167">
        <ele>158.27</ele>
        <time>2014-08-17T09:56:33Z</time>
      </trkpt>
      <trkpt lat="44.71625" lon="0.85169">
        <ele>157.79</ele>
        <time>2014-08-17T09:56:34Z</time>
      </trkpt>
      <trkpt lat="44.71621" lon="0.85169">
        <ele>157.79</ele>
        <time>2014-08-17T09:56:35Z</time>
      </trkpt>
      <trkpt lat="44.71617" lon="0.85166">
        <ele>157.79</ele>
        <time>2014-08-17T09:56:36Z</time>
      </trkpt>
      <trkpt lat="44.71614" lon="0.85161">
        <ele>157.79</ele>
        <time>2014-08-17T09:56:37Z</time>
      </trkpt>
      <trkpt lat="44.71612" lon="0.85156">
        <ele>157.31</ele>
        <time>2014-08-17T09:56:38Z</time>
      </trkpt>
      <trkpt lat="44.71609" lon="0.8515">
        <ele>157.31</ele>
        <time>2014-08-17T09:56:39Z</time>
      </trkpt>
      <trkpt lat="44.71593" lon="0.85095">
        <ele>155.87</ele>
        <time>2014-08-17T09:56:47Z</time>
      </trkpt>
      <trkpt lat="44.71589" lon="0.8509">
        <ele>155.39</ele>
        <time>2014-08-17T09:56:48Z</time>
      </trkpt>
      <trkpt lat="44.71584" lon="0.85088">
        <ele>154.91</ele>
        <time>2014-08-17T09:56:49Z</time>
      </trkpt>
      <trkpt lat="44.71578" lon="0.85087">
        <ele>154.43</ele>
        <time>2014-08-17T09:56:50Z</time>
      </trkpt>
      <trkpt lat="44.71571" lon="0.85088">
        <ele>153.95</ele>
        <time>2014-08-17T09:56:51Z</time>
      </trkpt>
      <trkpt lat="44.71563" lon="0.8509">
        <ele>152.99</ele>
        <time>2014-08-17T09:56:52Z</time>
      </trkpt>
      <trkpt lat="44.71555" lon="0.85094">
        <ele>152.51</ele>
        <time>2014-08-17T09:56:53Z</time>
      </trkpt>
      <trkpt lat="44.71547" lon="0.85098">
        <ele>151.54</ele>
        <time>2014-08-17T09:56:54Z</time>
      </trkpt>
      <trkpt lat="44.71506" lon="0.85123">
        <ele>144.82</ele>
        <time>2014-08-17T09:56:59Z</time>
      </trkpt>
      <trkpt lat="44.71498" lon="0.85126">
        <ele>143.37</ele>
        <time>2014-08-17T09:57:00Z</time>
      </trkpt>
      <trkpt lat="44.7149" lon="0.85128">
        <ele>141.93</ele>
        <time>2014-08-17T09:57:01Z</time>
      </trkpt>
      <trkpt lat="44.71481" lon="0.85129">
        <ele>140.49</ele>
        <time>2014-08-17T09:57:02Z</time>
      </trkpt>
      <trkpt lat="44.71473" lon="0.8513">
        <ele>139.05</ele>
        <time>2014-08-17T09:57:03Z</time>
      </trkpt>
      <trkpt lat="44.71445" lon="0.8513">
        <ele>135.68</ele>
        <time>2014-08-17T09:57:07Z</time>
      </trkpt>
      <trkpt lat="44.71441" lon="0.85132">
        <ele>135.2</ele>
        <time>2014-08-17T09:57:08Z</time>
      </trkpt>
      <trkpt lat="44.71439" lon="0.85136">
        <ele>134.72</ele>
        <time>2014-08-17T09:57:09Z</time>
      </trkpt>
      <trkpt lat="44.71438" lon="0.85141">
        <ele>134.72</ele>
        <time>2014-08-17T09:57:10Z</time>
      </trkpt>
      <trkpt lat="44.71438" lon="0.85145">
        <ele>134.24</ele>
        <time>2014-08-17T09:57:11Z</time>
      </trkpt>
      <trkpt lat="44.71438" lon="0.85149">
        <ele>134.24</ele>
        <time>2014-08-17T09:57:12Z</time>
      </trkpt>
      <trkpt lat="44.71441" lon="0.85197">
        <ele>131.84</ele>
        <time>2014-08-17T09:57:22Z</time>
      </trkpt>
      <trkpt lat="44.7145" lon="0.85249">
        <ele>131.84</ele>
        <time>2014-08-17T09:57:31Z</time>
      </trkpt>
      <trkpt lat="44.71455" lon="0.85274">
        <ele>131.84</ele>
        <time>2014-08-17T09:57:35Z</time>
      </trkpt>
      <trkpt lat="44.71456" lon="0.85281">
        <ele>131.84</ele>
        <time>2014-08-17T09:57:36Z</time>
      </trkpt>
      <trkpt lat="44.71456" lon="0.85287">
        <ele>131.84</ele>
        <time>2014-08-17T09:57:37Z</time>
      </trkpt>
      <trkpt lat="44.71455" lon="0.85293">
        <ele>131.84</ele>
        <time>2014-08-17T09:57:38Z</time>
      </trkpt>
      <trkpt lat="44.71452" lon="0.85298">
        <ele>131.84</ele>
        <time>2014-08-17T09:57:39Z</time>
      </trkpt>
      <trkpt lat="44.71449" lon="0.85303">
        <ele>131.36</ele>
        <time>2014-08-17T09:57:40Z</time>
      </trkpt>
      <trkpt lat="44.71444" lon="0.85306">
        <ele>131.36</ele>
        <time>2014-08-17T09:57:41Z</time>
      </trkpt>
      <trkpt lat="44.7144" lon="0.8531">
        <ele>131.36</ele>
        <time>2014-08-17T09:57:42Z</time>
      </trkpt>
      <trkpt lat="44.71407" lon="0.85331">
        <ele>130.4</ele>
        <time>2014-08-17T09:57:48Z</time>
      </trkpt>
      <trkpt lat="44.71396" lon="0.8534">
        <ele>129.92</ele>
        <time>2014-08-17T09:57:50Z</time>
      </trkpt>
      <trkpt lat="44.71391" lon="0.85345">
        <ele>129.92</ele>
        <time>2014-08-17T09:57:51Z</time>
      </trkpt>
      <trkpt lat="44.71389" lon="0.85352">
        <ele>129.92</ele>
        <time>2014-08-17T09:57:52Z</time>
      </trkpt>
      <trkpt lat="44.71387" lon="0.85358">
        <ele>129.43</ele>
        <time>2014-08-17T09:57:53Z</time>
      </trkpt>
      <trkpt lat="44.71386" lon="0.85366">
        <ele>129.43</ele>
        <time>2014-08-17T09:57:54Z</time>
      </trkpt>
      <trkpt lat="44.71385" lon="0.85373">
        <ele>129.43</ele>
        <time>2014-08-17T09:57:55Z</time>
      </trkpt>
      <trkpt lat="44.71383" lon="0.85391">
        <ele>129.43</ele>
        <time>2014-08-17T09:57:58Z</time>
      </trkpt>
      <trkpt lat="44.71382" lon="0.85397">
        <ele>129.43</ele>
        <time>2014-08-17T09:57:59Z</time>
      </trkpt>
      <trkpt lat="44.71382" lon="0.85436">
        <ele>132.32</ele>
        <time>2014-08-17T09:58:08Z</time>
      </trkpt>
      <trkpt lat="44.71405" lon="0.85446">
        <ele>135.68</ele>
        <time>2014-08-17T09:58:19Z</time>
      </trkpt>
      <trkpt lat="44.71429" lon="0.85452">
        <ele>139.05</ele>
        <time>2014-08-17T09:58:33Z</time>
      </trkpt>
      <trkpt lat="44.71431" lon="0.85453">
        <ele>139.05</ele>
        <time>2014-08-17T09:58:35Z</time>
      </trkpt>
      <trkpt lat="44.71433" lon="0.85454">
        <ele>138.57</ele>
        <time>2014-08-17T09:58:36Z</time>
      </trkpt>
      <trkpt lat="44.71434" lon="0.85455">
        <ele>139.05</ele>
        <time>2014-08-17T09:58:37Z</time>
      </trkpt>
      <trkpt lat="44.71436" lon="0.85456">
        <ele>139.05</ele>
        <time>2014-08-17T09:58:38Z</time>
      </trkpt>
      <trkpt lat="44.71437" lon="0.85458">
        <ele>139.05</ele>
        <time>2014-08-17T09:58:39Z</time>
      </trkpt>
      <trkpt lat="44.71438" lon="0.85459">
        <ele>139.05</ele>
        <time>2014-08-17T09:58:40Z</time>
      </trkpt>
      <trkpt lat="44.71439" lon="0.85461">
        <ele>139.05</ele>
        <time>2014-08-17T09:58:41Z</time>
      </trkpt>
      <trkpt lat="44.7144" lon="0.85463">
        <ele>139.05</ele>
        <time>2014-08-17T09:58:42Z</time>
      </trkpt>
      <trkpt lat="44.71441" lon="0.85464">
        <ele>139.05</ele>
        <time>2014-08-17T09:58:43Z</time>
      </trkpt>
      <trkpt lat="44.71443" lon="0.85465">
        <ele>139.05</ele>
        <time>2014-08-17T09:58:44Z</time>
      </trkpt>
      <trkpt lat="44.71458" lon="0.85483">
        <ele>142.41</ele>
        <time>2014-08-17T09:58:57Z</time>
      </trkpt>
      <trkpt lat="44.71479" lon="0.85505">
        <ele>150.1</ele>
        <time>2014-08-17T09:59:11Z</time>
      </trkpt>
      <trkpt lat="44.71499" lon="0.85527">
        <ele>158.75</ele>
        <time>2014-08-17T09:59:26Z</time>
      </trkpt>
      <trkpt lat="44.71518" lon="0.85553">
        <ele>164.52</ele>
        <time>2014-08-17T09:59:40Z</time>
      </trkpt>
      <trkpt lat="44.71535" lon="0.85592">
        <ele>163.08</ele>
        <time>2014-08-17T09:59:57Z</time>
      </trkpt>
      <trkpt lat="44.71548" lon="0.85621">
        <ele>165.96</ele>
        <time>2014-08-17T10:00:10Z</time>
      </trkpt>
      <trkpt lat="44.71556" lon="0.85658">
        <ele>170.29</ele>
        <time>2014-08-17T10:00:24Z</time>
      </trkpt>
      <trkpt lat="44.71571" lon="0.85685">
        <ele>170.29</ele>
        <time>2014-08-17T10:00:32Z</time>
      </trkpt>
      <trkpt lat="44.71597" lon="0.85723">
        <ele>170.77</ele>
        <time>2014-08-17T10:00:39Z</time>
      </trkpt>
      <trkpt lat="44.716" lon="0.85729">
        <ele>170.29</ele>
        <time>2014-08-17T10:00:40Z</time>
      </trkpt>
      <trkpt lat="44.71603" lon="0.85734">
        <ele>170.29</ele>
        <time>2014-08-17T10:00:41Z</time>
      </trkpt>
      <trkpt lat="44.71618" lon="0.85754">
        <ele>169.33</ele>
        <time>2014-08-17T10:00:45Z</time>
      </trkpt>
      <trkpt lat="44.71624" lon="0.85765">
        <ele>169.33</ele>
        <time>2014-08-17T10:00:47Z</time>
      </trkpt>
      <trkpt lat="44.71639" lon="0.85784">
        <ele>167.41</ele>
        <time>2014-08-17T10:00:51Z</time>
      </trkpt>
      <trkpt lat="44.71651" lon="0.85794">
        <ele>165.48</ele>
        <time>2014-08-17T10:00:55Z</time>
      </trkpt>
      <trkpt lat="44.71675" lon="0.85829">
        <ele>159.24</ele>
        <time>2014-08-17T10:01:03Z</time>
      </trkpt>
      <trkpt lat="44.71674" lon="0.85859">
        <ele>154.91</ele>
        <time>2014-08-17T10:01:08Z</time>
      </trkpt>
      <trkpt lat="44.71662" lon="0.85897">
        <ele>149.62</ele>
        <time>2014-08-17T10:01:14Z</time>
      </trkpt>
      <trkpt lat="44.71644" lon="0.85984">
        <ele>140.97</ele>
        <time>2014-08-17T10:01:26Z</time>
      </trkpt>
      <trkpt lat="44.71639" lon="0.86022">
        <ele>140.01</ele>
        <time>2014-08-17T10:01:32Z</time>
      </trkpt>
      <trkpt lat="44.71642" lon="0.8605">
        <ele>138.57</ele>
        <time>2014-08-17T10:01:37Z</time>
      </trkpt>
      <trkpt lat="44.71634" lon="0.86075">
        <ele>140.97</ele>
        <time>2014-08-17T10:01:48Z</time>
      </trkpt>
      <trkpt lat="44.71627" lon="0.86092">
        <ele>145.3</ele>
        <time>2014-08-17T10:01:59Z</time>
      </trkpt>
      <trkpt lat="44.71626" lon="0.86092">
        <ele>145.78</ele>
        <time>2014-08-17T10:02:00Z</time>
      </trkpt>
      <trkpt lat="44.71612" lon="0.86116">
        <ele>150.1</ele>
        <time>2014-08-17T10:02:13Z</time>
      </trkpt>
      <trkpt lat="44.71605" lon="0.86125">
        <ele>150.58</ele>
        <time>2014-08-17T10:02:19Z</time>
      </trkpt>
      <trkpt lat="44.71587" lon="0.8614">
        <ele>151.54</ele>
        <time>2014-08-17T10:02:31Z</time>
      </trkpt>
      <trkpt lat="44.71571" lon="0.8615">
        <ele>153.95</ele>
        <time>2014-08-17T10:02:43Z</time>
      </trkpt>
      <trkpt lat="44.71562" lon="0.86164">
        <ele>156.35</ele>
        <time>2014-08-17T10:02:56Z</time>
      </trkpt>
      <trkpt lat="44.71559" lon="0.86165">
        <ele>156.83</ele>
        <time>2014-08-17T10:03:00Z</time>
      </trkpt>
      <trkpt lat="44.7154" lon="0.86177">
        <ele>158.27</ele>
        <time>2014-08-17T10:03:10Z</time>
      </trkpt>
      <trkpt lat="44.71508" lon="0.86192">
        <ele>157.31</ele>
        <time>2014-08-17T10:03:22Z</time>
      </trkpt>
      <trkpt lat="44.71469" lon="0.86208">
        <ele>156.35</ele>
        <time>2014-08-17T10:03:31Z</time>
      </trkpt>
      <trkpt lat="44.71443" lon="0.86205">
        <ele>156.83</ele>
        <time>2014-08-17T10:03:39Z</time>
      </trkpt>
      <trkpt lat="44.71424" lon="0.86172">
        <ele>157.79</ele>
        <time>2014-08-17T10:03:49Z</time>
      </trkpt>
      <trkpt lat="44.71407" lon="0.86139">
        <ele>157.31</ele>
        <time>2014-08-17T10:03:59Z</time>
      </trkpt>
      <trkpt lat="44.71378" lon="0.86116">
        <ele>156.35</ele>
        <time>2014-08-17T10:04:10Z</time>
      </trkpt>
      <trkpt lat="44.71351" lon="0.86101">
        <ele>157.31</ele>
        <time>2014-08-17T10:04:21Z</time>
      </trkpt>
      <trkpt lat="44.71324" lon="0.86092">
        <ele>157.79</ele>
        <time>2014-08-17T10:04:31Z</time>
      </trkpt>
      <trkpt lat="44.71295" lon="0.86083">
        <ele>159.24</ele>
        <time>2014-08-17T10:04:41Z</time>
      </trkpt>
      <trkpt lat="44.71275" lon="0.86077">
        <ele>161.16</ele>
        <time>2014-08-17T10:04:48Z</time>
      </trkpt>
      <trkpt lat="44.71249" lon="0.86066">
        <ele>164.04</ele>
        <time>2014-08-17T10:04:59Z</time>
      </trkpt>
      <trkpt lat="44.7124" lon="0.8606">
        <ele>164.04</ele>
        <time>2014-08-17T10:05:03Z</time>
      </trkpt>
      <trkpt lat="44.71217" lon="0.86046">
        <ele>165.48</ele>
        <time>2014-08-17T10:05:18Z</time>
      </trkpt>
      <trkpt lat="44.71198" lon="0.86037">
        <ele>165.48</ele>
        <time>2014-08-17T10:05:29Z</time>
      </trkpt>
      <trkpt lat="44.71188" lon="0.86027">
        <ele>165</ele>
        <time>2014-08-17T10:05:36Z</time>
      </trkpt>
      <trkpt lat="44.7117" lon="0.86011">
        <ele>167.41</ele>
        <time>2014-08-17T10:05:50Z</time>
      </trkpt>
      <trkpt lat="44.71169" lon="0.8601">
        <ele>167.89</ele>
        <time>2014-08-17T10:05:51Z</time>
      </trkpt>
      <trkpt lat="44.71152" lon="0.85998">
        <ele>167.89</ele>
        <time>2014-08-17T10:06:03Z</time>
      </trkpt>
      <trkpt lat="44.71148" lon="0.86">
        <ele>168.37</ele>
        <time>2014-08-17T10:06:08Z</time>
      </trkpt>
      <trkpt lat="44.71148" lon="0.86018">
        <ele>168.85</ele>
        <time>2014-08-17T10:06:16Z</time>
      </trkpt>
      <trkpt lat="44.71148" lon="0.86047">
        <ele>170.77</ele>
        <time>2014-08-17T10:06:27Z</time>
      </trkpt>
      <trkpt lat="44.71148" lon="0.86053">
        <ele>171.25</ele>
        <time>2014-08-17T10:06:29Z</time>
      </trkpt>
      <trkpt lat="44.71147" lon="0.86056">
        <ele>171.73</ele>
        <time>2014-08-17T10:06:31Z</time>
      </trkpt>
      <trkpt lat="44.71131" lon="0.86085">
        <ele>174.14</ele>
        <time>2014-08-17T10:06:43Z</time>
      </trkpt>
      <trkpt lat="44.71128" lon="0.86089">
        <ele>174.14</ele>
        <time>2014-08-17T10:06:45Z</time>
      </trkpt>
      <trkpt lat="44.71122" lon="0.86105">
        <ele>176.06</ele>
        <time>2014-08-17T10:06:50Z</time>
      </trkpt>
      <trkpt lat="44.7112" lon="0.86114">
        <ele>176.54</ele>
        <time>2014-08-17T10:06:55Z</time>
      </trkpt>
      <trkpt lat="44.71107" lon="0.86136">
        <ele>177.02</ele>
        <time>2014-08-17T10:07:01Z</time>
      </trkpt>
      <trkpt lat="44.71096" lon="0.86144">
        <ele>177.02</ele>
        <time>2014-08-17T10:07:05Z</time>
      </trkpt>
      <trkpt lat="44.71049" lon="0.86201">
        <ele>177.02</ele>
        <time>2014-08-17T10:07:16Z</time>
      </trkpt>
      <trkpt lat="44.71036" lon="0.86249">
        <ele>177.5</ele>
        <time>2014-08-17T10:07:26Z</time>
      </trkpt>
      <trkpt lat="44.71041" lon="0.86277">
        <ele>178.46</ele>
        <time>2014-08-17T10:07:33Z</time>
      </trkpt>
      <trkpt lat="44.7104" lon="0.86307">
        <ele>178.46</ele>
        <time>2014-08-17T10:07:39Z</time>
      </trkpt>
      <trkpt lat="44.71026" lon="0.86324">
        <ele>178.46</ele>
        <time>2014-08-17T10:07:44Z</time>
      </trkpt>
      <trkpt lat="44.70982" lon="0.86354">
        <ele>177.5</ele>
        <time>2014-08-17T10:07:57Z</time>
      </trkpt>
      <trkpt lat="44.70957" lon="0.86362">
        <ele>175.1</ele>
        <time>2014-08-17T10:08:09Z</time>
      </trkpt>
      <trkpt lat="44.7095" lon="0.86361">
        <ele>174.14</ele>
        <time>2014-08-17T10:08:12Z</time>
      </trkpt>
      <trkpt lat="44.70923" lon="0.86357">
        <ele>175.1</ele>
        <time>2014-08-17T10:08:23Z</time>
      </trkpt>
      <trkpt lat="44.70876" lon="0.8635">
        <ele>181.35</ele>
        <time>2014-08-17T10:08:38Z</time>
      </trkpt>
      <trkpt lat="44.70845" lon="0.86345">
        <ele>182.79</ele>
        <time>2014-08-17T10:08:49Z</time>
      </trkpt>
      <trkpt lat="44.70822" lon="0.86342">
        <ele>185.19</ele>
        <time>2014-08-17T10:08:58Z</time>
      </trkpt>
      <trkpt lat="44.70809" lon="0.8634">
        <ele>185.19</ele>
        <time>2014-08-17T10:09:03Z</time>
      </trkpt>
      <trkpt lat="44.70777" lon="0.86342">
        <ele>182.79</ele>
        <time>2014-08-17T10:09:13Z</time>
      </trkpt>
      <trkpt lat="44.70739" lon="0.86324">
        <ele>180.87</ele>
        <time>2014-08-17T10:09:20Z</time>
      </trkpt>
      <trkpt lat="44.7071" lon="0.8634">
        <ele>179.9</ele>
        <time>2014-08-17T10:09:27Z</time>
      </trkpt>
      <trkpt lat="44.70701" lon="0.86353">
        <ele>181.35</ele>
        <time>2014-08-17T10:09:35Z</time>
      </trkpt>
      <trkpt lat="44.70699" lon="0.8636">
        <ele>182.79</ele>
        <time>2014-08-17T10:09:39Z</time>
      </trkpt>
      <trkpt lat="44.70691" lon="0.86378">
        <ele>187.59</ele>
        <time>2014-08-17T10:09:51Z</time>
      </trkpt>
      <trkpt lat="44.70679" lon="0.86393">
        <ele>191.92</ele>
        <time>2014-08-17T10:10:03Z</time>
      </trkpt>
      <trkpt lat="44.70675" lon="0.86405">
        <ele>191.92</ele>
        <time>2014-08-17T10:10:07Z</time>
      </trkpt>
      <trkpt lat="44.70668" lon="0.86427">
        <ele>191.92</ele>
        <time>2014-08-17T10:10:13Z</time>
      </trkpt>
      <trkpt lat="44.70653" lon="0.86456">
        <ele>191.44</ele>
        <time>2014-08-17T10:10:18Z</time>
      </trkpt>
      <trkpt lat="44.7064" lon="0.86494">
        <ele>187.11</ele>
        <time>2014-08-17T10:10:23Z</time>
      </trkpt>
      <trkpt lat="44.70639" lon="0.86497">
        <ele>185.67</ele>
        <time>2014-08-17T10:10:24Z</time>
      </trkpt>
      <trkpt lat="44.70638" lon="0.86501">
        <ele>184.23</ele>
        <time>2014-08-17T10:10:25Z</time>
      </trkpt>
      <trkpt lat="44.70636" lon="0.86505">
        <ele>183.27</ele>
        <time>2014-08-17T10:10:26Z</time>
      </trkpt>
      <trkpt lat="44.70632" lon="0.86511">
        <ele>182.31</ele>
        <time>2014-08-17T10:10:27Z</time>
      </trkpt>
      <trkpt lat="44.70613" lon="0.86554">
        <ele>178.94</ele>
        <time>2014-08-17T10:10:38Z</time>
      </trkpt>
      <trkpt lat="44.70591" lon="0.86595">
        <ele>174.14</ele>
        <time>2014-08-17T10:10:54Z</time>
      </trkpt>
      <trkpt lat="44.70569" lon="0.86613">
        <ele>173.66</ele>
        <time>2014-08-17T10:11:07Z</time>
      </trkpt>
      <trkpt lat="44.70569" lon="0.86611">
        <ele>170.29</ele>
        <time>2014-08-17T10:11:26Z</time>
      </trkpt>
      <trkpt lat="44.70568" lon="0.86613">
        <ele>169.33</ele>
        <time>2014-08-17T10:11:46Z</time>
      </trkpt>
      <trkpt lat="44.70565" lon="0.86615">
        <ele>168.85</ele>
        <time>2014-08-17T10:11:56Z</time>
      </trkpt>
      <trkpt lat="44.70564" lon="0.86617">
        <ele>168.85</ele>
        <time>2014-08-17T10:11:57Z</time>
      </trkpt>
      <trkpt lat="44.70547" lon="0.86637">
        <ele>168.85</ele>
        <time>2014-08-17T10:12:05Z</time>
      </trkpt>
      <trkpt lat="44.70543" lon="0.8664">
        <ele>168.85</ele>
        <time>2014-08-17T10:12:06Z</time>
      </trkpt>
      <trkpt lat="44.70538" lon="0.86643">
        <ele>168.37</ele>
        <time>2014-08-17T10:12:07Z</time>
      </trkpt>
      <trkpt lat="44.70532" lon="0.86644">
        <ele>167.89</ele>
        <time>2014-08-17T10:12:08Z</time>
      </trkpt>
      <trkpt lat="44.70527" lon="0.86644">
        <ele>167.41</ele>
        <time>2014-08-17T10:12:09Z</time>
      </trkpt>
      <trkpt lat="44.70522" lon="0.86641">
        <ele>166.93</ele>
        <time>2014-08-17T10:12:10Z</time>
      </trkpt>
      <trkpt lat="44.70518" lon="0.86634">
        <ele>166.45</ele>
        <time>2014-08-17T10:12:11Z</time>
      </trkpt>
      <trkpt lat="44.70515" lon="0.86627">
        <ele>165.96</ele>
        <time>2014-08-17T10:12:12Z</time>
      </trkpt>
      <trkpt lat="44.70512" lon="0.86618">
        <ele>165</ele>
        <time>2014-08-17T10:12:13Z</time>
      </trkpt>
      <trkpt lat="44.70508" lon="0.8661">
        <ele>164.04</ele>
        <time>2014-08-17T10:12:14Z</time>
      </trkpt>
      <trkpt lat="44.70502" lon="0.86603">
        <ele>163.56</ele>
        <time>2014-08-17T10:12:15Z</time>
      </trkpt>
      <trkpt lat="44.70494" lon="0.86596">
        <ele>162.6</ele>
        <time>2014-08-17T10:12:16Z</time>
      </trkpt>
      <trkpt lat="44.70486" lon="0.86592">
        <ele>161.64</ele>
        <time>2014-08-17T10:12:17Z</time>
      </trkpt>
      <trkpt lat="44.70477" lon="0.86591">
        <ele>161.16</ele>
        <time>2014-08-17T10:12:18Z</time>
      </trkpt>
      <trkpt lat="44.70467" lon="0.86592">
        <ele>160.68</ele>
        <time>2014-08-17T10:12:19Z</time>
      </trkpt>
      <trkpt lat="44.70459" lon="0.86594">
        <ele>160.2</ele>
        <time>2014-08-17T10:12:20Z</time>
      </trkpt>
      <trkpt lat="44.70452" lon="0.86598">
        <ele>160.2</ele>
        <time>2014-08-17T10:12:21Z</time>
      </trkpt>
      <trkpt lat="44.70448" lon="0.86604">
        <ele>159.72</ele>
        <time>2014-08-17T10:12:22Z</time>
      </trkpt>
      <trkpt lat="44.70445" lon="0.86609">
        <ele>159.72</ele>
        <time>2014-08-17T10:12:23Z</time>
      </trkpt>
      <trkpt lat="44.70443" lon="0.86615">
        <ele>159.24</ele>
        <time>2014-08-17T10:12:24Z</time>
      </trkpt>
      <trkpt lat="44.70443" lon="0.86621">
        <ele>159.24</ele>
        <time>2014-08-17T10:12:25Z</time>
      </trkpt>
      <trkpt lat="44.70443" lon="0.86626">
        <ele>158.75</ele>
        <time>2014-08-17T10:12:26Z</time>
      </trkpt>
      <trkpt lat="44.70443" lon="0.86632">
        <ele>158.75</ele>
        <time>2014-08-17T10:12:27Z</time>
      </trkpt>
      <trkpt lat="44.70445" lon="0.86701">
        <ele>157.31</ele>
        <time>2014-08-17T10:12:37Z</time>
      </trkpt>
      <trkpt lat="44.70442" lon="0.86715">
        <ele>157.31</ele>
        <time>2014-08-17T10:12:39Z</time>
      </trkpt>
      <trkpt lat="44.70439" lon="0.86722">
        <ele>156.83</ele>
        <time>2014-08-17T10:12:40Z</time>
      </trkpt>
      <trkpt lat="44.70435" lon="0.86728">
        <ele>156.83</ele>
        <time>2014-08-17T10:12:41Z</time>
      </trkpt>
      <trkpt lat="44.70431" lon="0.86734">
        <ele>156.35</ele>
        <time>2014-08-17T10:12:42Z</time>
      </trkpt>
      <trkpt lat="44.70426" lon="0.86739">
        <ele>156.35</ele>
        <time>2014-08-17T10:12:43Z</time>
      </trkpt>
      <trkpt lat="44.70423" lon="0.86745">
        <ele>155.87</ele>
        <time>2014-08-17T10:12:44Z</time>
      </trkpt>
      <trkpt lat="44.70422" lon="0.86752">
        <ele>155.87</ele>
        <time>2014-08-17T10:12:45Z</time>
      </trkpt>
      <trkpt lat="44.70422" lon="0.86759">
        <ele>155.87</ele>
        <time>2014-08-17T10:12:46Z</time>
      </trkpt>
      <trkpt lat="44.70422" lon="0.86766">
        <ele>155.87</ele>
        <time>2014-08-17T10:12:47Z</time>
      </trkpt>
      <trkpt lat="44.70423" lon="0.86773">
        <ele>155.87</ele>
        <time>2014-08-17T10:12:48Z</time>
      </trkpt>
      <trkpt lat="44.70422" lon="0.8678">
        <ele>155.87</ele>
        <time>2014-08-17T10:12:49Z</time>
      </trkpt>
      <trkpt lat="44.70423" lon="0.86848">
        <ele>160.68</ele>
        <time>2014-08-17T10:13:02Z</time>
      </trkpt>
      <trkpt lat="44.70422" lon="0.86903">
        <ele>162.12</ele>
        <time>2014-08-17T10:13:13Z</time>
      </trkpt>
      <trkpt lat="44.70414" lon="0.86963">
        <ele>166.45</ele>
        <time>2014-08-17T10:13:27Z</time>
      </trkpt>
      <trkpt lat="44.70405" lon="0.87017">
        <ele>170.29</ele>
        <time>2014-08-17T10:13:43Z</time>
      </trkpt>
      <trkpt lat="44.70395" lon="0.87068">
        <ele>172.69</ele>
        <time>2014-08-17T10:13:59Z</time>
      </trkpt>
      <trkpt lat="44.70395" lon="0.8708">
        <ele>172.69</ele>
        <time>2014-08-17T10:14:03Z</time>
      </trkpt>
      <trkpt lat="44.70395" lon="0.87083">
        <ele>172.69</ele>
        <time>2014-08-17T10:14:04Z</time>
      </trkpt>
      <trkpt lat="44.70396" lon="0.87087">
        <ele>172.69</ele>
        <time>2014-08-17T10:14:05Z</time>
      </trkpt>
      <trkpt lat="44.70396" lon="0.87089">
        <ele>172.69</ele>
        <time>2014-08-17T10:14:06Z</time>
      </trkpt>
      <trkpt lat="44.70396" lon="0.87092">
        <ele>172.69</ele>
        <time>2014-08-17T10:14:07Z</time>
      </trkpt>
      <trkpt lat="44.70395" lon="0.87096">
        <ele>172.21</ele>
        <time>2014-08-17T10:14:08Z</time>
      </trkpt>
      <trkpt lat="44.70393" lon="0.87099">
        <ele>172.21</ele>
        <time>2014-08-17T10:14:09Z</time>
      </trkpt>
      <trkpt lat="44.70392" lon="0.87104">
        <ele>172.21</ele>
        <time>2014-08-17T10:14:10Z</time>
      </trkpt>
      <trkpt lat="44.70391" lon="0.87109">
        <ele>172.21</ele>
        <time>2014-08-17T10:14:11Z</time>
      </trkpt>
      <trkpt lat="44.7039" lon="0.87114">
        <ele>172.21</ele>
        <time>2014-08-17T10:14:12Z</time>
      </trkpt>
      <trkpt lat="44.70388" lon="0.87127">
        <ele>171.73</ele>
        <time>2014-08-17T10:14:14Z</time>
      </trkpt>
      <trkpt lat="44.70386" lon="0.87149">
        <ele>171.25</ele>
        <time>2014-08-17T10:14:18Z</time>
      </trkpt>
      <trkpt lat="44.70374" lon="0.87166">
        <ele>170.29</ele>
        <time>2014-08-17T10:14:22Z</time>
      </trkpt>
      <trkpt lat="44.70339" lon="0.87176">
        <ele>170.29</ele>
        <time>2014-08-17T10:14:28Z</time>
      </trkpt>
      <trkpt lat="44.70301" lon="0.87172">
        <ele>167.89</ele>
        <time>2014-08-17T10:14:36Z</time>
      </trkpt>
      <trkpt lat="44.70272" lon="0.87161">
        <ele>167.89</ele>
        <time>2014-08-17T10:14:46Z</time>
      </trkpt>
      <trkpt lat="44.70267" lon="0.87159">
        <ele>167.41</ele>
        <time>2014-08-17T10:14:48Z</time>
      </trkpt>
      <trkpt lat="44.70257" lon="0.87156">
        <ele>165.96</ele>
        <time>2014-08-17T10:14:52Z</time>
      </trkpt>
      <trkpt lat="44.70221" lon="0.87156">
        <ele>165.96</ele>
        <time>2014-08-17T10:15:04Z</time>
      </trkpt>
      <trkpt lat="44.70209" lon="0.87156">
        <ele>165.96</ele>
        <time>2014-08-17T10:15:08Z</time>
      </trkpt>
      <trkpt lat="44.70179" lon="0.87157">
        <ele>165.48</ele>
        <time>2014-08-17T10:15:20Z</time>
      </trkpt>
      <trkpt lat="44.70155" lon="0.87162">
        <ele>167.89</ele>
        <time>2014-08-17T10:15:31Z</time>
      </trkpt>
      <trkpt lat="44.7012" lon="0.87167">
        <ele>174.62</ele>
        <time>2014-08-17T10:15:45Z</time>
      </trkpt>
      <trkpt lat="44.70094" lon="0.87162">
        <ele>174.62</ele>
        <time>2014-08-17T10:15:57Z</time>
      </trkpt>
      <trkpt lat="44.70066" lon="0.87157">
        <ele>174.14</ele>
        <time>2014-08-17T10:16:09Z</time>
      </trkpt>
      <trkpt lat="44.70044" lon="0.87156">
        <ele>175.58</ele>
        <time>2014-08-17T10:16:18Z</time>
      </trkpt>
      <trkpt lat="44.70018" lon="0.87159">
        <ele>176.54</ele>
        <time>2014-08-17T10:16:30Z</time>
      </trkpt>
      <trkpt lat="44.69998" lon="0.87158">
        <ele>178.94</ele>
        <time>2014-08-17T10:16:38Z</time>
      </trkpt>
      <trkpt lat="44.69994" lon="0.87158">
        <ele>179.42</ele>
        <time>2014-08-17T10:16:40Z</time>
      </trkpt>
      <trkpt lat="44.69987" lon="0.87159">
        <ele>179.42</ele>
        <time>2014-08-17T10:16:46Z</time>
      </trkpt>
      <trkpt lat="44.69975" lon="0.87181">
        <ele>180.87</ele>
        <time>2014-08-17T10:16:53Z</time>
      </trkpt>
      <trkpt lat="44.69967" lon="0.87206">
        <ele>182.31</ele>
        <time>2014-08-17T10:17:02Z</time>
      </trkpt>
      <trkpt lat="44.69964" lon="0.87213">
        <ele>182.79</ele>
        <time>2014-08-17T10:17:05Z</time>
      </trkpt>
      <trkpt lat="44.6996" lon="0.87218">
        <ele>183.27</ele>
        <time>2014-08-17T10:17:08Z</time>
      </trkpt>
      <trkpt lat="44.69937" lon="0.87226">
        <ele>186.15</ele>
        <time>2014-08-17T10:17:22Z</time>
      </trkpt>
      <trkpt lat="44.69922" lon="0.87228">
        <ele>189.52</ele>
        <time>2014-08-17T10:17:35Z</time>
      </trkpt>
      <trkpt lat="44.69915" lon="0.87229">
        <ele>191.44</ele>
        <time>2014-08-17T10:17:41Z</time>
      </trkpt>
      <trkpt lat="44.69899" lon="0.87226">
        <ele>192.4</ele>
        <time>2014-08-17T10:17:51Z</time>
      </trkpt>
      <trkpt lat="44.69872" lon="0.87229">
        <ele>188.56</ele>
        <time>2014-08-17T10:18:04Z</time>
      </trkpt>
      <trkpt lat="44.69868" lon="0.87231">
        <ele>188.08</ele>
        <time>2014-08-17T10:18:06Z</time>
      </trkpt>
      <trkpt lat="44.69843" lon="0.87231">
        <ele>187.59</ele>
        <time>2014-08-17T10:18:19Z</time>
      </trkpt>
      <trkpt lat="44.69841" lon="0.8723">
        <ele>187.59</ele>
        <time>2014-08-17T10:18:21Z</time>
      </trkpt>
      <trkpt lat="44.69819" lon="0.87226">
        <ele>189.52</ele>
        <time>2014-08-17T10:18:34Z</time>
      </trkpt>
      <trkpt lat="44.69784" lon="0.87231">
        <ele>190</ele>
        <time>2014-08-17T10:18:49Z</time>
      </trkpt>
      <trkpt lat="44.69749" lon="0.87232">
        <ele>189.52</ele>
        <time>2014-08-17T10:19:02Z</time>
      </trkpt>
      <trkpt lat="44.69713" lon="0.87244">
        <ele>188.56</ele>
        <time>2014-08-17T10:19:16Z</time>
      </trkpt>
      <trkpt lat="44.69681" lon="0.87256">
        <ele>188.08</ele>
        <time>2014-08-17T10:19:29Z</time>
      </trkpt>
      <trkpt lat="44.69651" lon="0.87256">
        <ele>190</ele>
        <time>2014-08-17T10:19:43Z</time>
      </trkpt>
      <trkpt lat="44.6965" lon="0.87257">
        <ele>190</ele>
        <time>2014-08-17T10:20:02Z</time>
      </trkpt>
      <trkpt lat="44.69629" lon="0.8726">
        <ele>192.4</ele>
        <time>2014-08-17T10:20:12Z</time>
      </trkpt>
      <trkpt lat="44.69591" lon="0.87266">
        <ele>195.28</ele>
        <time>2014-08-17T10:20:24Z</time>
      </trkpt>
      <trkpt lat="44.69588" lon="0.87267">
        <ele>195.77</ele>
        <time>2014-08-17T10:20:25Z</time>
      </trkpt>
      <trkpt lat="44.69594" lon="0.873">
        <ele>199.13</ele>
        <time>2014-08-17T10:20:34Z</time>
      </trkpt>
      <trkpt lat="44.69593" lon="0.87337">
        <ele>198.17</ele>
        <time>2014-08-17T10:20:43Z</time>
      </trkpt>
      <trkpt lat="44.69592" lon="0.87349">
        <ele>197.69</ele>
        <time>2014-08-17T10:20:47Z</time>
      </trkpt>
      <trkpt lat="44.69584" lon="0.87375">
        <ele>198.17</ele>
        <time>2014-08-17T10:20:54Z</time>
      </trkpt>
      <trkpt lat="44.6958" lon="0.8739">
        <ele>199.13</ele>
        <time>2014-08-17T10:20:58Z</time>
      </trkpt>
      <trkpt lat="44.6957" lon="0.87424">
        <ele>202.49</ele>
        <time>2014-08-17T10:21:09Z</time>
      </trkpt>
      <trkpt lat="44.6957" lon="0.87451">
        <ele>204.42</ele>
        <time>2014-08-17T10:21:17Z</time>
      </trkpt>
      <trkpt lat="44.69568" lon="0.8748">
        <ele>204.9</ele>
        <time>2014-08-17T10:21:27Z</time>
      </trkpt>
      <trkpt lat="44.69565" lon="0.87503">
        <ele>205.38</ele>
        <time>2014-08-17T10:21:35Z</time>
      </trkpt>
      <trkpt lat="44.69545" lon="0.87529">
        <ele>209.7</ele>
        <time>2014-08-17T10:21:46Z</time>
      </trkpt>
      <trkpt lat="44.69518" lon="0.87557">
        <ele>210.67</ele>
        <time>2014-08-17T10:21:56Z</time>
      </trkpt>
      <trkpt lat="44.69488" lon="0.8759">
        <ele>209.22</ele>
        <time>2014-08-17T10:22:06Z</time>
      </trkpt>
      <trkpt lat="44.69462" lon="0.87637">
        <ele>207.78</ele>
        <time>2014-08-17T10:22:17Z</time>
      </trkpt>
      <trkpt lat="44.69419" lon="0.87702">
        <ele>202.98</ele>
        <time>2014-08-17T10:22:33Z</time>
      </trkpt>
      <trkpt lat="44.69358" lon="0.87757">
        <ele>199.13</ele>
        <time>2014-08-17T10:22:50Z</time>
      </trkpt>
      <trkpt lat="44.69299" lon="0.87807">
        <ele>198.65</ele>
        <time>2014-08-17T10:23:05Z</time>
      </trkpt>
      <trkpt lat="44.69249" lon="0.87844">
        <ele>200.09</ele>
        <time>2014-08-17T10:23:19Z</time>
      </trkpt>
      <trkpt lat="44.69243" lon="0.8785">
        <ele>200.09</ele>
        <time>2014-08-17T10:23:21Z</time>
      </trkpt>
      <trkpt lat="44.6924" lon="0.87854">
        <ele>200.09</ele>
        <time>2014-08-17T10:23:22Z</time>
      </trkpt>
      <trkpt lat="44.69238" lon="0.87858">
        <ele>200.09</ele>
        <time>2014-08-17T10:23:23Z</time>
      </trkpt>
      <trkpt lat="44.69236" lon="0.87861">
        <ele>200.09</ele>
        <time>2014-08-17T10:23:24Z</time>
      </trkpt>
      <trkpt lat="44.69234" lon="0.87866">
        <ele>200.09</ele>
        <time>2014-08-17T10:23:25Z</time>
      </trkpt>
      <trkpt lat="44.6923" lon="0.87874">
        <ele>199.61</ele>
        <time>2014-08-17T10:23:27Z</time>
      </trkpt>
      <trkpt lat="44.69227" lon="0.87884">
        <ele>199.61</ele>
        <time>2014-08-17T10:23:29Z</time>
      </trkpt>
      <trkpt lat="44.69225" lon="0.8789">
        <ele>199.61</ele>
        <time>2014-08-17T10:23:30Z</time>
      </trkpt>
      <trkpt lat="44.69206" lon="0.87935">
        <ele>198.17</ele>
        <time>2014-08-17T10:23:39Z</time>
      </trkpt>
      <trkpt lat="44.692" lon="0.87952">
        <ele>197.69</ele>
        <time>2014-08-17T10:23:42Z</time>
      </trkpt>
      <trkpt lat="44.69177" lon="0.88048">
        <ele>197.21</ele>
        <time>2014-08-17T10:23:58Z</time>
      </trkpt>
      <trkpt lat="44.69166" lon="0.88087">
        <ele>197.21</ele>
        <time>2014-08-17T10:24:05Z</time>
      </trkpt>
      <trkpt lat="44.6915" lon="0.88175">
        <ele>197.69</ele>
        <time>2014-08-17T10:24:20Z</time>
      </trkpt>
      <trkpt lat="44.69145" lon="0.88208">
        <ele>197.69</ele>
        <time>2014-08-17T10:24:26Z</time>
      </trkpt>
      <trkpt lat="44.6912" lon="0.88298">
        <ele>197.69</ele>
        <time>2014-08-17T10:24:42Z</time>
      </trkpt>
      <trkpt lat="44.69117" lon="0.8831">
        <ele>197.21</ele>
        <time>2014-08-17T10:24:44Z</time>
      </trkpt>
      <trkpt lat="44.69106" lon="0.88429">
        <ele>195.28</ele>
        <time>2014-08-17T10:25:02Z</time>
      </trkpt>
      <trkpt lat="44.69105" lon="0.88436">
        <ele>194.8</ele>
        <time>2014-08-17T10:25:03Z</time>
      </trkpt>
      <trkpt lat="44.69104" lon="0.88505">
        <ele>194.8</ele>
        <time>2014-08-17T10:25:17Z</time>
      </trkpt>
      <trkpt lat="44.69105" lon="0.8851">
        <ele>195.28</ele>
        <time>2014-08-17T10:25:31Z</time>
      </trkpt>
      <trkpt lat="44.69106" lon="0.88512">
        <ele>195.28</ele>
        <time>2014-08-17T10:25:32Z</time>
      </trkpt>
      <trkpt lat="44.69107" lon="0.88514">
        <ele>195.28</ele>
        <time>2014-08-17T10:25:33Z</time>
      </trkpt>
      <trkpt lat="44.69108" lon="0.88515">
        <ele>195.28</ele>
        <time>2014-08-17T10:25:34Z</time>
      </trkpt>
      <trkpt lat="44.6911" lon="0.88515">
        <ele>195.28</ele>
        <time>2014-08-17T10:25:35Z</time>
      </trkpt>
      <trkpt lat="44.69111" lon="0.88516">
        <ele>195.28</ele>
        <time>2014-08-17T10:25:36Z</time>
      </trkpt>
      <trkpt lat="44.69114" lon="0.88516">
        <ele>195.28</ele>
        <time>2014-08-17T10:25:37Z</time>
      </trkpt>
      <trkpt lat="44.6916" lon="0.88524">
        <ele>195.28</ele>
        <time>2014-08-17T10:25:48Z</time>
      </trkpt>
      <trkpt lat="44.69201" lon="0.88527">
        <ele>193.84</ele>
        <time>2014-08-17T10:25:56Z</time>
      </trkpt>
      <trkpt lat="44.69258" lon="0.88533">
        <ele>192.88</ele>
        <time>2014-08-17T10:26:08Z</time>
      </trkpt>
      <trkpt lat="44.69262" lon="0.88533">
        <ele>192.88</ele>
        <time>2014-08-17T10:26:09Z</time>
      </trkpt>
      <trkpt lat="44.69266" lon="0.88533">
        <ele>192.88</ele>
        <time>2014-08-17T10:26:10Z</time>
      </trkpt>
      <trkpt lat="44.6927" lon="0.88534">
        <ele>192.88</ele>
        <time>2014-08-17T10:26:11Z</time>
      </trkpt>
      <trkpt lat="44.69273" lon="0.88534">
        <ele>192.88</ele>
        <time>2014-08-17T10:26:12Z</time>
      </trkpt>
      <trkpt lat="44.69286" lon="0.88534">
        <ele>192.88</ele>
        <time>2014-08-17T10:26:18Z</time>
      </trkpt>
      <trkpt lat="44.69287" lon="0.88534">
        <ele>192.88</ele>
        <time>2014-08-17T10:26:19Z</time>
      </trkpt>
      <trkpt lat="44.69288" lon="0.88536">
        <ele>192.88</ele>
        <time>2014-08-17T10:26:20Z</time>
      </trkpt>
      <trkpt lat="44.69283" lon="0.88545">
        <ele>192.88</ele>
        <time>2014-08-17T10:26:25Z</time>
      </trkpt>
      <trkpt lat="44.69282" lon="0.88547">
        <ele>192.4</ele>
        <time>2014-08-17T10:26:26Z</time>
      </trkpt>
      <trkpt lat="44.6928" lon="0.88549">
        <ele>192.4</ele>
        <time>2014-08-17T10:26:27Z</time>
      </trkpt>
      <trkpt lat="44.69279" lon="0.88551">
        <ele>191.92</ele>
        <time>2014-08-17T10:26:28Z</time>
      </trkpt>
      <trkpt lat="44.69272" lon="0.8856">
        <ele>191.92</ele>
        <time>2014-08-17T10:26:35Z</time>
      </trkpt>
      <trkpt lat="44.69255" lon="0.8858">
        <ele>193.84</ele>
        <time>2014-08-17T10:26:45Z</time>
      </trkpt>
      <trkpt lat="44.69224" lon="0.88608">
        <ele>195.28</ele>
        <time>2014-08-17T10:26:56Z</time>
      </trkpt>
      <trkpt lat="44.69188" lon="0.8862">
        <ele>198.65</ele>
        <time>2014-08-17T10:27:06Z</time>
      </trkpt>
      <trkpt lat="44.69129" lon="0.88619">
        <ele>196.25</ele>
        <time>2014-08-17T10:27:21Z</time>
      </trkpt>
      <trkpt lat="44.69081" lon="0.8862">
        <ele>196.25</ele>
        <time>2014-08-17T10:27:33Z</time>
      </trkpt>
      <trkpt lat="44.69041" lon="0.8864">
        <ele>195.77</ele>
        <time>2014-08-17T10:27:44Z</time>
      </trkpt>
      <trkpt lat="44.69022" lon="0.88651">
        <ele>196.73</ele>
        <time>2014-08-17T10:27:49Z</time>
      </trkpt>
      <trkpt lat="44.69013" lon="0.88656">
        <ele>197.21</ele>
        <time>2014-08-17T10:27:51Z</time>
      </trkpt>
      <trkpt lat="44.68977" lon="0.88681">
        <ele>199.61</ele>
        <time>2014-08-17T10:28:00Z</time>
      </trkpt>
      <trkpt lat="44.68973" lon="0.88684">
        <ele>199.61</ele>
        <time>2014-08-17T10:28:01Z</time>
      </trkpt>
      <trkpt lat="44.68969" lon="0.88686">
        <ele>200.09</ele>
        <time>2014-08-17T10:28:02Z</time>
      </trkpt>
      <trkpt lat="44.68955" lon="0.88698">
        <ele>201.05</ele>
        <time>2014-08-17T10:28:06Z</time>
      </trkpt>
      <trkpt lat="44.68923" lon="0.88754">
        <ele>204.9</ele>
        <time>2014-08-17T10:28:19Z</time>
      </trkpt>
      <trkpt lat="44.68914" lon="0.88765">
        <ele>205.38</ele>
        <time>2014-08-17T10:28:22Z</time>
      </trkpt>
      <trkpt lat="44.68911" lon="0.88764">
        <ele>205.38</ele>
        <time>2014-08-17T10:28:23Z</time>
      </trkpt>
      <trkpt lat="44.68906" lon="0.88763">
        <ele>204.42</ele>
        <time>2014-08-17T10:28:24Z</time>
      </trkpt>
      <trkpt lat="44.68902" lon="0.8876">
        <ele>204.42</ele>
        <time>2014-08-17T10:28:25Z</time>
      </trkpt>
      <trkpt lat="44.68898" lon="0.88757">
        <ele>203.94</ele>
        <time>2014-08-17T10:28:26Z</time>
      </trkpt>
      <trkpt lat="44.6885" lon="0.88717">
        <ele>200.09</ele>
        <time>2014-08-17T10:28:39Z</time>
      </trkpt>
      <trkpt lat="44.68818" lon="0.88689">
        <ele>200.09</ele>
        <time>2014-08-17T10:28:50Z</time>
      </trkpt>
      <trkpt lat="44.68805" lon="0.88682">
        <ele>199.61</ele>
        <time>2014-08-17T10:28:57Z</time>
      </trkpt>
      <trkpt lat="44.68803" lon="0.88683">
        <ele>199.61</ele>
        <time>2014-08-17T10:28:58Z</time>
      </trkpt>
      <trkpt lat="44.68779" lon="0.88729">
        <ele>201.05</ele>
        <time>2014-08-17T10:29:13Z</time>
      </trkpt>
      <trkpt lat="44.68745" lon="0.88801">
        <ele>203.46</ele>
        <time>2014-08-17T10:29:31Z</time>
      </trkpt>
      <trkpt lat="44.68701" lon="0.88893">
        <ele>204.9</ele>
        <time>2014-08-17T10:29:52Z</time>
      </trkpt>
      <trkpt lat="44.68665" lon="0.88978">
        <ele>203.46</ele>
        <time>2014-08-17T10:30:08Z</time>
      </trkpt>
      <trkpt lat="44.68616" lon="0.89098">
        <ele>202.49</ele>
        <time>2014-08-17T10:30:26Z</time>
      </trkpt>
      <trkpt lat="44.68566" lon="0.89219">
        <ele>203.46</ele>
        <time>2014-08-17T10:30:44Z</time>
      </trkpt>
      <trkpt lat="44.68511" lon="0.89301">
        <ele>202.01</ele>
        <time>2014-08-17T10:30:59Z</time>
      </trkpt>
      <trkpt lat="44.68497" lon="0.89314">
        <ele>201.05</ele>
        <time>2014-08-17T10:31:02Z</time>
      </trkpt>
      <trkpt lat="44.68424" lon="0.89346">
        <ele>200.09</ele>
        <time>2014-08-17T10:31:16Z</time>
      </trkpt>
      <trkpt lat="44.68314" lon="0.89361">
        <ele>199.61</ele>
        <time>2014-08-17T10:31:36Z</time>
      </trkpt>
      <trkpt lat="44.68248" lon="0.89372">
        <ele>198.65</ele>
        <time>2014-08-17T10:31:50Z</time>
      </trkpt>
      <trkpt lat="44.68246" lon="0.89376">
        <ele>198.65</ele>
        <time>2014-08-17T10:31:51Z</time>
      </trkpt>
      <trkpt lat="44.68245" lon="0.8938">
        <ele>198.65</ele>
        <time>2014-08-17T10:31:52Z</time>
      </trkpt>
      <trkpt lat="44.68245" lon="0.89385">
        <ele>198.65</ele>
        <time>2014-08-17T10:31:53Z</time>
      </trkpt>
      <trkpt lat="44.68245" lon="0.8939">
        <ele>198.65</ele>
        <time>2014-08-17T10:31:54Z</time>
      </trkpt>
      <trkpt lat="44.68246" lon="0.89395">
        <ele>198.65</ele>
        <time>2014-08-17T10:31:55Z</time>
      </trkpt>
      <trkpt lat="44.68246" lon="0.894">
        <ele>198.65</ele>
        <time>2014-08-17T10:31:56Z</time>
      </trkpt>
      <trkpt lat="44.68249" lon="0.89427">
        <ele>199.13</ele>
        <time>2014-08-17T10:32:01Z</time>
      </trkpt>
      <trkpt lat="44.68247" lon="0.8943">
        <ele>199.13</ele>
        <time>2014-08-17T10:32:02Z</time>
      </trkpt>
      <trkpt lat="44.68245" lon="0.89432">
        <ele>199.13</ele>
        <time>2014-08-17T10:32:03Z</time>
      </trkpt>
      <trkpt lat="44.68242" lon="0.89433">
        <ele>199.13</ele>
        <time>2014-08-17T10:32:04Z</time>
      </trkpt>
      <trkpt lat="44.68238" lon="0.89434">
        <ele>199.61</ele>
        <time>2014-08-17T10:32:05Z</time>
      </trkpt>
      <trkpt lat="44.68209" lon="0.89438">
        <ele>200.57</ele>
        <time>2014-08-17T10:32:17Z</time>
      </trkpt>
      <trkpt lat="44.6818" lon="0.89443">
        <ele>200.09</ele>
        <time>2014-08-17T10:32:29Z</time>
      </trkpt>
      <trkpt lat="44.68172" lon="0.89444">
        <ele>200.09</ele>
        <time>2014-08-17T10:32:31Z</time>
      </trkpt>
      <trkpt lat="44.68167" lon="0.89445">
        <ele>200.09</ele>
        <time>2014-08-17T10:32:32Z</time>
      </trkpt>
      <trkpt lat="44.68148" lon="0.89448">
        <ele>199.61</ele>
        <time>2014-08-17T10:32:39Z</time>
      </trkpt>
      <trkpt lat="44.68144" lon="0.89447">
        <ele>199.13</ele>
        <time>2014-08-17T10:32:40Z</time>
      </trkpt>
      <trkpt lat="44.6814" lon="0.89447">
        <ele>199.13</ele>
        <time>2014-08-17T10:32:41Z</time>
      </trkpt>
      <trkpt lat="44.68067" lon="0.8946">
        <ele>199.61</ele>
        <time>2014-08-17T10:32:58Z</time>
      </trkpt>
      <trkpt lat="44.68044" lon="0.89463">
        <ele>199.61</ele>
        <time>2014-08-17T10:33:09Z</time>
      </trkpt>
      <trkpt lat="44.68014" lon="0.89457">
        <ele>202.01</ele>
        <time>2014-08-17T10:33:20Z</time>
      </trkpt>
      <trkpt lat="44.68012" lon="0.89458">
        <ele>202.01</ele>
        <time>2014-08-17T10:33:21Z</time>
      </trkpt>
      <trkpt lat="44.68004" lon="0.89465">
        <ele>202.98</ele>
        <time>2014-08-17T10:33:26Z</time>
      </trkpt>
      <trkpt lat="44.67957" lon="0.89475">
        <ele>202.49</ele>
        <time>2014-08-17T10:33:38Z</time>
      </trkpt>
      <trkpt lat="44.67882" lon="0.89483">
        <ele>199.61</ele>
        <time>2014-08-17T10:33:54Z</time>
      </trkpt>
      <trkpt lat="44.6786" lon="0.89484">
        <ele>198.65</ele>
        <time>2014-08-17T10:33:59Z</time>
      </trkpt>
      <trkpt lat="44.67858" lon="0.89482">
        <ele>198.17</ele>
        <time>2014-08-17T10:34:00Z</time>
      </trkpt>
      <trkpt lat="44.67857" lon="0.89478">
        <ele>197.69</ele>
        <time>2014-08-17T10:34:01Z</time>
      </trkpt>
      <trkpt lat="44.67856" lon="0.89473">
        <ele>197.69</ele>
        <time>2014-08-17T10:34:02Z</time>
      </trkpt>
      <trkpt lat="44.67856" lon="0.89467">
        <ele>197.21</ele>
        <time>2014-08-17T10:34:03Z</time>
      </trkpt>
      <trkpt lat="44.67848" lon="0.89393">
        <ele>194.32</ele>
        <time>2014-08-17T10:34:17Z</time>
      </trkpt>
      <trkpt lat="44.67848" lon="0.89388">
        <ele>193.84</ele>
        <time>2014-08-17T10:34:19Z</time>
      </trkpt>
      <trkpt lat="44.67848" lon="0.89386">
        <ele>193.36</ele>
        <time>2014-08-17T10:34:20Z</time>
      </trkpt>
    </trkseg>
  </trk>
</gpx>